[[{"header":{"parameterUnit":"m.s-1","parameterCategory":1,"la1":30.6,"la2":29.2853,"lo1":-89.7004,"lo2":-87.6739,"dy":0.0162,"dx":0.0183,"nx":112,"ny":82,"refTime":"2023-10-08T12:00:00:Z","depth":0,"parameterNumber":2,"parameterNumberName":"U-component_of_WINDS"},"data":[0.0,0.0,0.0,0.0,0.0,0.0,0.0,0.0,0.0,0.0,0.0,0.0,0.0,0.0,0.0,0.0,0.0,0.0,0.0,0.0,0.0,0.0,0.0,0.0,0.0,0.0,0.0,0.0,0.0,0.0,0.0,0.0,0.0,0.0,0.0,0.0,0.0,0.0,0.0,0.0,0.0,0.0,0.0,0.0,0.0,0.0,0.0,0.0,0.0,0.0,0.0,0.0,0.0,0.0,0.0,0.0,0.0,0.0,0.0,0.0,0.0,0.0,0.0,0.0,0.0,0.0,0.0,0.0,0.0,0.0,0.0,0.0,0.0,0.0,0.0,0.0,0.0,0.0,0.0,0.0,0.0,0.0,0.0,0.0,0.0,0.0,0.0,0.0,0.0,0.0,-0.101,-0.1592,-0.2317,-0.2869,-0.301,-0.35,-0.3778,-0.3687,0.0,0.0,0.0,0.0,0.0,0.0,0.0,0.0,0.0,0.0,0.0,0.0,0.0,0.0,0.0,0.0,0.0,0.0,0.0,0.0,0.0,0.0,0.0,0.0,0.0,0.0,0.0,0.0,0.0,0.0,0.0,0.0,0.0,0.0,0.0,0.0,0.0,0.0,0.0,0.0,0.0,0.0,0.0,0.0,0.0,0.0,0.0,0.0,0.0,0.0,0.0,0.0,0.0,0.0,0.0,0.0,0.0,0.0,0.0,0.0,0.0,0.0,0.0,0.0,0.0,0.0,0.0,0.0,0.0,0.0,0.0,0.0,0.0,0.0,0.0,0.0,0.0,0.0,0.0,0.0,0.0,0.0,0.0,0.0,0.0,0.0,0.0,0.0,0.0,0.0,0.0,0.0,0.0,0.0,0.0,0.0,0.0,0.0,0.0,0.0,0.0,0.0,0.0,0.0,-0.1113,-0.1695,-0.2121,-0.2546,-0.2957,-0.3181,-0.3401,-0.3599,0.0,0.0,0.0,0.0,0.0,0.0,0.0,0.0,0.0,0.0,0.0,0.0,0.0,0.0,0.0,0.0,0.0,0.0,0.0,0.0,0.0,0.0,0.0,0.0,0.0,0.0,0.0,0.0,0.0,0.0,0.0,0.0,0.0,0.0,0.0,0.0,0.0,0.0,0.0,0.0,0.0,0.0,0.0,0.0,0.0,0.0,0.0,0.0,0.0,0.0,0.0,0.0,0.0,0.0,0.0,0.0,0.0,0.0,0.0,0.0,0.0,0.0,0.0,0.0,0.0,0.0,0.0,0.0,0.0,0.0,0.0,0.0,0.0,0.0,0.0,0.0,0.0,0.0,0.0,0.0,0.0,0.0,0.0,0.0,0.0,0.0,0.0,0.0,0.0,0.0,0.0,0.0,0.0,0.0,0.0,0.0,0.0,0.0,0.0,0.0,0.0,0.0,0.0,-0.1009,-0.1313,-0.1794,-0.2202,-0.2579,-0.2871,-0.3071,-0.3203,-0.3281,-0.3284,0.0,0.0,0.0,0.0,0.0,0.0,0.0,0.0,0.0,0.0,0.0,0.0,0.0,0.0,0.0,0.0,0.0,0.0,0.0,0.0,0.0,0.0,0.0,0.0,0.0,0.0,0.0,0.0,0.0,0.0,0.0,0.0,0.0,0.0,0.0,0.0,0.0,0.0,0.0,0.0,0.0,0.0,0.0,0.0,0.0,0.0,0.0,0.0,0.0,0.0,0.0,0.0,0.0,0.0,0.0,0.0,0.0,0.0,0.0,0.0,0.0,0.0,0.0,0.0,0.0,0.0,0.0,0.0,0.0,0.0,0.0,0.0,0.0,0.0,0.0,0.0,0.0,0.0,0.0,0.0,0.0,0.0,0.0,0.0,0.0,0.0,0.0,0.0,0.0,0.0,0.0,0.0,0.0,0.0,0.0,0.0,0.0,0.0,0.0,0.0,0.0,0.0,-0.1154,-0.1436,-0.1852,-0.2267,-0.2588,-0.285,-0.3001,-0.3032,-0.2989,-0.2703,0.0,0.0,0.0,0.0,0.0,0.0,0.0,0.0,0.0,0.0,0.0,0.0,0.0,0.0,0.0,0.0,0.0,0.0,0.0,0.0,0.0,0.0,0.0,0.0,0.0,0.0,0.0,0.0,0.0,0.0,0.0,0.0,0.0,0.0,0.0,0.0,0.0,0.0,0.0,0.0,0.0,0.0,0.0,0.0,0.0,0.0,0.0,0.0,0.0,0.0,0.0,0.0,0.0,0.0,0.0,0.0,0.0,0.0,0.0,0.0,0.0,0.0,0.0,0.0,0.0,0.0,0.0,0.0,0.0,0.0,0.0,0.0,0.0,0.0,0.0,0.0,0.0,0.0,0.0,0.0,0.0,0.0,0.0,0.0,0.0,0.0,0.0,0.0,0.0,0.0,0.0,0.0,0.0,0.0,0.0,0.0,0.0,0.0,0.0,0.0,0.0,0.0,-0.1065,-0.1365,-0.1833,-0.2119,-0.2475,-0.3046,-0.2828,-0.2718,-0.2913,-0.2382,0.0,0.0,0.0,0.0,0.0,0.0,0.0,0.0,0.0,0.0,0.0,0.0,0.0,0.0,0.0,0.0,0.0,0.0,0.0,0.0,0.0,0.0,0.0,0.0,0.0,0.0,0.0,0.0,0.0,0.0,0.0,0.0,0.0,0.0,0.0,0.0,0.0,0.0,0.0,0.0,0.0,0.0,0.0,0.0,0.0,0.0,0.0,0.0,0.0,0.0,0.0,0.0,0.0,0.0,0.0,0.0,0.0,0.0,0.0,0.0,0.0,0.0,0.0,0.0,0.0,0.0,0.0,0.0,0.0,0.0,0.0,0.0,0.0,0.0,0.0,0.0,0.0,0.0,0.0,0.0,0.0,0.0,0.0,0.0,0.0,0.0,0.0,0.0,0.0,0.0,0.0,0.0,0.0,0.0,0.0,0.0,0.0,0.0,0.0,0.0,0.0,0.0,-0.1206,-0.146,-0.2009,-0.2169,-0.243,-0.291,-0.2733,-0.257,-0.252,0.0,0.0,0.0,0.0,0.0,0.0,0.0,0.0,0.0,0.0,0.0,0.0,0.0,0.0,0.0,0.0,0.0,0.0,0.0,0.0,0.0,0.0,0.0,0.0,0.0,0.0,0.0,0.0,0.0,0.0,0.0,0.0,0.0,0.0,0.0,0.0,0.0,0.0,0.0,0.0,0.0,0.0,0.0,0.0,0.0,0.0,0.0,0.0,0.0,0.0,0.0,0.0,0.0,0.0,0.0,0.0,0.0,0.0,0.0,0.0,0.0,0.0,0.0,0.0,0.0,0.0,0.0,0.0,0.0,0.0,0.0,0.0,0.0,0.0,0.0,0.0,0.0,0.0,0.0,0.0,0.0,0.0,0.0,0.0,0.0,0.0,0.0,0.0,0.0,0.0,0.0,0.0,0.0,0.0,0.0,0.0,0.0,0.0,0.0,0.0,0.0,0.0,-0.1103,-0.124,-0.1489,-0.2098,-0.2153,-0.2408,-0.286,-0.2628,-0.2417,-0.2265,0.0,0.0,0.0,0.0,0.0,0.0,0.0,0.0,0.0,0.0,0.0,0.0,0.0,0.0,0.0,0.0,0.0,0.0,0.0,0.0,0.0,0.0,0.0,0.0,0.0,0.0,0.0,0.0,0.0,0.0,0.0,0.0,0.0,0.0,0.0,0.0,0.0,0.0,0.0,0.0,0.0,0.0,0.0,0.0,0.0,0.0,0.0,0.0,0.0,0.0,0.0,0.0,0.0,0.0,0.0,0.0,0.0,0.0,0.0,0.0,0.0,0.0,0.0,0.0,0.0,0.0,0.0,0.0,0.0,0.0,0.0,0.0,0.0,0.0,0.0,0.0,0.0,0.0,0.0,0.0,0.0,0.0,0.0,0.0,0.0,0.0,0.0,0.0,0.0,0.0,0.0,0.0,0.0,0.0,0.0,0.0,0.0,0.0,0.0,0.0,0.0,0.0,-0.0994,-0.116,-0.1504,-0.1944,-0.2127,-0.2408,-0.286,-0.2469,-0.2164,0.0,0.0,0.0,0.0,0.0,0.0,0.0,0.0,0.0,0.0,0.0,0.0,0.0,0.0,0.0,0.0,0.0,0.0,0.0,0.0,0.0,0.0,0.0,0.0,0.0,0.0,0.0,0.0,0.0,0.0,0.0,0.0,0.0,0.0,0.0,0.0,0.0,0.0,0.0,0.0,0.0,0.0,0.0,0.0,0.0,0.0,0.0,0.0,0.0,0.0,0.0,0.0,0.0,0.0,0.0,0.0,0.0,0.0,0.0,0.0,0.0,0.0,0.0,0.0,0.0,0.0,0.0,0.0,0.0,0.0,0.0,0.0,0.0,0.0,0.0,0.0,0.0,0.0,0.0,0.0,0.0,0.0,0.0,0.0,0.0,0.0,0.0,0.0,0.0,0.0,0.0,0.0,0.0,0.0,0.0,0.0,0.0,0.0,0.0,0.0,0.0,0.0,0.0,-0.1147,-0.1261,-0.1504,-0.1944,-0.2127,-0.224,-0.2408,-0.2258,-0.2064,-0.1816,0.0,0.0,0.0,0.0,0.0,0.0,0.0,0.0,0.0,0.0,0.0,0.0,0.0,0.0,0.0,0.0,0.0,0.0,0.0,0.0,0.0,0.0,0.0,0.0,0.0,0.0,0.0,0.0,0.0,0.0,0.0,0.0,0.0,0.0,0.0,0.0,0.0,0.0,0.0,0.0,0.0,0.0,0.0,0.0,0.0,0.0,0.0,0.0,0.0,0.0,0.0,0.0,0.0,0.0,0.0,0.0,0.0,0.0,0.0,0.0,0.0,0.0,0.0,0.0,0.0,0.0,0.0,0.0,0.0,0.0,0.0,0.0,0.0,0.0,0.0,0.0,0.0,0.0,0.0,0.0,0.0,0.0,0.0,0.0,0.0,0.0,0.0,0.0,0.0,0.0,0.0,0.0,0.0,0.0,0.0,0.0,0.0,0.0,0.0,0.0,0.0,0.0,-0.1249,-0.1312,-0.1504,-0.1944,-0.2071,-0.2127,-0.2184,-0.205,-0.1814,-0.1463,0.0,0.0,0.0,0.0,0.0,0.0,0.0,0.0,0.0,0.0,0.0,0.0,0.0,0.0,0.0,0.0,0.0,0.0,0.0,0.0,0.0,0.0,0.0,0.0,0.0,0.0,0.0,0.0,0.0,0.0,0.0,0.0,0.0,0.0,0.0,0.0,0.0,0.0,0.0,0.0,0.0,0.0,0.0,0.0,0.0,0.0,0.0,0.0,0.0,0.0,0.0,0.0,0.0,0.0,0.0,0.0,0.0,0.0,0.0,0.0,0.0,0.0,0.0,0.0,0.0,0.0,0.0,0.0,0.0,0.0,0.0,0.0,0.0,0.0,0.0,0.0,0.0,0.0,0.0,0.0,0.0,0.0,0.0,0.0,0.0,0.0,0.0,0.0,0.0,0.0,0.0,0.0,0.0,0.0,0.0,0.0,0.0,0.0,0.0,0.0,0.0,0.0,-0.1249,-0.1312,-0.1452,-0.1946,-0.2015,-0.2015,-0.2128,-0.1847,-0.152,-0.106,0.0,0.0,0.0,0.0,0.0,0.0,0.0,0.0,0.0,0.0,0.0,0.0,0.0,0.0,0.0,0.0,0.0,0.0,0.0,0.0,0.0,0.0,0.0,0.0,0.0,0.0,0.0,0.0,0.0,0.0,0.0,0.0,0.0,0.0,0.0,0.0,0.0,0.0,0.0,0.0,0.0,0.0,0.0,0.0,0.0,0.0,0.0,0.0,0.0,0.0,0.0,0.0,0.0,0.0,0.0,0.0,0.0,0.0,0.0,0.0,-0.2862,-0.296,0.0,0.0,0.0,0.0,0.0,0.0,0.0,0.0,0.0,0.0,0.0,0.0,0.0,0.0,0.0,0.0,0.0,0.0,0.0,0.0,0.0,0.0,0.0,0.0,0.0,0.0,0.0,0.0,0.0,0.0,0.0,0.0,0.0,0.0,0.0,0.0,0.0,0.0,0.0,0.0,-0.1249,-0.1312,-0.1453,-0.1782,-0.1961,-0.1903,-0.1738,-0.1729,-0.1405,-0.0757,-0.0,0.0,0.0,0.0,0.0,0.0,0.0,0.0,0.0,0.0,0.0,0.0,0.0,0.0,0.0,0.0,0.0,0.0,0.0,0.0,0.0,0.0,0.0,0.0,0.0,0.0,0.0,0.0,0.0,0.0,0.0,0.0,0.0,0.0,0.0,0.0,0.0,0.0,0.0,0.0,0.0,0.0,0.0,0.0,0.0,0.0,0.0,0.0,0.0,0.0,0.0,0.0,0.0,0.0,0.0,0.0,0.0,0.0,0.0,0.0,-0.2721,-0.2727,0.0,0.0,0.0,0.0,0.0,0.0,0.0,0.0,0.0,0.0,0.0,0.0,0.0,0.0,0.0,0.0,0.0,0.0,0.0,0.0,0.0,0.0,0.0,0.0,0.0,0.0,0.0,0.0,0.0,0.0,0.0,0.0,0.0,0.0,0.0,0.0,0.0,0.0,0.0,0.0,-0.1302,-0.1384,-0.1482,-0.1788,-0.1852,-0.1794,-0.1628,-0.1577,-0.1259,-0.0505,0.0146,0.0,0.0,0.0,0.0,0.0,0.0,0.0,0.0,0.0,0.0,0.0,0.0,0.0,0.0,0.0,0.0,0.0,0.0,0.0,0.0,0.0,0.0,0.0,0.0,0.0,0.0,0.0,0.0,0.0,0.0,0.0,0.0,0.0,0.0,0.0,0.0,0.0,0.0,0.0,0.0,0.0,0.0,0.0,0.0,0.0,0.0,0.0,0.0,0.0,0.0,0.0,0.0,0.0,-0.1949,-0.2091,-0.2359,-0.2583,-0.2713,-0.2776,-0.2684,-0.2636,-0.2585,-0.2504,0.0,0.0,0.0,0.0,0.0,0.0,0.0,0.0,0.0,0.0,0.0,0.0,0.0,0.0,0.0,0.0,0.0,0.0,0.0,0.0,0.0,0.0,0.0364,-0.0038,-0.0205,-0.0388,-0.0707,0.0,0.0,0.0,0.0,0.0,0.0,0.0,0.0,0.0,0.0,0.0,-0.142,-0.1465,-0.1567,-0.179,-0.1797,-0.1741,-0.1572,-0.1422,-0.1056,-0.0354,0.0196,0.0753,0.0,0.0,0.0,0.0,0.0,0.0,0.0,0.0,0.0,0.0,0.0,0.0,0.0,0.0,0.0,0.0,0.0,0.0,0.0,0.0,0.0,0.0,0.0,0.0,0.0,0.0,0.0,0.0,0.0,0.0,0.0,0.0,0.0533,0.0422,0.0,0.0,0.0,0.0,0.0,0.0,0.0,0.0,0.0,0.0,0.0,0.0,0.0,-0.1166,-0.1078,-0.17,-0.2046,-0.2072,-0.2372,-0.2619,-0.2866,-0.2938,-0.2951,-0.2959,-0.2922,0.0,-0.2834,-0.2553,0.0,0.0,0.0,0.0,0.0,0.0,0.0,0.0,0.0,0.0,0.0,0.0,0.0,0.0,0.0,0.0,0.0,0.0,0.0,0.0,0.0,0.0,-0.0137,-0.0322,-0.0669,-0.1084,-0.1472,-0.1335,-0.1225,-0.1421,-0.1531,-0.1633,0.0,0.0,0.0,0.0,0.0,0.0,-0.1475,-0.1488,-0.1567,-0.179,-0.1797,-0.1685,-0.1347,-0.1285,-0.0975,-0.0405,0.005,0.0581,0.1123,0.1336,0.0,0.0,0.0,0.0,0.0,0.0,0.0,0.0,0.0,0.0,0.0,0.0,0.0,0.0,0.0,0.0,0.0,0.0,0.0,0.0,0.0,0.0,0.0,0.0,0.0,0.0,0.0,0.0,0.0,0.0656,0.0575,0.0515,0.0421,0.0397,0.0,0.0,0.0,0.0,0.0,0.0,0.0,0.0,0.0,-0.0903,-0.1087,-0.1243,-0.1362,-0.1844,-0.2148,-0.2309,-0.2522,-0.2798,-0.3015,-0.3015,-0.3107,-0.3218,-0.3162,-0.3162,-0.3259,-0.283,-0.2503,-0.2341,0.0,0.0,0.0,0.0,-0.1739,-0.1684,-0.1821,-0.2016,-0.2223,-0.2089,0.0,0.0,0.0,0.0,0.0,0.0,0.0,-0.0768,-0.0608,-0.0709,-0.0963,-0.1506,-0.1879,-0.2165,-0.2306,-0.224,-0.2123,-0.1888,-0.1965,-0.2066,-0.2118,-0.2015,0.0,0.0,0.0,-0.183,-0.1911,-0.1895,-0.1929,-0.2015,-0.1962,-0.1794,-0.1572,-0.1459,-0.1199,-0.0709,-0.0403,-0.0049,0.0359,0.0537,0.0746,0.0,0.0,0.0,0.0,0.0,0.0,0.0,0.0,0.0,0.0,0.0,0.0,0.0,0.0,0.0,0.0,0.0,0.0,0.0,0.0,0.0,0.0,0.0,0.0,0.0,0.0,0.0,0.0,0.0638,0.0593,0.0523,0.0526,0.057,0.0,0.0,0.0,0.0,0.0,0.0,-0.0928,-0.0967,-0.1059,-0.121,-0.1225,-0.1392,-0.1726,-0.2018,-0.2316,-0.262,-0.2767,-0.2965,-0.3151,-0.3151,-0.3253,-0.3512,-0.3434,-0.3509,-0.3632,-0.3119,-0.2819,-0.2695,-0.2627,-0.2563,-0.2393,-0.2478,-0.2493,-0.2552,-0.266,-0.2808,-0.2969,-0.2872,-0.2913,-0.2883,-0.2697,0.0,0.0,0.0,0.0,-0.1718,-0.1453,-0.158,-0.192,-0.2571,-0.2934,-0.3143,-0.3047,-0.3136,-0.3113,-0.2497,-0.2501,-0.2654,-0.2683,-0.2572,0.0,-0.2519,-0.2416,-0.2402,-0.2402,-0.24,-0.2373,-0.2354,-0.224,-0.2128,-0.1908,-0.1738,-0.1525,-0.1115,-0.0958,-0.0828,-0.0674,-0.0537,-0.0441,-0.0385,0.0,0.0,0.0,0.0,0.0,0.0,0.0,0.0,0.0,0.0,0.0,0.0,0.0,0.0,0.0,0.0,0.0,0.0,0.0,0.0,0.0,0.0,0.0,0.0,0.0,0.0,0.0,0.0,0.0,0.062,0.0585,0.0,0.0,0.0,0.0,0.0588,0.0408,-0.0096,-0.1048,-0.1348,-0.1474,-0.1457,-0.1582,-0.1787,-0.1963,-0.2342,-0.2697,-0.2891,-0.3105,-0.328,-0.3482,-0.3482,-0.3616,-0.3818,-0.388,-0.3949,-0.3936,-0.3465,-0.3254,-0.3249,-0.3245,-0.3238,-0.3234,-0.3464,-0.3525,-0.353,-0.3653,-0.3724,-0.3774,-0.3834,-0.3697,-0.3559,-0.3486,-0.3281,0.0,0.0,-0.2717,-0.2699,-0.2493,-0.2733,-0.3045,-0.3055,-0.3425,-0.3734,-0.3747,-0.3875,-0.3806,-0.336,-0.3357,-0.3387,-0.3285,0.0,-0.3031,-0.3031,-0.2978,-0.2861,-0.2861,-0.2865,-0.2838,-0.2699,-0.2691,-0.2521,-0.2184,-0.2184,-0.2013,-0.1572,-0.1616,-0.1756,-0.1981,-0.1794,-0.1701,-0.1698,-0.0946,0.0,0.0,0.0,0.0,0.0,0.0,0.0,0.0,0.0,0.0,0.0,0.0,0.0,0.0,0.0,0.0,0.0,0.0,0.0,0.0,0.0,0.0,0.0,0.0,0.0,0.0,0.0,0.0,0.0533,0.0633,0.0,0.0801,0.0771,0.0748,0.0737,0.0303,-0.0316,-0.1059,-0.1301,-0.1568,-0.1818,-0.1918,-0.2074,-0.2411,-0.2678,-0.2915,-0.3111,-0.3278,-0.3563,-0.383,-0.383,-0.4028,-0.4428,-0.4495,-0.4694,-0.5014,-0.4847,-0.4552,-0.4164,-0.4226,-0.4243,-0.4239,-0.4358,-0.4484,-0.4559,-0.4778,-0.4866,-0.4998,-0.5013,-0.4931,-0.4816,-0.4727,-0.4536,-0.4245,-0.402,-0.3855,-0.3653,-0.3492,-0.3751,-0.4014,-0.4094,-0.4304,-0.4514,-0.4595,-0.4552,-0.4493,-0.4296,-0.4107,-0.3986,-0.4059,-0.3931,-0.3813,-0.3813,-0.369,-0.363,-0.363,-0.3505,-0.3447,-0.341,-0.3229,-0.3079,-0.2968,-0.2854,-0.2661,-0.2375,-0.2413,-0.2384,-0.2337,-0.2284,-0.215,-0.1928,-0.1502,-0.0951,0.0,0.0,0.0,0.0,0.0,0.0,0.0,0.0,0.0,0.0,0.0,0.0,0.0,0.0,0.0,0.0,0.0,0.0,0.0,0.0,0.0,0.0,0.0,0.0,0.0,0.0,0.0525,0.0365,0.0611,0.0776,0.0804,0.0818,0.0735,0.0605,0.0056,-0.0632,-0.1456,-0.1642,-0.1911,-0.222,-0.2329,-0.2549,-0.2814,-0.3064,-0.3293,-0.3493,-0.3664,-0.3951,-0.4355,-0.4395,-0.4688,-0.517,-0.5307,-0.5545,-0.5829,-0.5966,-0.58,-0.5286,-0.5282,-0.5225,-0.5206,-0.5335,-0.546,-0.5485,-0.5778,-0.5938,-0.6069,-0.6069,-0.5996,-0.5887,-0.5789,-0.5549,-0.5399,-0.5213,-0.4981,-0.4768,-0.4601,-0.4716,-0.4895,-0.499,-0.5148,-0.524,-0.5335,-0.5292,-0.516,-0.516,-0.4813,-0.4484,-0.4559,-0.4553,-0.4494,-0.4436,-0.4433,-0.435,-0.4305,-0.4222,-0.4133,-0.4047,-0.3848,-0.3744,-0.3688,-0.3574,-0.3379,-0.3184,-0.3134,-0.3075,-0.2928,-0.2837,-0.264,-0.2328,-0.1837,-0.1228,-0.042,0.0,0.0,0.0,0.0,0.0,0.0,0.0,0.0,0.0,0.0,0.0,0.0,0.0,0.0,0.0,0.0,0.0,0.0,0.0,0.0,0.0,0.0,0.0,0.0421,0.0483,0.0378,0.0053,0.0481,0.0814,0.0785,0.0753,0.059,0.0177,-0.0304,-0.1065,-0.2191,-0.2389,-0.2549,-0.2751,-0.2889,-0.3092,-0.3232,-0.3435,-0.3703,-0.4041,-0.4222,-0.4619,-0.5171,-0.5309,-0.5587,-0.5946,-0.638,-0.6428,-0.6272,-0.6829,-0.6928,-0.6692,-0.6288,-0.6148,-0.6145,-0.6354,-0.6428,-0.6457,-0.6695,-0.688,-0.6968,-0.6817,-0.6742,-0.6674,-0.6535,-0.6459,-0.6388,-0.6248,-0.6128,-0.5855,-0.571,-0.5666,-0.5613,-0.5617,-0.5752,-0.5892,-0.5892,-0.5892,-0.5888,-0.5888,-0.5488,-0.5045,-0.4717,-0.4947,-0.5142,-0.4951,-0.5075,0.0,-0.4921,-0.4897,-0.4845,-0.4556,-0.4519,-0.446,-0.4233,-0.4233,-0.4175,-0.3931,-0.3894,-0.3798,-0.3748,-0.3514,-0.3306,-0.299,-0.1967,-0.1008,-0.0126,0.0,0.0,0.0,0.0,0.0,0.0,0.0,0.0,0.0,0.0,0.0,0.0,0.0,0.0,0.0,0.0,0.0,0.0,0.0,0.0,0.0,0.0,-0.0758,-0.0084,0.0048,-0.0,-0.0275,-0.0289,-0.0238,-0.006,-0.0182,-0.0307,-0.0502,-0.095,-0.1676,-0.2854,-0.2723,-0.2867,-0.3293,-0.3491,-0.3729,-0.4015,-0.429,-0.4607,-0.4977,-0.5296,-0.5671,-0.6097,-0.6283,-0.6587,-0.6944,-0.7158,-0.7412,-0.757,-0.792,-0.7966,-0.7836,-0.7205,-0.6864,-0.6696,-0.7091,-0.7305,-0.7438,-0.7491,-0.7658,-0.7793,-0.7714,-0.7714,-0.7714,-0.7639,-0.7542,-0.7358,-0.722,-0.6999,-0.6684,-0.647,-0.6408,-0.6346,-0.6218,-0.6218,-0.6218,-0.6148,-0.602,-0.5888,-0.5888,-0.5954,-0.5939,-0.5632,-0.5625,-0.565,-0.5467,-0.5516,-0.5579,-0.5411,-0.5407,-0.5354,-0.5319,-0.5194,-0.5058,-0.5003,-0.5003,-0.4934,-0.4774,-0.4603,-0.4484,-0.4365,-0.4062,-0.3615,-0.3034,-0.2192,-0.1425,0.0,0.0,0.0,0.0,0.0,0.0,0.0,0.0,0.0,0.0,0.0,0.0,0.0,0.0,0.0,0.0,0.0,0.0,0.0,0.0,0.0,0.0,-0.1536,-0.1438,-0.1102,-0.1,-0.0968,-0.1127,-0.1416,-0.158,-0.1598,-0.1662,-0.1737,-0.1963,-0.2294,-0.2774,-0.3422,-0.3394,-0.3551,-0.4034,-0.428,-0.4616,-0.4974,-0.5252,-0.5573,-0.5946,-0.6299,-0.6695,-0.7066,-0.7285,-0.7465,-0.7759,-0.7901,-0.8002,-0.8145,-0.8284,-0.8374,-0.8221,0.0,0.0,0.0,0.0,-0.7831,-0.8018,-0.8018,-0.8139,-0.8327,-0.8255,-0.8255,-0.8178,-0.8102,-0.8023,-0.7913,-0.776,-0.7449,-0.7129,-0.6971,-0.6814,-0.6745,-0.6618,-0.6548,-0.6482,-0.6412,-0.6284,-0.6152,-0.6218,-0.6412,0.0,-0.625,-0.6173,-0.6137,-0.597,-0.5958,-0.5973,-0.585,-0.5793,-0.5755,-0.568,-0.5571,-0.5508,-0.5508,-0.5508,0.0,0.0,0.0,-0.5005,-0.4747,-0.4405,0.0,0.0,0.0,-0.1791,-0.1119,-0.0175,0.0,0.0,0.3079,0.3834,0.0,0.0,0.0,0.0,0.0,0.0,0.0,0.0,0.0,0.0,0.0,0.0,0.0,0.0,0.0,0.0,-0.1962,-0.2135,-0.2331,-0.2338,-0.2299,-0.2235,-0.2523,-0.2881,-0.3153,-0.3236,-0.3372,-0.3632,-0.3847,-0.3979,-0.3959,-0.4196,0.0,0.0,0.0,-0.5669,-0.6043,-0.6241,-0.6523,-0.6976,-0.7281,-0.7655,-0.7964,-0.8165,-0.8331,-0.8479,-0.8556,-0.8444,-0.8259,-0.8475,-0.8418,-0.8221,-0.8277,-0.8282,-0.8122,-0.8025,-0.8142,-0.8343,-0.8362,0.0,0.0,-0.847,-0.8403,-0.8403,-0.8255,-0.8178,-0.8138,-0.7934,-0.7739,-0.7548,-0.7344,-0.7154,-0.7012,-0.6946,-0.6876,-0.6806,-0.6741,-0.6613,-0.6482,-0.6675,-0.6724,-0.672,-0.6678,-0.6647,-0.6572,-0.6412,-0.6323,-0.6265,-0.6125,-0.6098,-0.6036,-0.5868,-0.585,0.0,-0.585,-0.585,-0.585,-0.585,-0.5659,-0.538,-0.4965,-0.4619,-0.4218,-0.3708,-0.2976,-0.2254,-0.1534,-0.0852,-0.0089,0.0804,0.2056,0.2845,0.0,0.0,0.0,0.0,0.0,0.0,0.0,0.0,0.0,0.0,0.0,0.0,0.0,0.0,0.0,-0.2728,-0.2914,-0.3106,-0.3349,-0.3511,-0.3283,-0.2633,-0.2761,-0.3008,-0.3157,-0.3428,-0.378,-0.4164,-0.4314,-0.4532,-0.4827,-0.5021,-0.5303,-0.5652,-0.6082,-0.6512,-0.7012,-0.7165,-0.7449,-0.7737,-0.8226,0.0,-0.8553,-0.892,-0.9094,-0.917,-0.9316,-0.927,-0.9071,-0.9285,-0.9145,-0.8699,-0.824,-0.8285,-0.8459,-0.8256,-0.8322,-0.8554,-0.8524,-0.861,-0.8704,-0.8652,-0.8627,-0.8627,-0.8627,-0.8551,0.0,-0.831,-0.825,-0.8112,-0.7893,-0.7817,-0.7727,-0.7461,-0.7396,-0.7265,-0.6942,-0.6815,-0.6815,-0.6881,-0.6883,-0.689,-0.697,-0.6773,-0.648,-0.623,-0.6218,-0.6239,-0.6032,-0.6119,-0.6165,-0.6128,-0.6123,-0.6123,-0.6123,-0.6228,-0.6223,-0.6123,-0.5924,-0.5645,-0.5304,-0.5052,-0.4694,-0.4319,-0.3674,-0.3009,-0.2445,-0.1731,-0.1074,-0.0492,0.1228,0.2392,0.0,0.0,0.0,0.0,0.0,0.0,0.0,0.0,0.0,0.0,0.0,-0.3426,0.0,0.0,-0.3474,-0.3632,-0.3842,-0.4091,-0.4339,-0.442,-0.4265,-0.3544,-0.3725,-0.3961,-0.3961,-0.4411,-0.4757,-0.5093,-0.5218,-0.543,-0.5756,-0.5982,-0.6324,-0.674,-0.7078,-0.7512,-0.8024,-0.8075,-0.8168,-0.8303,-0.8667,-0.8816,-0.8821,-0.9127,-0.9242,-0.9134,-0.9247,-0.917,-0.897,-0.9036,-0.8969,-0.8699,-0.8401,-0.8391,-0.86,-0.8436,-0.8492,-0.8612,-0.859,-0.8634,-0.8635,-0.8778,-0.8846,-0.8866,-0.8978,-0.8934,-0.8802,-0.8597,-0.8453,-0.8236,-0.8076,-0.8002,-0.7922,-0.7657,-0.7526,-0.7396,-0.7138,-0.6946,-0.6946,-0.7012,-0.698,-0.6943,-0.7083,-0.6848,-0.6648,-0.6501,-0.6337,-0.6235,-0.6132,-0.6173,-0.6178,-0.6178,-0.6178,-0.6232,-0.6277,-0.6343,-0.6323,-0.6327,-0.6135,-0.5915,-0.5659,-0.5452,-0.5157,-0.4713,-0.4237,-0.371,-0.3077,-0.2542,-0.2022,-0.1522,-0.0414,0.0636,0.0,0.0,0.0,0.0,0.0,0.0,0.0,0.0,-0.4536,-0.4262,-0.4428,-0.4554,-0.4393,-0.4498,-0.4629,-0.4632,-0.4833,-0.5078,-0.5229,-0.5404,-0.5282,-0.4882,-0.4891,-0.496,-0.503,-0.5512,-0.5848,-0.609,-0.6277,-0.6497,-0.6668,-0.7015,-0.7355,-0.778,-0.8101,-0.8421,-0.8841,-0.8757,-0.8694,-0.8658,-0.8793,-0.8932,-0.8943,-0.9185,-0.9185,-0.8936,-0.9005,-0.8893,-0.8653,-0.8538,-0.8518,-0.8577,-0.8529,-0.8529,-0.8601,-0.8601,-0.8601,-0.8606,-0.8581,-0.8579,-0.8624,-0.8841,-0.8917,-0.8947,-0.9134,-0.9064,-0.8872,-0.8654,-0.8467,-0.8275,-0.8108,-0.8047,-0.7987,-0.7792,-0.7661,-0.7461,-0.733,-0.7138,-0.7064,-0.7154,-0.7053,-0.6912,-0.7061,-0.6841,-0.6695,-0.669,-0.6442,-0.6232,-0.6178,-0.6178,-0.6232,-0.6228,-0.6228,-0.6263,-0.6431,-0.632,-0.6328,-0.6357,-0.6196,-0.6071,-0.5963,-0.5797,-0.5535,-0.5069,-0.4777,-0.4357,-0.3752,-0.3374,-0.2906,-0.2422,-0.2087,-0.1347,-0.596,-0.5944,-0.5939,-0.6098,-0.5974,-0.5806,0.0,0.0,-0.5625,-0.5324,-0.5485,-0.5638,-0.5494,-0.5656,-0.5793,-0.5747,-0.6033,-0.6256,-0.6217,-0.6519,-0.6662,-0.6597,-0.5943,-0.555,-0.5756,-0.6217,-0.6578,-0.6762,-0.7331,-0.7586,-0.7618,-0.7999,-0.8363,-0.8578,-0.8626,-0.8793,-0.9218,-0.8808,-0.8727,-0.8837,-0.8904,-0.8904,-0.891,-0.9141,-0.9162,-0.9125,-0.9017,-0.8926,-0.8815,-0.8403,-0.832,-0.8521,-0.8289,-0.8348,-0.8489,-0.8489,-0.8489,-0.8521,-0.8596,-0.8612,-0.8607,-0.8614,-0.8614,-0.8619,-0.8649,-0.8639,-0.8574,-0.8427,-0.8487,-0.8472,-0.8234,-0.8172,-0.8172,-0.7987,-0.7792,-0.7661,-0.7526,-0.7461,-0.7404,-0.7229,-0.6969,-0.6883,-0.7014,-0.6626,-0.6315,-0.642,-0.6396,-0.6332,-0.6228,-0.6178,-0.6228,-0.6386,-0.6386,-0.6411,-0.6468,-0.6386,-0.6299,-0.6224,-0.6131,-0.6076,-0.6076,-0.5984,-0.5905,-0.5729,-0.5392,-0.4992,-0.4584,-0.4282,-0.3788,-0.318,-0.3036,-0.2463,-0.6946,-0.682,-0.6793,0.0,-0.6918,-0.6905,-0.6789,-0.6878,-0.69,-0.6691,-0.6846,-0.693,-0.685,-0.6924,-0.7002,0.0,-0.718,-0.7357,-0.7312,-0.7456,-0.7521,-0.7521,-0.7321,-0.6994,-0.6675,-0.714,-0.7423,-0.7536,-0.8078,-0.8417,-0.8461,-0.8882,-0.9135,-0.9143,-0.9207,-0.9222,-0.9163,-0.8895,-0.873,-0.8662,-0.8662,-0.8662,-0.8667,-0.8899,-0.9007,-0.8996,-0.8759,-0.8662,-0.8651,-0.8484,-0.8447,-0.8447,-0.8306,-0.8306,-0.8517,-0.8517,-0.8517,-0.8528,-0.8564,-0.853,-0.8567,-0.8727,-0.8806,-0.8827,-0.8889,-0.8837,-0.8785,-0.869,-0.8569,-0.8504,-0.8262,-0.8172,-0.8107,-0.7857,-0.7731,-0.7661,-0.7526,-0.7521,-0.7464,-0.7259,-0.6993,-0.6844,-0.6855,-0.6582,-0.6386,-0.6544,-0.6386,-0.6277,-0.6332,-0.6332,-0.6386,-0.6544,-0.6637,-0.6624,-0.6524,-0.6328,-0.6245,-0.6185,-0.618,-0.6192,-0.6221,-0.6216,-0.6168,-0.6014,-0.5811,-0.5556,-0.5238,-0.484,-0.4418,-0.3969,-0.3598,-0.3069,-0.7687,-0.749,0.0,-0.7636,-0.7764,-0.7844,-0.7846,-0.7958,-0.8057,-0.7937,-0.796,-0.8012,-0.8012,-0.8019,-0.8049,-0.7991,-0.8196,-0.8371,-0.8371,-0.8371,-0.8436,-0.8436,-0.8495,-0.8361,-0.7912,-0.8047,-0.8247,-0.8247,-0.8727,-0.9063,-0.9069,-0.9384,-0.9597,-0.9561,-0.9531,-0.9421,-0.9125,-0.893,-0.875,-0.8517,-0.8517,-0.8517,-0.8522,-0.8689,-0.877,-0.8759,-0.8587,-0.8517,-0.8517,-0.8517,-0.8517,-0.8447,-0.8306,-0.8306,-0.8447,-0.8447,-0.8447,-0.8517,-0.8517,-0.8517,-0.8544,-0.8711,-0.877,-0.8797,-0.8964,-0.8899,-0.877,-0.877,-0.8646,-0.8447,-0.8306,-0.8236,-0.8107,-0.7857,-0.7687,-0.751,-0.744,-0.7329,-0.7229,-0.7026,-0.6865,-0.6695,-0.6704,-0.6538,-0.649,-0.6647,-0.6495,-0.6386,-0.649,-0.6544,-0.6652,-0.6815,-0.6922,-0.6855,-0.6532,-0.6314,-0.617,-0.6086,-0.6165,-0.6209,-0.6273,-0.6395,-0.6436,-0.6282,-0.6112,-0.5923,-0.5653,-0.5249,-0.4859,-0.4492,-0.404,-0.3579,-0.799,-0.7774,-0.7728,-0.8377,-0.8547,-0.865,-0.887,-0.8943,-0.8903,-0.8792,-0.8824,-0.8819,-0.8701,-0.8845,-0.8941,-0.8759,-0.9017,-0.9274,-0.9274,-0.9396,-0.9454,-0.9454,-0.9454,-0.9454,0.0,-0.9017,-0.877,-0.877,-0.9185,-0.9394,-0.9416,-0.9582,-0.9712,-0.9706,-0.9536,-0.9338,-0.912,-0.8898,-0.8716,-0.8517,-0.8517,-0.8517,-0.8517,-0.8522,-0.8528,-0.8528,-0.8517,-0.8517,-0.8517,-0.8517,-0.8517,-0.8447,-0.8306,-0.8236,-0.8236,-0.8236,-0.8306,-0.8517,-0.8517,-0.8517,-0.8517,-0.8522,-0.8528,-0.8528,-0.8533,-0.8533,-0.8528,-0.8528,-0.8522,-0.8517,-0.8517,-0.8252,-0.7987,-0.7987,-0.757,-0.7231,-0.7231,-0.7012,-0.6749,-0.6534,-0.6487,-0.6473,-0.643,-0.6386,-0.649,-0.6647,-0.6701,-0.6707,-0.6701,-0.6923,-0.7085,-0.7085,-0.7084,-0.6946,-0.6612,-0.6363,-0.6073,-0.5755,-0.6033,-0.619,-0.6196,-0.6524,-0.6593,-0.6381,-0.6187,-0.5982,-0.5722,-0.5462,-0.5066,-0.4509,-0.4408,-0.4084,-0.8099,-0.8077,-0.8221,-0.8882,-0.9248,-0.9536,-0.9873,-0.9877,-0.9829,-0.9829,-0.9718,-0.9592,-0.9592,-0.9603,-0.9664,-0.96,-0.9664,-0.9792,-0.9792,-0.9786,-0.9849,-0.9849,-0.9849,0.0,0.0,0.0,0.0,-0.9478,-0.9784,-0.9934,-0.994,-1.0051,-1.0042,-0.9808,-0.9647,-0.9452,-0.9208,-0.8939,-0.8835,-0.8829,-0.877,-0.8646,-0.8517,-0.8517,-0.8517,-0.8517,-0.8517,-0.8517,-0.8517,-0.8517,-0.8517,-0.8447,-0.8306,-0.8306,-0.8376,-0.8236,-0.8236,-0.8306,-0.8447,-0.8441,-0.8306,-0.8447,-0.8517,-0.8517,-0.8517,-0.8517,-0.8517,-0.8517,-0.8517,-0.8447,-0.8306,-0.8132,-0.7891,-0.7633,-0.7407,-0.7249,-0.7133,-0.7135,-0.7077,-0.686,-0.682,-0.6808,-0.6633,-0.6593,-0.6652,-0.682,-0.682,-0.6874,-0.6977,-0.7192,-0.7354,-0.7354,-0.7292,-0.7104,-0.6817,-0.6596,-0.6376,-0.6159,-0.6395,-0.6516,-0.6516,-0.6712,-0.6694,-0.6482,-0.6209,-0.6003,-0.5758,-0.5404,-0.5034,-0.4773,-0.4468,-0.411,-0.8716,-0.8732,-0.8882,-0.9578,-0.9897,-1.0182,-1.0606,-1.067,-1.0555,-1.0491,-1.0216,-1.0026,-0.9963,-0.988,-0.9842,-1.0007,-1.0089,-1.0184,-1.0288,-1.0301,-1.0301,-1.0244,-1.0238,-1.0238,0.0,0.0,0.0,-0.9862,-1.0024,-1.0124,-1.0058,-1.0092,-1.0038,-0.9742,-0.967,-0.9521,-0.9274,-0.9087,-0.8958,-0.9017,-0.8835,-0.8705,-0.8582,-0.8517,-0.8517,-0.8517,-0.8517,-0.8517,-0.8517,-0.8517,-0.8517,-0.8447,-0.8306,-0.8306,-0.8376,-0.8236,-0.8172,-0.8172,-0.8312,-0.8306,-0.8221,-0.8281,-0.8382,-0.8501,-0.8409,-0.8447,-0.8517,-0.8517,-0.8517,-0.8431,-0.827,-0.8075,-0.7819,-0.7491,-0.73,-0.714,-0.7091,-0.708,-0.7037,-0.69,-0.687,-0.688,-0.6732,-0.6761,-0.6815,-0.6928,-0.6987,-0.7095,-0.7144,-0.7359,-0.7521,-0.7521,-0.7344,-0.7138,-0.6934,-0.6712,-0.653,-0.6396,-0.6611,-0.6646,-0.6616,-0.6738,-0.6697,-0.6404,-0.6127,-0.5873,-0.5682,-0.5236,-0.4906,-0.4807,-0.4462,-0.4144,-0.9682,-0.9547,-0.9597,-1.0387,-1.0444,-1.0494,-1.1117,-1.1197,-1.1017,-1.0822,-1.0411,-1.0033,0.0,0.0,-0.9597,-1.0047,-1.0288,-1.0519,-1.0739,-1.0793,-1.0744,0.0,0.0,0.0,0.0,0.0,0.0,-1.0047,0.0,-0.9989,-0.9804,-0.9804,-0.974,-0.9548,-0.9484,-0.9414,-0.9338,-0.9338,-0.921,-0.9017,-0.8894,-0.8835,-0.8835,-0.8576,-0.8511,-0.8517,-0.8517,-0.8517,-0.8517,-0.8517,-0.8517,-0.8447,-0.8306,-0.8236,-0.8236,-0.8236,-0.8112,-0.8047,-0.8156,-0.8161,-0.8135,-0.7975,-0.818,-0.8452,-0.8267,-0.8296,-0.8479,-0.8479,-0.8479,-0.8425,-0.8251,-0.8,-0.7814,-0.754,-0.7259,-0.7033,-0.7033,-0.6859,-0.6756,-0.6756,-0.6756,-0.6756,-0.6756,-0.682,-0.6982,-0.7085,-0.7252,-0.7311,-0.7311,-0.7419,-0.7521,-0.7521,-0.7257,-0.7064,-0.7007,-0.6784,-0.6552,-0.6412,-0.6606,-0.6622,-0.6401,-0.66,-0.6505,-0.6169,-0.5862,-0.5611,-0.5467,-0.503,-0.4709,-0.4618,-0.4403,-0.4236,-0.9827,-0.9694,-0.9688,-1.0385,-1.0512,-1.0505,-1.0857,-1.0828,-1.066,-1.0477,-1.0238,-1.0072,-1.0079,0.0,0.0,-1.0065,-1.0324,0.0,-1.0458,-1.0664,0.0,-1.0624,0.0,-1.0624,-1.0624,-1.0624,0.0,0.0,-1.0308,-1.0238,-1.018,-0.9932,-0.9804,-0.974,-0.9548,-0.9484,-0.9478,-0.9478,-0.928,-0.9017,-0.9145,-0.9087,-0.8958,-0.8765,-0.8705,-0.8705,-0.8582,-0.8517,-0.8517,-0.8517,-0.8517,-0.8517,-0.8447,-0.8447,-0.8447,-0.8447,-0.8306,-0.8151,-0.8043,-0.8037,-0.8011,-0.7913,-0.7944,-0.8012,-0.7962,-0.793,-0.7984,-0.7984,-0.7984,-0.7968,-0.7903,-0.7699,-0.7502,-0.7438,-0.7303,-0.7242,-0.7242,-0.7242,-0.73,-0.73,-0.7198,-0.7198,-0.73,-0.7139,-0.7139,-0.7359,-0.7413,-0.7467,-0.7467,-0.7467,-0.7515,-0.7616,-0.741,-0.7222,-0.7217,-0.6886,-0.6649,-0.6649,-0.6541,-0.6455,-0.6396,-0.6449,-0.632,-0.5992,-0.5779,-0.5576,-0.5277,-0.496,-0.4709,-0.4618,-0.4495,-0.4328,-1.0499,-1.0318,-1.021,-1.0692,-1.0717,-1.0646,-1.0974,-1.0767,-1.0539,-1.0508,-1.0207,-0.9882,-1.0017,-0.9869,-0.9771,0.0,0.0,0.0,-1.0435,-1.0622,-1.0657,0.0,-1.0624,0.0,-1.0624,-1.0624,-1.0624,0.0,-1.0498,-1.0371,-1.0301,-1.0117,-0.9989,-0.9862,-0.9798,-0.9676,-0.9612,-0.9548,-0.9414,-0.9215,-0.9274,-0.9274,-0.9145,-0.8958,-0.8894,-0.8894,-0.877,-0.8705,-0.8646,-0.8646,-0.8576,-0.8506,-0.8398,-0.8355,-0.8339,-0.8299,-0.8188,-0.8099,-0.7976,-0.7958,-0.7964,-0.7673,-0.7728,-0.7951,-0.7773,-0.7837,-0.7979,-0.7979,-0.7979,-0.7957,-0.7841,-0.7714,-0.7588,-0.7483,-0.7411,-0.7365,-0.7365,-0.7467,-0.7467,-0.7419,-0.7306,-0.7257,-0.7365,-0.7252,-0.7192,-0.7467,-0.7467,-0.7413,-0.7521,-0.7521,-0.7521,-0.7622,-0.7264,-0.7045,-0.7045,-0.6719,-0.6479,-0.6479,-0.6313,-0.6154,-0.6002,-0.5949,-0.5794,-0.5525,-0.538,-0.5227,-0.5019,-0.4801,-0.4626,-0.4535,-0.4451,-0.4324,-1.1309,-1.1023,-1.0799,-1.1056,-1.0923,-1.0771,-1.1036,-1.0747,-1.0439,-1.0524,-1.0013,-0.9547,-0.971,-0.9461,-0.9344,-0.9721,0.0,-1.0079,-1.0453,-1.0548,-1.0573,-1.053,-1.0598,-1.0624,-1.0624,-1.0624,-1.0624,-1.0624,-1.0624,-1.0498,-1.0364,-1.0308,-1.0238,-0.9983,-0.9983,-0.9926,-0.9804,-0.9612,-0.9548,-0.9484,-0.9408,-0.9338,-0.9338,-0.9145,-0.9017,-0.9017,-0.8982,-0.8843,-0.872,-0.8687,-0.8612,-0.8398,-0.8245,-0.8164,-0.8137,-0.8045,-0.8027,-0.8021,-0.7988,-0.7977,-0.7885,-0.739,-0.7575,-0.7932,-0.7751,-0.7886,-0.8119,-0.8119,-0.8119,-0.8068,-0.7897,-0.7896,-0.7839,-0.7566,-0.7521,-0.7574,-0.7521,-0.7515,-0.7467,-0.7365,-0.7198,-0.7144,-0.7311,-0.7198,-0.7192,-0.7461,-0.7391,-0.7315,-0.7469,-0.7469,-0.7416,-0.7416,-0.6987,-0.6641,-0.6641,-0.6372,-0.6143,-0.6143,-0.5925,-0.5681,-0.5448,-0.5295,-0.5119,-0.4902,-0.4801,-0.4757,-0.4757,-0.4587,-0.4504,-0.4504,-0.4364,-0.4272,-1.1232,-1.1175,-1.0989,-1.0851,-1.0764,-1.0597,-1.0113,-0.9911,0.0,-0.9384,-0.9104,-0.8949,-0.9008,-0.9102,-0.922,-0.9329,-0.9715,-1.0038,-0.9876,-1.0275,-1.0497,0.0,-1.0414,-1.0624,-1.0624,-1.0624,0.0,0.0,-1.0624,-1.0561,-1.0561,-1.0371,-1.0238,-0.9983,-0.9983,-0.9926,-0.9804,-0.974,-0.9676,-0.9484,-0.9484,-0.9478,-0.9478,-0.9344,-0.9274,-0.9198,-0.8862,-0.8595,-0.8454,-0.8243,-0.804,-0.7919,-0.799,-0.8034,-0.8028,-0.8114,-0.8156,-0.8128,-0.7971,-0.7898,-0.7886,-0.7621,-0.7581,-0.7626,-0.7554,-0.7563,-0.7597,-0.7597,-0.7701,-0.7744,-0.7595,-0.774,-0.7878,-0.7681,-0.7735,-0.7788,-0.7676,-0.7568,-0.7521,-0.7467,-0.7246,-0.7192,-0.7413,-0.7144,-0.709,-0.7616,-0.7344,-0.7212,-0.7418,-0.7206,-0.7104,-0.7104,-0.669,-0.6455,-0.6455,-0.6139,-0.596,-0.596,-0.5545,-0.5242,-0.5111,-0.4939,-0.475,-0.4499,-0.4578,-0.4622,-0.4543,-0.4499,-0.4504,-0.4504,-0.4364,-0.4232,-1.1309,-1.1172,-1.0929,-1.0922,-1.082,-1.0527,-0.996,0.0,0.0,-0.9214,-0.8898,-0.8693,-0.8827,-0.8904,0.0,-0.9195,-0.9424,-0.9633,-0.9686,-0.9932,-1.0117,-1.008,-1.0241,-1.0388,-1.0611,-1.0624,-1.0624,-1.0624,-1.0624,-1.0624,-1.0624,-1.0498,-1.0428,-1.0301,-1.0238,-1.0047,-0.9926,-0.9712,-0.9519,-0.9262,-0.913,-0.9064,-0.9064,-0.8997,-0.8997,-0.8985,-0.8745,-0.8572,-0.8451,-0.832,-0.8156,-0.8027,-0.7946,-0.7954,-0.7937,-0.8045,-0.8055,-0.8037,-0.8123,-0.8184,-0.813,-0.8026,-0.7917,-0.779,-0.7824,-0.7895,-0.7943,-0.7943,-0.7996,-0.8043,-0.7996,-0.8049,-0.815,-0.8103,-0.8002,-0.7842,-0.7723,-0.7515,-0.7419,-0.7419,-0.7198,-0.709,-0.7359,-0.7095,-0.6999,-0.7402,-0.712,-0.6895,-0.6967,-0.664,-0.6515,-0.6679,-0.6342,-0.6113,-0.606,-0.5713,-0.549,-0.545,-0.5037,-0.4757,-0.4539,-0.4316,-0.4144,-0.3972,-0.4096,-0.4092,-0.41,-0.4144,-0.4192,-0.4192,-0.4052,-0.3965,-1.1232,-1.1006,-1.082,-1.0963,-1.0748,-1.0367,-0.9923,-0.9541,0.0,-0.9117,-0.8704,-0.8465,-0.8648,-0.8623,-0.867,0.0,-0.908,-0.9235,-0.9468,-0.9589,-0.9687,0.0,-1.004,0.0,-1.0441,-1.0461,0.0,-1.0461,-1.0408,-1.0401,-1.0461,-1.0461,-1.0497,-1.0436,-1.025,-1.0056,-0.98,-0.9456,-0.9229,-0.898,-0.8777,-0.8681,-0.8681,-0.8681,-0.8681,-0.8675,-0.8621,-0.8539,-0.8428,-0.8369,-0.823,-0.8034,-0.7948,-0.7923,-0.79,-0.7973,-0.8008,-0.8055,-0.8321,-0.8421,-0.8421,-0.8421,-0.8268,-0.8062,-0.8215,-0.8321,-0.8421,-0.8421,-0.8421,-0.8421,-0.8427,-0.8427,-0.848,-0.8427,-0.8109,-0.7842,-0.7676,-0.7422,-0.718,-0.718,-0.6929,-0.6786,-0.6998,-0.6839,-0.6723,-0.6951,-0.6722,-0.6519,-0.6427,-0.6012,-0.5846,-0.606,-0.5877,-0.5727,-0.5586,-0.5341,-0.5111,-0.499,-0.4718,-0.4412,-0.4104,-0.3832,-0.3612,-0.3486,-0.3571,-0.3609,-0.3609,-0.3748,-0.384,-0.384,-0.3748,-0.3656,-1.0811,-1.0786,-1.0695,-1.0581,-1.0239,-0.9788,-0.95,0.0,-0.8814,-0.8372,-0.8188,-0.804,-0.7994,-0.8128,-0.8253,-0.829,-0.867,-0.8912,-0.8819,-0.9157,-0.9418,-0.9312,0.0,0.0,-1.0154,-1.016,-1.016,-1.016,-0.9801,-0.9768,-1.014,-1.016,-1.004,-0.9773,-0.9656,-0.9467,-0.9271,-0.9135,-0.8946,-0.8711,-0.8693,-0.8681,-0.8681,-0.8681,-0.8681,-0.8663,-0.8429,-0.8271,-0.809,-0.7899,-0.7692,-0.7589,-0.7836,-0.7884,-0.7931,-0.8221,-0.8374,-0.8374,-0.8368,-0.8421,-0.8421,-0.8521,-0.8474,-0.8374,-0.8368,-0.8368,-0.8421,-0.8421,-0.8474,-0.8573,-0.8421,-0.8586,-0.8699,-0.848,-0.8049,-0.7676,-0.7568,-0.7128,-0.6767,-0.6767,-0.6399,-0.611,-0.6297,-0.61,-0.5997,-0.6271,-0.6092,-0.5908,-0.5785,-0.554,-0.5237,-0.4988,-0.515,-0.5266,-0.5266,-0.5125,-0.5029,-0.499,-0.4757,-0.4443,-0.4092,-0.3785,-0.3432,-0.3078,-0.317,-0.3258,-0.3258,-0.3486,-0.3622,-0.3622,-0.3622,-0.3486,-1.0611,-1.0619,-1.0504,-1.0503,-1.0165,-0.9769,-0.9322,0.0,-0.8657,-0.818,-0.7987,-0.7912,-0.7795,-0.7765,-0.7831,-0.8063,-0.8218,-0.8377,-0.8601,-0.8813,-0.9003,-0.9198,-0.9339,0.0,0.0,0.0,-0.961,-0.961,-0.9454,-0.9363,-0.9298,-0.9584,-0.9689,-0.9576,-0.9518,-0.9395,-0.9084,-0.887,-0.8669,-0.8441,-0.8285,-0.8213,-0.8213,-0.8213,-0.8213,-0.8207,-0.8099,-0.8003,-0.7997,-0.7884,-0.7842,-0.7955,-0.8062,-0.8115,-0.8215,-0.8421,-0.8527,-0.8527,-0.8586,-0.8692,-0.8745,-0.8844,-0.8844,-0.8844,-0.8798,-0.8745,-0.8745,-0.8745,-0.8745,-0.8692,-0.8639,-0.8699,-0.8752,-0.848,-0.8096,-0.7735,-0.7384,-0.7012,-0.6646,-0.6557,-0.6302,-0.6142,-0.6288,-0.619,-0.6041,-0.6008,-0.5862,-0.5702,-0.543,-0.5159,-0.4932,-0.4801,-0.4888,-0.4932,-0.484,-0.4797,-0.4757,-0.4723,-0.4456,-0.4144,-0.3796,-0.3435,-0.3123,-0.2815,-0.2862,-0.2907,-0.2907,-0.3087,-0.3179,-0.3179,-0.3087,-0.2998,-1.0165,-1.0262,-1.0211,-1.0276,-0.9933,-0.9481,0.0,0.0,-0.826,-0.7799,-0.7694,-0.7654,-0.7532,-0.7473,-0.756,-0.7781,-0.7813,-0.7948,-0.8235,-0.8454,-0.8619,-0.8871,0.0,-0.9101,-0.9246,-0.9202,-0.9106,-0.9023,-0.9016,-0.887,-0.8673,-0.897,-0.9143,-0.9199,-0.9143,-0.9029,-0.8789,-0.849,-0.8343,-0.8171,-0.7991,-0.7901,-0.7901,-0.7901,-0.7901,-0.7901,-0.7901,-0.7901,-0.7901,-0.7955,-0.8062,-0.8221,-0.8268,-0.8368,-0.8474,-0.8633,-0.8685,-0.8685,-0.8804,-0.891,-0.9008,-0.9061,-0.9166,-0.9263,-0.9159,-0.9106,-0.9061,-0.9061,-0.9008,-0.891,-0.8857,-0.8857,-0.8778,-0.8371,-0.8032,-0.7692,-0.7193,-0.6779,-0.6476,-0.6315,-0.6123,-0.6029,-0.6128,-0.6034,-0.5883,-0.5727,-0.5611,-0.541,-0.5077,-0.484,-0.4714,-0.4583,-0.4587,-0.4583,-0.4578,-0.453,-0.4491,-0.4456,-0.4192,-0.3928,-0.3619,-0.3217,-0.286,-0.264,-0.2595,-0.2595,-0.2595,-0.2732,-0.2821,-0.2823,-0.2732,-0.2667,-0.9355,-0.9553,-0.9805,-0.9707,-0.9315,-0.8839,-0.857,-0.8103,-0.7571,-0.712,-0.7123,-0.7197,-0.7133,-0.7256,-0.7419,-0.7419,-0.7506,-0.7616,-0.7623,-0.8044,-0.832,0.0,0.0,-0.8968,-0.8843,-0.8788,-0.8673,-0.8453,-0.8281,-0.8281,-0.8374,-0.8275,-0.8281,-0.8381,-0.8281,-0.8228,-0.8228,-0.8014,-0.7907,-0.7907,-0.7901,-0.7901,-0.7901,-0.7901,-0.7901,-0.7901,-0.7901,-0.7901,-0.7901,-0.8115,-0.8221,-0.8221,-0.8474,-0.8573,-0.8626,-0.8752,-0.8804,-0.8804,-0.8956,-0.9008,-0.9008,-0.9159,-0.9316,-0.9413,-0.9413,-0.9309,-0.9211,-0.9211,-0.9211,-0.9159,-0.9008,-0.9008,-0.8829,-0.8184,-0.7803,-0.7472,-0.6915,-0.6379,-0.6024,-0.6024,-0.5742,-0.5501,-0.5501,-0.542,-0.529,-0.5198,-0.5198,-0.5062,-0.4661,-0.4618,-0.4491,-0.4152,-0.4108,-0.4196,-0.4456,-0.4364,-0.4316,-0.4316,-0.4056,-0.3788,-0.3609,-0.3129,-0.2776,-0.2504,-0.237,-0.2324,-0.2324,-0.246,-0.2551,-0.2687,-0.2687,-0.2626,-0.8913,-0.8917,-0.8876,-0.8782,-0.8451,-0.8097,-0.7883,-0.7496,-0.7166,-0.6921,-0.6826,-0.678,-0.672,-0.6774,-0.6854,-0.6854,-0.6945,-0.7037,0.0,0.0,0.0,-0.7746,-0.7778,-0.7758,0.0,0.0,-0.7741,-0.7777,-0.7735,-0.7788,-0.7937,-0.7889,-0.7996,-0.8268,-0.8221,-0.8115,-0.8008,-0.7955,-0.7901,-0.7901,-0.7901,-0.7901,-0.7901,-0.7901,-0.7901,-0.7901,-0.7901,-0.7955,-0.8115,-0.8168,-0.8321,-0.8474,-0.8573,-0.8732,-0.8896,-0.8903,-0.9008,-0.9061,-0.9106,-0.9211,-0.9263,-0.9309,-0.9277,-0.9264,-0.9264,-0.9307,-0.9266,-0.8952,-0.8846,-0.8797,-0.8588,-0.8442,-0.8274,-0.7882,-0.7571,-0.7255,-0.6789,-0.6441,-0.6203,-0.6035,-0.5897,-0.5798,-0.5707,-0.5663,-0.5534,-0.5285,-0.5236,-0.5058,-0.4661,-0.4578,-0.4451,-0.4276,-0.4148,-0.4108,-0.4104,-0.4056,-0.3968,-0.3877,-0.3751,-0.3575,-0.3347,-0.3043,-0.2821,-0.264,-0.2504,-0.2415,-0.2415,-0.246,-0.2504,-0.2551,-0.2551,-0.2536,0.0,-0.8403,-0.835,-0.8184,-0.7921,0.0,-0.7298,-0.6994,-0.6675,-0.6478,-0.6335,-0.6236,-0.6207,-0.6357,-0.6468,-0.6468,-0.66,-0.6772,0.0,0.0,0.0,-0.7414,-0.7254,0.0,0.0,-0.7143,-0.7275,-0.7372,-0.7469,-0.7568,-0.767,-0.7723,-0.7836,-0.8168,-0.8115,-0.8062,-0.8008,-0.7955,-0.7901,-0.7901,-0.7955,-0.8008,-0.8008,-0.8062,-0.8062,-0.8008,-0.8062,-0.8115,0.0,-0.8321,-0.848,-0.8685,-0.8738,-0.8896,-0.9061,-0.9106,-0.9211,-0.9295,-0.9233,-0.9292,-0.9373,-0.9249,-0.9138,-0.9033,-0.9041,-0.9074,-0.9076,-0.8784,-0.8679,-0.8629,-0.8431,-0.8294,-0.8078,-0.7636,-0.7376,-0.7074,-0.6568,-0.6336,-0.6207,-0.6053,-0.5976,-0.5884,-0.5798,-0.5669,-0.5496,-0.5241,-0.5111,-0.4927,-0.4661,-0.4578,-0.4495,-0.4364,-0.4236,-0.4104,-0.3924,-0.384,-0.3751,-0.366,-0.3486,-0.3306,-0.3126,-0.2951,-0.2776,-0.2687,-0.2551,-0.2504,-0.2504,-0.2551,-0.2529,-0.2488,-0.2534,-0.2539,0.0,-0.7861,-0.8052,-0.7852,-0.759,-0.729,-0.684,-0.6469,0.0,-0.5846,-0.5721,-0.5651,-0.5644,-0.5974,-0.6238,-0.6244,-0.6464,-0.6666,0.0,-0.6843,0.0,0.0,-0.7008,-0.6871,-0.6781,-0.6961,-0.7121,-0.7206,-0.7366,-0.7551,-0.767,-0.7723,-0.7836,-0.8221,-0.8008,-0.8008,-0.8221,-0.8008,-0.7901,-0.7901,-0.8115,-0.8221,-0.8215,-0.8374,-0.8321,-0.8221,-0.8374,-0.8321,-0.8275,-0.8527,-0.8685,-0.8857,-0.8956,-0.9106,-0.9263,-0.934,-0.9377,-0.9386,-0.9326,-0.9271,-0.9261,-0.9018,-0.8866,-0.8773,-0.8665,-0.8655,-0.8685,-0.8663,-0.8655,-0.8641,-0.8465,-0.8318,-0.8061,-0.7418,-0.7128,-0.6836,-0.6324,-0.6105,-0.6019,-0.6019,-0.5884,-0.5793,-0.5717,-0.5463,-0.5241,-0.5029,-0.4893,-0.4757,-0.4618,-0.4618,-0.4574,-0.4499,-0.4364,-0.4188,-0.3924,-0.3711,-0.3578,-0.3578,-0.3214,-0.299,-0.299,-0.2818,-0.2726,-0.2719,-0.2576,-0.2483,-0.2483,-0.2617,-0.2608,-0.2503,-0.2631,-0.255,-0.6344,0.0,-0.6903,-0.684,-0.6586,-0.6299,0.0,-0.5882,-0.5645,-0.5449,0.0,-0.5203,-0.5112,-0.5429,-0.5687,-0.5623,-0.5932,-0.6147,-0.6147,-0.6206,0.0,-0.6278,-0.6113,-0.6096,-0.6331,-0.6263,-0.6449,-0.7014,-0.7098,-0.7309,-0.7658,-0.7723,-0.7889,-0.8321,-0.8221,-0.8168,-0.8221,-0.8168,-0.8115,-0.8115,-0.8168,-0.8321,-0.8527,-0.8421,-0.8421,-0.8527,-0.8421,-0.848,-0.8646,-0.8752,-0.8956,-0.9263,-0.9309,-0.9472,-0.9607,-0.9408,-0.9413,-0.946,-0.9177,-0.9064,-0.9003,-0.8716,-0.8565,-0.8438,-0.8184,-0.8379,-0.8633,-0.8385,-0.8319,-0.826,-0.7961,-0.776,-0.753,-0.7148,-0.6927,-0.6705,-0.6422,-0.6233,-0.6142,-0.6142,-0.5964,-0.575,-0.5583,-0.5415,-0.5198,-0.4893,-0.4801,-0.4757,-0.4618,-0.4618,-0.4574,-0.4574,-0.4403,-0.4232,-0.406,-0.3836,-0.3571,-0.3306,-0.3214,-0.3081,-0.2909,-0.2865,-0.2824,-0.2687,-0.2552,-0.2505,-0.2505,-0.2545,-0.2532,-0.2505,-0.2544,-0.2468,-0.5612,-0.5939,-0.6245,-0.6183,-0.5967,-0.5742,-0.5648,0.0,0.0,0.0,0.0,0.0,0.0,0.0,0.0,-0.5046,-0.5375,0.0,0.0,0.0,-0.5882,-0.5916,-0.5798,-0.581,-0.5946,-0.6021,-0.6189,-0.659,-0.6912,-0.7201,-0.7489,-0.7717,-0.7996,-0.8368,-0.8374,-0.8311,-0.8177,-0.808,-0.8017,-0.7892,-0.7936,-0.8088,-0.829,-0.829,-0.829,-0.8333,-0.834,-0.839,-0.8447,-0.8554,-0.8798,-0.9033,-0.9182,-0.9331,-0.9513,-0.9427,-0.9461,-0.9455,-0.9158,-0.8894,-0.8679,-0.8493,-0.8396,-0.828,-0.8006,-0.816,-0.8327,-0.807,-0.7975,-0.7938,-0.7763,-0.7545,-0.7328,-0.7063,-0.6823,-0.663,-0.6459,-0.6276,-0.6184,-0.6099,-0.5879,-0.5577,-0.5361,-0.5145,-0.4932,-0.4753,-0.467,-0.467,-0.4709,-0.4709,-0.4674,-0.458,-0.4448,-0.4206,-0.3916,-0.3701,-0.3464,-0.3208,-0.3116,-0.2999,-0.2827,-0.2729,-0.2669,-0.2601,-0.2536,-0.2501,-0.2501,-0.2501,-0.2474,-0.2425,-0.2425,-0.2323,-0.5043,-0.5385,-0.5738,-0.5734,-0.5561,-0.5372,-0.5252,0.0,0.0,0.0,0.0,0.0,0.0,-0.4464,0.0,0.0,0.0,0.0,-0.5602,-0.5665,-0.5732,-0.5771,-0.575,-0.575,-0.5717,-0.5952,-0.618,-0.6259,-0.6741,-0.7097,-0.7333,-0.7692,-0.8053,-0.8364,-0.8515,-0.8423,-0.8128,-0.8023,-0.7809,-0.7535,-0.7678,-0.7821,-0.7977,-0.8065,-0.8105,-0.8099,-0.8294,-0.8247,-0.8146,-0.8388,-0.8584,-0.8771,-0.8997,-0.9175,-0.9306,-0.9396,-0.9463,-0.9415,-0.9155,-0.8788,-0.8455,-0.8455,-0.8332,-0.8209,-0.8111,-0.8021,-0.7938,-0.7795,-0.7712,-0.7712,-0.767,-0.7503,-0.7286,-0.7027,-0.6829,-0.6587,-0.641,-0.6233,-0.6099,-0.5976,-0.5669,-0.5366,-0.5101,-0.4792,-0.4618,-0.4574,-0.4539,-0.4587,-0.4757,-0.4774,-0.4687,-0.4509,-0.4392,-0.4107,-0.3637,-0.3475,-0.3316,-0.3181,-0.301,-0.2826,-0.2741,-0.2578,-0.2512,-0.2512,-0.2457,-0.2449,-0.2449,-0.2449,-0.2397,-0.2269,-0.2269,-0.2213,-0.4075,-0.4287,-0.4676,-0.5242,-0.5157,-0.4902,-0.4876,0.0,0.0,0.0,0.0,0.0,0.0,-0.4136,-0.4257,0.0,0.0,-0.5236,0.0,0.0,-0.5722,-0.5717,-0.5626,-0.562,-0.575,-0.5793,-0.6035,-0.6657,-0.6688,-0.6924,-0.7442,-0.7672,-0.798,-0.8386,-0.838,-0.8333,-0.8269,-0.8118,-0.795,-0.7672,-0.7828,-0.8017,-0.8247,-0.8301,-0.8396,-0.8529,-0.8529,-0.8623,-0.8663,-0.885,-0.9043,-0.9291,-0.9368,-0.9498,-0.9603,-0.9338,-0.9224,-0.9218,-0.889,-0.8733,-0.8643,-0.8643,-0.8529,-0.8373,-0.8332,-0.8193,-0.7979,-0.7912,-0.7878,-0.7829,-0.7572,-0.737,-0.7167,-0.6956,-0.6666,-0.641,-0.627,-0.5976,-0.5761,-0.5766,-0.5376,-0.5024,-0.4888,-0.4709,-0.4578,-0.4543,-0.4539,-0.4622,-0.4801,-0.4613,-0.4459,-0.4427,-0.4112,-0.3777,-0.3521,-0.3397,-0.3261,-0.3106,-0.2978,-0.2851,-0.2772,-0.2604,-0.2497,-0.2497,-0.2288,-0.2168,-0.2168,-0.2168,-0.216,-0.2143,-0.2143,-0.2133,-0.3612,-0.3644,-0.3756,-0.4251,-0.4409,-0.4377,-0.4226,0.0,0.0,0.0,0.0,0.0,0.0,0.0,-0.3777,-0.401,0.0,-0.4724,-0.5126,-0.5341,-0.5594,-0.5819,-0.5884,-0.5922,-0.6007,-0.6099,-0.628,-0.6618,-0.6765,-0.6991,-0.726,-0.7634,-0.7941,-0.8136,-0.822,-0.8215,-0.8042,-0.7989,-0.7815,-0.7531,-0.7582,-0.7709,-0.7872,-0.7974,-0.8114,-0.8239,-0.8334,-0.8422,-0.8501,-0.8668,-0.8798,-0.8936,-0.9152,-0.9238,-0.9265,-0.9132,-0.9065,-0.9006,-0.8913,-0.8805,-0.8724,-0.8773,-0.8651,-0.8447,-0.8447,-0.8283,-0.8077,-0.7953,-0.7836,-0.7746,-0.7565,-0.728,-0.7034,-0.6859,-0.6575,-0.6325,-0.6056,-0.5841,-0.5636,-0.5507,-0.5203,-0.4941,-0.4801,-0.467,-0.4548,-0.4495,-0.4426,-0.4387,-0.445,-0.4324,-0.4108,-0.3919,-0.3721,-0.3488,-0.3211,-0.3132,-0.3061,-0.3002,-0.2934,-0.2827,-0.2636,-0.2536,-0.2468,-0.2405,-0.2281,-0.2183,-0.2117,-0.2117,-0.2117,-0.2117,-0.2117,-0.215,-0.317,-0.3103,-0.3003,-0.325,-0.3589,-0.3821,-0.3602,-0.3569,0.0,0.0,0.0,0.0,0.0,-0.3311,0.0,-0.3899,-0.4194,-0.4565,-0.5115,-0.5369,-0.5664,-0.6016,-0.6184,-0.6264,-0.6307,-0.6435,-0.6562,-0.6605,-0.6856,-0.7026,-0.7115,-0.757,-0.7869,-0.797,-0.8143,-0.8162,-0.7959,-0.788,-0.7688,-0.7419,-0.7412,-0.7447,-0.7572,-0.7704,-0.7878,-0.8044,-0.8209,-0.8291,-0.8381,-0.857,-0.8643,-0.8683,-0.8975,-0.9056,-0.8984,-0.9056,-0.9024,-0.8992,-0.9024,-0.8935,-0.8773,-0.8871,-0.87,-0.848,-0.848,-0.8269,-0.797,-0.7758,-0.7577,-0.7378,-0.7312,-0.7079,-0.6776,-0.6505,-0.6251,-0.6014,-0.5669,-0.5502,-0.5382,-0.5171,-0.4965,-0.4796,-0.4702,-0.4537,-0.44,-0.4378,-0.4271,-0.4174,-0.4184,-0.4011,-0.3816,-0.3516,-0.34,-0.322,-0.2981,-0.3003,-0.3026,-0.299,-0.2923,-0.2833,-0.2646,-0.2577,-0.2513,-0.2387,-0.2353,-0.2284,-0.2181,-0.2181,-0.2181,-0.2181,-0.2181,-0.225,-0.2493,-0.2464,-0.2462,-0.2485,-0.2888,0.0,-0.3171,-0.3138,0.0,-0.2966,0.0,0.0,0.0,-0.3338,-0.3774,-0.4056,-0.4651,-0.522,-0.5453,-0.5855,-0.6137,-0.6179,-0.6355,-0.652,-0.6641,-0.6683,-0.6768,-0.6937,-0.6806,-0.6868,-0.7166,-0.7392,-0.7733,-0.8149,-0.8142,-0.8209,-0.8437,-0.8127,-0.7802,-0.7419,-0.7447,-0.7572,-0.767,-0.7904,-0.8111,-0.8373,-0.8439,-0.861,-0.8839,-0.8943,-0.9016,-0.9177,-0.9248,-0.9279,-0.9279,-0.9279,-0.9248,-0.9177,-0.9177,-0.9065,-0.8871,-0.892,-0.8667,-0.8414,-0.8414,-0.7943,-0.7414,-0.7212,-0.6841,-0.6535,-0.6625,-0.6501,-0.6238,-0.5788,-0.5436,-0.5176,-0.5088,-0.4821,-0.4625,-0.4711,-0.4476,-0.4283,-0.4327,-0.4163,-0.4039,-0.4026,-0.406,-0.4098,-0.4123,-0.3888,-0.3667,-0.3503,-0.3288,-0.3121,-0.3076,-0.3303,-0.341,-0.3266,-0.3025,-0.2948,-0.3039,-0.2812,-0.2679,-0.2683,-0.2477,-0.2374,-0.2374,-0.2374,-0.2374,-0.2374,-0.2374,-0.2411,-0.2185,-0.2103,-0.2,-0.2122,-0.2208,0.0,0.0,-0.2673,-0.2673,-0.2639,-0.2706,0.0,0.0,0.0,-0.3724,-0.4219,-0.4719,-0.523,-0.5619,-0.5966,-0.6251,-0.6592,-0.6732,-0.6859,-0.6992,-0.6992,-0.7076,-0.7238,-0.7083,-0.709,-0.7293,-0.7525,-0.7724,-0.7902,-0.7965,-0.8092,-0.8169,-0.8082,-0.7938,-0.778,-0.7814,-0.7814,-0.7904,-0.8036,-0.8201,-0.8414,-0.8659,-0.8862,-0.9105,-0.9257,-0.9377,-0.9506,-0.9448,-0.9408,-0.9426,-0.9328,-0.9248,-0.9177,-0.9096,-0.8984,-0.8879,-0.87,-0.8529,-0.8333,-0.7991,-0.7639,-0.727,-0.6829,-0.65,-0.629,-0.6286,-0.613,-0.5844,-0.5551,-0.5271,-0.5045,-0.485,-0.4656,-0.4504,-0.4514,-0.4399,-0.4323,-0.4361,-0.4242,-0.4078,-0.4026,-0.3903,-0.3822,-0.3809,-0.3595,-0.3479,-0.3509,-0.3444,-0.3405,-0.3405,-0.363,-0.3695,-0.3574,-0.3405,-0.327,-0.3175,-0.3039,-0.2878,-0.2712,-0.2613,-0.2501,-0.2351,-0.2505,-0.2531,-0.2408,-0.257,-0.2676,-0.1833,-0.1705,-0.1614,-0.1731,0.0,0.0,-0.1976,-0.2178,-0.2311,-0.2414,-0.251,-0.271,-0.3089,0.0,0.0,-0.4376,-0.4894,-0.5403,-0.5856,-0.6165,-0.6527,-0.6937,-0.7118,-0.7245,-0.7342,-0.7342,-0.7377,-0.7412,-0.7328,-0.7335,-0.7503,-0.767,-0.7795,-0.7844,-0.7995,-0.807,-0.8111,-0.8144,-0.8144,-0.8144,-0.8185,-0.8185,-0.8111,-0.8242,-0.8414,-0.8618,-0.883,-0.9114,-0.9386,-0.9496,-0.9664,-0.9793,-0.9655,-0.9585,-0.9554,-0.9417,-0.9297,-0.9177,-0.9056,-0.8943,-0.8765,-0.8439,-0.8238,-0.8063,-0.7548,-0.7153,-0.681,-0.6435,-0.6094,-0.5878,-0.5766,-0.5666,-0.5499,-0.5198,-0.5001,-0.4815,-0.4562,-0.4412,-0.4335,-0.4313,-0.4277,-0.4277,-0.4313,-0.4199,-0.407,-0.3994,-0.3807,-0.3689,-0.362,-0.3508,-0.3471,-0.3597,-0.3695,-0.3733,-0.3733,-0.3863,-0.3896,-0.3765,-0.3733,-0.3565,-0.3307,-0.3171,-0.3006,-0.2845,-0.2733,-0.2624,-0.2462,-0.2575,-0.2575,-0.2473,-0.2725,-0.2862,-0.1294,-0.1288,-0.1273,0.0,0.0,0.0,-0.1279,-0.1646,-0.2047,-0.2253,-0.2553,-0.2849,-0.3076,-0.364,0.0,-0.4547,-0.527,-0.5873,-0.6179,-0.6611,-0.6956,-0.7174,-0.7503,-0.7712,-0.7712,-0.7712,-0.7663,-0.7523,-0.7523,-0.7572,-0.7712,-0.7836,-0.8002,-0.8216,-0.8216,-0.8258,-0.8414,-0.848,-0.8521,-0.8521,-0.8635,-0.8602,-0.8414,-0.8488,-0.8683,-0.9016,-0.9016,-0.9266,-0.9683,-0.9723,-0.9832,-0.998,-0.9862,-0.9753,-0.9683,-0.9563,-0.9395,-0.9177,-0.9056,-0.8846,-0.8617,-0.8077,-0.7764,-0.7494,-0.7047,-0.6477,-0.5991,-0.5909,-0.5557,-0.5144,-0.4947,-0.51,-0.5175,-0.4612,-0.4452,-0.4355,-0.4129,-0.4064,-0.4026,-0.4096,-0.4058,-0.4026,-0.4096,-0.3993,-0.3891,-0.3891,-0.3798,-0.3705,-0.3705,-0.3705,-0.3765,-0.3891,-0.3956,-0.3993,-0.3993,-0.4064,-0.4026,-0.3923,-0.3891,-0.3793,-0.3499,-0.3237,-0.3105,-0.3105,-0.2846,-0.2732,-0.2793,-0.2591,-0.2535,-0.2594,-0.2817,-0.2932,-0.0683,-0.0619,0.0,-0.0868,0.0,0.0,0.0,-0.1345,0.0,0.0,-0.2517,-0.2847,-0.3166,-0.3591,-0.4118,-0.4759,-0.5365,-0.5884,-0.6368,-0.6732,-0.707,-0.7363,-0.7579,-0.7753,-0.7904,-0.787,-0.7829,-0.7855,-0.7821,-0.7821,-0.7904,-0.8118,-0.8291,-0.8332,-0.8488,-0.8561,-0.8602,-0.8643,-0.8635,-0.8635,-0.8773,-0.8781,-0.8602,-0.8643,-0.8765,-0.9016,-0.9096,-0.9386,-0.9783,-1.0019,-1.0059,-0.998,-0.9941,-0.9832,-0.9683,-0.9563,-0.9386,-0.9248,-0.9056,-0.8726,-0.8296,-0.795,-0.7599,-0.723,-0.6699,-0.6397,-0.6118,-0.5718,-0.5472,-0.5316,-0.5144,-0.5087,-0.5001,-0.4604,-0.4452,-0.4355,-0.4129,-0.4064,-0.3993,-0.4026,-0.4026,-0.3993,-0.4026,-0.3993,-0.3993,-0.4026,-0.3999,-0.4031,-0.4123,-0.4156,-0.4221,-0.4253,-0.4253,-0.4285,-0.4285,-0.4253,-0.4156,-0.3993,-0.3831,-0.3667,-0.3499,-0.3303,-0.3142,-0.3105,-0.2932,-0.2786,-0.2668,-0.2696,-0.2683,-0.2596,-0.2859,-0.2974,-0.0221,-0.0106,0.0,-0.0364,-0.0322,-0.0303,-0.0808,0.0,0.0,0.0,-0.2553,-0.2844,-0.3178,-0.3642,-0.413,-0.4719,-0.5259,-0.577,-0.6173,-0.6513,-0.6913,-0.727,-0.7442,-0.76,-0.7749,-0.771,-0.771,-0.7671,-0.771,-0.771,-0.7741,-0.7944,-0.8069,-0.8069,-0.8224,-0.8301,-0.8301,-0.8362,-0.84,-0.84,-0.8541,-0.8541,-0.8455,-0.8711,-0.8926,-0.9119,-0.9168,-0.933,-0.9552,-0.9704,-0.9674,-0.9572,-0.9516,-0.9404,-0.9225,-0.9083,-0.8961,-0.8791,-0.8609,-0.8349,-0.7998,-0.7577,-0.7277,-0.6977,-0.6492,-0.6261,-0.6094,-0.5761,-0.5561,-0.541,-0.5277,-0.5119,-0.4934,-0.4678,-0.4517,-0.442,-0.4291,-0.4194,-0.4156,-0.4194,-0.4194,-0.4194,-0.4194,-0.4194,-0.4226,-0.4258,-0.4291,-0.4318,-0.4382,-0.4485,-0.4517,-0.4452,-0.4452,-0.442,-0.442,-0.4285,-0.4156,-0.3993,-0.3716,-0.3479,-0.3352,-0.3162,-0.3067,-0.3031,-0.2851,-0.2699,-0.2597,-0.2621,-0.2626,-0.2566,-0.2816,-0.2929,0.0195,0.0315,0.0,0.021,0.0193,0.0,-0.0739,-0.1405,-0.1935,-0.2217,0.0,-0.2882,-0.3142,-0.3752,-0.4272,-0.4498,-0.5071,-0.5597,-0.5807,-0.6182,-0.6556,-0.6964,-0.7188,-0.7332,-0.7424,-0.7424,-0.7352,-0.7253,-0.736,-0.7424,-0.7424,-0.7567,-0.7638,-0.7638,-0.7717,-0.7761,-0.7761,-0.7921,-0.8018,-0.8018,-0.8105,-0.8114,-0.8132,-0.8682,-0.9024,-0.9195,-0.9179,-0.9124,-0.9132,-0.8961,-0.8887,-0.8877,-0.8746,-0.8677,-0.8593,-0.8385,-0.8219,-0.8105,-0.7973,-0.7877,-0.7722,-0.7131,-0.6901,-0.6779,-0.6434,-0.6183,-0.6021,-0.5952,-0.5734,-0.5498,-0.534,-0.5151,-0.4992,-0.4838,-0.4652,-0.4523,-0.449,-0.4452,-0.442,-0.449,-0.449,-0.449,-0.449,-0.449,-0.449,-0.4523,-0.4576,-0.4602,-0.4549,-0.4678,-0.4716,-0.4517,-0.45,-0.4451,-0.4387,-0.4173,-0.4002,-0.3933,-0.3522,-0.321,-0.3095,-0.2941,-0.2878,-0.2878,-0.2631,-0.2556,-0.2605,-0.2503,-0.2468,-0.2521,-0.2703,-0.2788,0.0981,0.0924,0.0,0.0,0.0156,-0.037,-0.0808,-0.1169,-0.1561,-0.1963,-0.245,-0.2882,-0.3212,-0.3705,-0.422,-0.4721,-0.5215,-0.5644,-0.6046,-0.641,-0.6739,-0.7057,-0.7217,-0.7368,-0.7531,-0.7567,-0.7531,-0.7531,-0.7575,-0.7654,-0.7654,-0.7815,-0.7912,-0.7912,-0.807,-0.8184,-0.8184,-0.8271,-0.8297,-0.8297,-0.828,-0.8254,-0.8263,-0.8236,-0.8306,-0.8442,-0.8645,-0.8714,-0.8739,-0.8847,-0.8833,-0.8746,-0.8755,-0.873,-0.8671,-0.8454,-0.8376,-0.8306,-0.8,-0.7671,-0.7307,-0.7115,-0.6835,-0.6589,-0.6537,-0.6482,-0.6329,-0.6129,-0.589,-0.5686,-0.5449,-0.5277,-0.5112,-0.4992,-0.4768,-0.4576,-0.4523,-0.449,-0.449,-0.449,-0.449,-0.449,-0.449,-0.449,-0.4555,-0.4716,-0.48,-0.4826,-0.4826,-0.4806,-0.4742,-0.4608,-0.4396,-0.422,-0.4099,-0.3812,-0.3586,-0.3468,-0.3199,-0.3032,-0.2948,-0.2817,-0.2733,-0.2733,-0.2677,-0.2679,-0.2748,-0.2675,-0.2637,-0.2659,-0.2704,-0.273,0.1493,0.0,0.0,0.0824,0.0,-0.0309,-0.0742,-0.1086,-0.1399,-0.178,-0.2301,-0.2797,-0.3145,-0.3667,-0.4193,-0.4649,-0.5034,-0.5451,-0.5814,-0.6115,-0.642,-0.6741,-0.6849,-0.6991,-0.7247,-0.728,-0.728,-0.7305,-0.7346,-0.7388,-0.742,-0.751,-0.7608,-0.7696,-0.7844,-0.7941,-0.7973,-0.8038,-0.806,-0.8019,-0.7964,-0.79,-0.7788,-0.8032,-0.8166,-0.8227,-0.8209,-0.8228,-0.8218,-0.8219,-0.8198,-0.8124,-0.8166,-0.8166,-0.8111,-0.79,-0.7803,-0.7738,-0.7543,-0.7259,-0.7009,-0.6969,-0.6771,-0.6573,-0.6673,-0.6612,-0.646,-0.6268,-0.599,-0.5749,-0.5505,-0.534,-0.5246,-0.5151,-0.4928,-0.4704,-0.4704,-0.4678,-0.4652,-0.4742,-0.4742,-0.4742,-0.4742,-0.4742,-0.4774,-0.487,-0.4928,-0.4922,-0.4922,-0.4832,-0.4694,-0.4433,-0.4214,-0.403,-0.3821,-0.3618,-0.3494,-0.3451,-0.3173,-0.2963,-0.2906,-0.2763,-0.2713,-0.2707,-0.2672,-0.2679,-0.2762,-0.2759,-0.2724,-0.2697,-0.2697,-0.2681,0.1935,0.0,0.1474,0.0921,0.0415,0.0,-0.0615,-0.0998,-0.1321,-0.159,-0.2138,-0.2695,-0.3086,-0.3687,-0.4205,-0.4526,-0.4909,-0.5264,-0.5522,-0.5787,-0.6098,-0.639,-0.6513,-0.6643,-0.6915,-0.6945,-0.6966,-0.7017,-0.7047,-0.7086,-0.7154,-0.7184,-0.7273,-0.7442,-0.751,-0.7569,-0.7647,-0.7715,-0.7715,-0.7647,-0.7618,-0.75,-0.7283,-0.7875,-0.8117,-0.8065,-0.783,-0.7716,-0.7689,-0.7562,-0.749,-0.749,-0.749,-0.749,-0.749,-0.7294,-0.7175,-0.7095,-0.7017,-0.6915,-0.6781,-0.6781,-0.6703,-0.6626,-0.6742,-0.6651,-0.646,-0.6345,-0.606,-0.5749,-0.5592,-0.5435,-0.534,-0.534,-0.5125,-0.4934,-0.4922,-0.4896,-0.4902,-0.4992,-0.5023,-0.5055,-0.5055,-0.5055,-0.5055,-0.5055,-0.5055,-0.5023,-0.4922,-0.4827,-0.4623,-0.4246,-0.4031,-0.3811,-0.3568,-0.3472,-0.345,-0.3491,-0.3186,-0.2961,-0.2913,-0.2839,-0.279,-0.2822,-0.2743,-0.2729,-0.2805,-0.2853,-0.2853,-0.2789,-0.2745,-0.2686,0.0,0.0,0.1454,0.0,0.0454,0.0056,0.0,0.0,-0.1047,0.0,-0.2023,-0.2697,-0.3329,-0.38,-0.4279,-0.4853,-0.5207,-0.5522,-0.5819,-0.6067,-0.6337,-0.6535,-0.6673,-0.6833,-0.7065,-0.7065,-0.7095,-0.7166,-0.7273,-0.7381,-0.746,-0.75,-0.7559,-0.7666,-0.7715,-0.7763,-0.7763,-0.785,-0.7869,-0.7869,-0.7744,-0.7608,-0.746,-0.7493,-0.7418,-0.7256,-0.7393,-0.7396,-0.7308,-0.744,-0.746,-0.7411,-0.749,-0.749,-0.749,-0.7411,-0.7312,-0.7166,-0.6966,-0.6863,-0.6781,-0.6665,-0.6626,-0.6626,-0.6742,-0.6651,-0.646,-0.6345,-0.606,-0.5787,-0.5701,-0.5568,-0.546,-0.546,-0.5435,-0.5334,-0.5131,-0.5068,-0.5068,-0.5074,-0.5176,-0.5246,-0.5246,-0.5302,-0.5334,-0.5277,-0.5246,-0.5182,-0.5023,-0.4722,-0.4465,-0.4229,-0.382,-0.3516,-0.3364,-0.3186,-0.3073,-0.3073,-0.3023,-0.3006,-0.2984,-0.3074,-0.3181,-0.3294,-0.3177,-0.3159,-0.3232,-0.3232,-0.3196,-0.3117,-0.295,-0.2816,0.2901,0.2359,0.1779,0.0,0.07,0.0297,-0.0224,-0.0581,-0.0918,-0.137,-0.1865,-0.2457,-0.3208,-0.3772,-0.4358,-0.4966,-0.5397,-0.578,-0.6067,-0.6276,-0.6521,-0.6777,-0.6915,-0.7074,-0.7303,-0.7353,-0.7412,-0.748,-0.7519,-0.7608,-0.7705,-0.7753,-0.785,-0.8033,-0.8062,-0.808,-0.808,-0.8109,-0.8091,-0.8015,-0.7831,-0.7695,-0.7608,-0.749,-0.7381,-0.7253,-0.7273,-0.7264,-0.7225,-0.7372,-0.744,-0.739,-0.744,-0.744,-0.744,-0.7333,-0.7235,-0.7116,-0.6996,-0.6885,-0.6781,-0.6742,-0.6665,-0.6595,-0.6665,-0.6582,-0.6421,-0.6268,-0.6029,-0.578,-0.5756,-0.5749,-0.5734,-0.5773,-0.5835,-0.5828,-0.5602,-0.5414,-0.5289,-0.5327,-0.5435,-0.5512,-0.5512,-0.5592,-0.5592,-0.5536,-0.5529,-0.5397,-0.5043,-0.4798,-0.4483,-0.4033,-0.3712,-0.3495,-0.3306,-0.3219,-0.319,-0.3211,-0.326,-0.3302,-0.3338,-0.35,-0.3654,-0.3779,-0.3556,-0.3472,-0.3584,-0.3507,-0.3402,-0.326,-0.3046,-0.2837,0.0,0.0,0.2233,0.156,0.1025,0.0558,0.0,0.0,-0.0892,-0.1408,-0.1832,-0.2348,-0.3108,-0.3777,-0.4428,-0.5173,-0.5648,-0.6029,-0.6337,-0.6521,-0.6764,-0.7077,-0.7205,-0.7353,-0.7569,-0.7676,-0.7763,-0.7812,-0.7841,-0.7889,-0.7984,-0.8013,-0.8109,-0.8308,-0.8336,-0.8336,-0.8336,-0.8319,-0.8244,-0.8093,-0.7918,-0.7802,-0.7725,-0.7578,-0.746,-0.7411,-0.7303,-0.7235,-0.7196,-0.7342,-0.7381,-0.7342,-0.7342,-0.7342,-0.7342,-0.7273,-0.7175,-0.7095,-0.7047,-0.6966,-0.6863,-0.6863,-0.6764,-0.6634,-0.6595,-0.6504,-0.636,-0.6245,-0.6029,-0.5819,-0.5842,-0.589,-0.5975,-0.6052,-0.6153,-0.6176,-0.5959,-0.5703,-0.5515,-0.5585,-0.5693,-0.5763,-0.5763,-0.5819,-0.5842,-0.5795,-0.5707,-0.5531,-0.5139,-0.4871,-0.4495,-0.3953,-0.3724,-0.3557,-0.3361,-0.3393,-0.3423,-0.3472,-0.3563,-0.3668,-0.3737,-0.3945,-0.4109,-0.426,-0.4007,-0.389,-0.3918,-0.3765,-0.3549,-0.3296,-0.3041,-0.2789,0.0,0.3363,0.0,0.2044,0.1427,0.0825,0.0,0.0,-0.1025,-0.1491,-0.2022,-0.2596,-0.3269,-0.3822,-0.4541,-0.5586,-0.606,-0.6337,-0.6565,-0.6876,-0.7145,-0.7344,-0.7549,-0.7715,-0.7869,-0.7984,-0.8119,-0.8158,-0.8158,-0.8215,-0.828,-0.829,-0.8308,-0.8382,-0.8382,-0.8382,-0.8382,-0.8336,-0.8244,-0.8093,-0.7966,-0.7869,-0.7802,-0.7598,-0.749,-0.749,-0.7411,-0.7312,-0.7196,-0.7342,-0.7312,-0.7196,-0.7196,-0.7196,-0.7225,-0.7342,-0.7253,-0.7125,-0.7166,-0.7107,-0.6987,-0.6987,-0.6885,-0.6781,-0.6634,-0.6452,-0.6284,-0.6207,-0.6052,-0.592,-0.5967,-0.6044,-0.6137,-0.6245,-0.6276,-0.6222,-0.5951,-0.585,-0.5787,-0.5857,-0.5936,-0.599,-0.599,-0.599,-0.5998,-0.599,-0.5717,-0.5476,-0.5396,-0.4833,-0.4352,-0.4205,-0.3892,-0.3646,-0.3506,-0.3605,-0.3689,-0.3689,-0.3856,-0.4022,-0.4166,-0.4354,-0.4544,-0.4671,-0.465,-0.4512,-0.4273,-0.4007,-0.3675,-0.3296,-0.2891,-0.2567,0.0,0.0,0.0,0.2411,0.173,0.1047,0.0222,-0.0552,-0.1231,-0.1695,-0.2259,-0.2891,-0.3648,-0.425,-0.4905,-0.5732,-0.6385,-0.6885,-0.7145,-0.7344,-0.7549,-0.7695,-0.7927,-0.8127,-0.8213,-0.8336,-0.8421,-0.846,-0.846,-0.8488,-0.8561,-0.8505,-0.8533,-0.8578,-0.8561,-0.8477,-0.841,-0.8336,-0.8244,-0.8093,-0.7966,-0.7869,-0.7792,-0.7647,-0.7569,-0.7569,-0.749,-0.7362,-0.7196,-0.7264,-0.7235,-0.7196,-0.7196,-0.7196,-0.7225,-0.7351,-0.7361,-0.7292,-0.7312,-0.7244,-0.7107,-0.7017,-0.6936,-0.6824,-0.6665,-0.6513,-0.6399,-0.6337,-0.6245,-0.616,-0.6237,-0.6291,-0.639,-0.659,-0.6651,-0.6673,-0.6634,-0.639,-0.6206,-0.6284,-0.6307,-0.6337,-0.6337,-0.636,-0.6382,-0.6382,-0.6141,-0.585,-0.5611,-0.5168,-0.4714,-0.4372,-0.4188,-0.4027,-0.389,-0.3931,-0.3973,-0.4022,-0.4138,-0.4281,-0.4451,-0.4604,-0.4704,-0.4762,-0.4733,-0.4555,-0.4293,-0.3978,-0.3647,-0.3296,-0.2939,-0.2637,0.5375,0.0,0.0,0.0,0.1959,0.1202,0.0327,-0.0568,-0.1368,-0.1873,-0.253,-0.3226,-0.3889,-0.4618,-0.5315,-0.5819,-0.6429,-0.6906,-0.7175,-0.732,-0.7534,-0.7824,-0.8077,-0.8305,-0.8501,-0.8673,-0.8767,-0.8767,-0.8739,-0.8739,-0.8795,-0.8739,-0.8701,-0.869,-0.8645,-0.8533,-0.841,-0.8365,-0.8272,-0.8093,-0.7966,-0.7869,-0.7821,-0.7705,-0.7676,-0.7705,-0.7647,-0.753,-0.7344,-0.7344,-0.7344,-0.7383,-0.7344,-0.7344,-0.7344,-0.746,-0.7499,-0.746,-0.7499,-0.7421,-0.7314,-0.7136,-0.7026,-0.6945,-0.6725,-0.6604,-0.6513,-0.6474,-0.6421,-0.6429,-0.6543,-0.6665,-0.6755,-0.6885,-0.7005,-0.7125,-0.7175,-0.6867,-0.6626,-0.6703,-0.6703,-0.6703,-0.6665,-0.6717,-0.6747,-0.6807,-0.6432,-0.6101,-0.5936,-0.5419,-0.4978,-0.4639,-0.4495,-0.4386,-0.4313,-0.4273,-0.4281,-0.433,-0.4403,-0.4504,-0.4624,-0.4724,-0.4764,-0.4733,-0.4595,-0.4406,-0.4122,-0.3855,-0.3563,-0.3232,-0.2918,-0.2681,0.0,0.0,0.0,0.0,0.0,0.0,0.0575,0.0,-0.1457,-0.2008,-0.2864,-0.3605,-0.395,-0.4893,-0.5665,-0.5875,-0.6134,-0.6387,-0.6599,-0.679,-0.7135,-0.7729,-0.7962,-0.8279,-0.8727,-0.8942,-0.9074,-0.9074,-0.8992,-0.8976,-0.8976,-0.8899,-0.8805,-0.8673,-0.8601,-0.8501,-0.8389,-0.8389,-0.8269,-0.8093,-0.7966,-0.7898,-0.7898,-0.785,-0.785,-0.7927,-0.7927,-0.7811,-0.7618,-0.7618,-0.7647,-0.7695,-0.7647,-0.7608,-0.7598,-0.7676,-0.7637,-0.7598,-0.7676,-0.7647,-0.7559,-0.7285,-0.7145,-0.7065,-0.6863,-0.6695,-0.6609,-0.6609,-0.6609,-0.6639,-0.6876,-0.7056,-0.7196,-0.7196,-0.7353,-0.7519,-0.751,-0.7264,-0.7047,-0.7125,-0.7125,-0.7095,-0.7047,-0.7017,-0.7077,-0.7196,-0.6601,-0.6157,-0.6304,-0.56,-0.5078,-0.501,-0.4834,-0.4706,-0.4706,-0.4644,-0.4613,-0.4613,-0.4662,-0.4702,-0.4695,-0.4686,-0.4655,-0.4593,-0.4325,-0.4053,-0.3792,-0.3675,-0.3423,-0.3089,-0.2832,-0.267,0.5698,0.0,0.0,0.0,0.0,0.0,0.0638,-0.0367,-0.1389,-0.2211,-0.3013,-0.3766,-0.4395,-0.5116,-0.5681,-0.5936,-0.6521,-0.6991,-0.7152,-0.7222,-0.7336,-0.7551,-0.7714,-0.7888,-0.8063,-0.8216,-0.8287,-0.8228,-0.8205,-0.8181,-0.8145,-0.7967,-0.7847,-0.7775,-0.7702,-0.779,-0.8047,-0.793,-0.7992,-0.8169,-0.8082,-0.8043,-0.8043,-0.8072,-0.8119,-0.8195,-0.8241,-0.8251,-0.8233,-0.7937,-0.7811,-0.785,-0.7811,-0.7613,-0.7308,-0.7383,-0.741,-0.7383,-0.7338,-0.7517,-0.7676,-0.7314,-0.7196,-0.7136,-0.6996,-0.6772,-0.6627,-0.6711,-0.6794,-0.6887,-0.7259,-0.7412,-0.7471,-0.7372,-0.749,-0.7666,-0.7715,-0.7754,-0.7754,-0.7627,-0.7588,-0.7588,-0.7588,-0.7588,-0.7588,-0.7618,-0.6963,-0.6464,-0.6513,-0.5802,-0.5282,-0.5214,-0.5175,-0.5088,-0.4991,-0.4873,-0.4803,-0.4753,-0.4624,-0.4584,-0.4624,-0.4394,-0.4224,-0.4163,-0.3799,-0.3633,-0.3654,-0.3612,-0.3486,-0.3232,-0.3068,-0.2844,0.0,0.0,0.0,0.0,0.0,0.0,0.1044,-0.0025,-0.1095,-0.1983,-0.2865,-0.3733,-0.4575,-0.5195,-0.5728,-0.6253,-0.6832,-0.7183,-0.7117,-0.7105,-0.7208,-0.7476,-0.7597,-0.7745,-0.7995,-0.8097,-0.8131,-0.8075,-0.8032,-0.7966,-0.7856,-0.7678,-0.7554,-0.7497,-0.736,-0.7387,-0.7574,-0.745,-0.7582,-0.7897,-0.7907,-0.8028,-0.8283,-0.8358,-0.846,-0.8611,-0.8628,-0.8684,-0.8723,-0.8449,-0.8269,-0.8163,-0.7966,-0.7711,-0.7426,-0.7215,-0.7118,-0.7148,-0.7275,-0.7481,-0.7639,-0.7434,-0.7261,-0.7092,-0.6949,-0.6703,-0.6512,-0.6652,-0.6924,-0.7253,-0.7439,-0.7582,-0.7637,-0.7479,-0.737,-0.7313,-0.734,-0.7494,-0.7661,-0.7905,-0.7976,-0.7947,-0.7928,-0.7768,-0.7619,-0.7582,-0.6851,-0.6327,-0.6373,-0.5838,-0.5454,-0.5472,-0.5463,-0.5425,-0.5319,-0.5108,-0.4912,-0.4764,-0.4495,-0.4305,-0.4224,-0.3842,-0.3609,-0.3531,-0.3174,-0.3108,-0.3357,-0.3522,-0.3543,-0.3419,-0.334,-0.309,0.0,0.0,0.0,0.0,0.3188,0.0,0.1666,0.0498,-0.0655,-0.154,-0.2562,-0.3586,-0.4586,-0.522,-0.5845,-0.6655,-0.7075,-0.7164,-0.6828,-0.6781,-0.6945,-0.7438,-0.7539,-0.7739,-0.8149,-0.8255,-0.8247,-0.8177,-0.8072,-0.7946,-0.7784,-0.7623,-0.7526,-0.746,-0.7259,-0.7124,-0.7053,-0.6971,-0.7121,-0.7483,-0.7514,-0.7813,-0.8365,-0.8563,-0.8733,-0.8942,-0.8987,-0.9065,-0.9108,-0.8987,-0.8789,-0.8525,-0.8086,-0.7806,-0.76,-0.7063,-0.6857,-0.6921,-0.7254,-0.7411,-0.7503,-0.7451,-0.7232,-0.6963,-0.6799,-0.6521,-0.6309,-0.6453,-0.6978,-0.7476,-0.7462,-0.7576,-0.7642,-0.7447,-0.7061,-0.6739,-0.6677,-0.6783,-0.7118,-0.7904,-0.806,-0.807,-0.7996,-0.763,-0.7327,-0.7239,-0.6465,-0.5945,-0.6053,-0.5734,-0.5539,-0.5667,-0.57,-0.5673,-0.5595,-0.5281,-0.4952,-0.4666,-0.4244,-0.3874,-0.3605,-0.3129,-0.2838,-0.2783,-0.259,-0.2697,-0.3123,-0.3565,-0.3703,-0.3618,-0.3668,-0.3381,0.0,0.0,0.5396,0.4477,0.3778,0.0,0.2171,0.1017,-0.0243,-0.1582,-0.2578,-0.3511,-0.4466,-0.5456,-0.6256,-0.6588,-0.7352,-0.7765,-0.7334,-0.7225,-0.7251,-0.7407,-0.7419,-0.7455,-0.7499,-0.7546,-0.7526,-0.7345,-0.7121,-0.6984,-0.6948,-0.6754,-0.6626,-0.6563,-0.6368,-0.6425,-0.6787,-0.6597,-0.6758,-0.7255,-0.7172,-0.7263,-0.7565,-0.8066,-0.8359,-0.8456,-0.8962,-0.9162,-0.919,-0.9151,-0.8802,-0.826,-0.8119,-0.7558,-0.6826,-0.664,-0.6607,-0.664,-0.6509,-0.6917,-0.7374,-0.6691,-0.6709,-0.6932,-0.6534,-0.625,-0.613,-0.6414,-0.6641,-0.6837,-0.7042,-0.7079,-0.7007,-0.675,-0.6616,-0.6547,-0.6533,-0.6653,-0.6824,-0.7101,-0.7241,-0.7314,-0.73,-0.7177,-0.7028,-0.6833,-0.6284,-0.5878,-0.5868,-0.5603,-0.5473,-0.5603,-0.5662,-0.5654,-0.553,-0.5166,-0.4765,-0.4317,-0.3722,-0.3225,-0.2919,-0.2339,-0.2056,-0.2097,-0.2717,-0.3314,-0.3893,-0.4511,-0.441,-0.3686,-0.4122,-0.3836,0.7532,0.6734,0.596,0.5389,0.446,0.0,0.0,0.1358,-0.002,-0.1335,-0.2426,-0.3463,-0.45,-0.5245,-0.5869,-0.637,-0.7273,-0.7689,-0.7089,-0.7426,-0.7766,-0.7795,-0.7767,-0.7709,-0.7606,-0.7576,-0.7439,-0.723,-0.7003,-0.6871,-0.6807,-0.6655,-0.65,-0.6408,-0.6212,-0.6165,-0.629,-0.6175,-0.6347,-0.6848,-0.6815,-0.7024,-0.7474,-0.8071,-0.8386,-0.8471,-0.901,-0.9259,-0.9232,-0.9135,-0.8607,-0.785,-0.7849,-0.7361,-0.6619,-0.6261,-0.6204,-0.6257,-0.6244,-0.6561,-0.6905,-0.6639,-0.6629,-0.6698,-0.6475,-0.6287,-0.6193,-0.6356,-0.6629,-0.6927,-0.6978,-0.699,-0.6936,-0.6694,-0.6446,-0.6244,-0.6213,-0.6213,-0.6287,-0.6371,-0.6403,-0.6522,-0.6925,-0.6727,-0.6434,-0.6228,-0.5708,-0.5365,-0.5438,-0.5432,-0.5501,-0.5771,-0.5856,-0.5867,-0.5763,-0.5309,-0.4752,-0.4042,-0.3312,-0.2648,-0.2078,-0.1474,-0.1186,-0.1252,-0.2336,-0.3121,-0.3554,-0.4964,-0.5394,-0.4911,-0.5306,-0.5069,0.8646,0.7479,0.6223,0.6049,0.4946,0.3712,0.0,0.0,0.0,-0.1099,-0.2359,-0.3559,-0.4546,-0.5,-0.5451,-0.612,-0.6995,-0.7371,-0.6783,-0.7444,-0.7959,-0.7878,-0.808,-0.8113,-0.7812,-0.775,-0.7636,-0.7422,-0.7246,-0.7101,-0.696,-0.6824,-0.6685,-0.653,-0.6355,-0.6165,-0.5991,-0.5911,-0.6067,-0.6448,-0.6477,-0.6782,-0.7321,-0.7923,-0.8239,-0.8381,-0.8858,-0.9138,-0.9232,-0.8951,-0.8342,-0.7565,-0.7543,-0.7122,-0.647,-0.5982,-0.5874,-0.5967,-0.6173,-0.6337,-0.6498,-0.666,-0.6587,-0.6466,-0.6524,-0.647,-0.6383,-0.6383,-0.673,-0.7083,-0.6935,-0.6923,-0.6892,-0.6735,-0.6337,-0.6014,-0.5973,-0.5918,-0.5893,-0.5954,-0.5856,-0.5949,-0.6527,-0.6164,-0.5728,-0.5535,-0.5075,-0.4823,-0.503,-0.529,-0.5619,-0.6022,-0.6153,-0.6171,-0.6094,-0.5515,-0.4769,-0.3895,-0.2979,-0.2116,-0.1333,-0.0682,-0.0388,-0.0461,-0.1733,-0.2583,-0.296,-0.5068,-0.6064,-0.6019,-0.6441,-0.6314,0.8626,0.7479,0.6327,0.5786,0.4773,0.3705,0.2975,0.0,0.0117,-0.1207,0.0,-0.3938,-0.4372,0.0,0.0,-0.5926,-0.6631,-0.7149,-0.7057,-0.716,-0.7091,-0.6745,-0.7889,-0.8368,-0.7462,-0.7684,-0.784,-0.7753,-0.7513,-0.7298,-0.7171,-0.6977,-0.6824,-0.6685,-0.653,-0.6425,-0.6348,-0.6218,-0.6182,-0.624,-0.6167,-0.6202,-0.629,-0.6768,-0.7155,-0.7471,-0.8012,-0.8537,-0.9003,-0.8484,-0.8083,-0.7734,-0.744,-0.6747,-0.5896,-0.5897,-0.5966,-0.608,-0.6041,-0.6337,-0.6664,-0.6189,-0.6156,-0.6361,-0.6602,-0.6668,-0.6651,-0.6651,-0.6697,-0.6721,-0.6594,-0.6475,-0.6373,-0.6283,-0.6182,-0.6106,-0.6165,-0.6165,-0.6165,-0.6165,-0.6112,-0.5959,-0.5626,-0.5323,-0.5036,-0.4838,-0.4662,-0.4635,-0.4893,-0.5365,-0.5844,-0.63,-0.6519,-0.657,-0.6443,-0.5523,-0.4651,-0.4026,-0.2716,-0.1674,-0.098,-0.0209,0.0146,0.0022,-0.1058,-0.203,-0.2824,-0.4732,-0.566,-0.5679,-0.6667,-0.6826,0.856,0.7015,0.5524,0.5806,0.4307,0.2698,0.2537,0.0981,-0.0696,-0.1654,0.0,0.0,0.0,0.0,0.0,0.0,-0.5969,-0.6351,-0.5893,-0.6658,-0.7162,-0.6836,-0.7337,-0.7463,-0.6883,-0.6894,-0.6872,-0.6767,-0.6568,-0.6572,-0.6785,-0.6637,-0.6662,-0.6927,-0.6757,-0.6638,-0.6586,-0.6436,-0.6383,-0.6383,-0.6355,-0.6355,-0.6402,-0.6873,-0.7154,-0.7278,-0.7817,-0.8181,-0.8392,-0.8146,-0.7824,-0.7493,-0.7345,-0.6806,-0.6093,-0.6171,-0.6278,-0.6388,-0.6371,-0.6576,-0.6837,-0.674,-0.6812,-0.6975,-0.7164,-0.7211,-0.7225,-0.7176,-0.7125,-0.7075,-0.6927,-0.6865,-0.6822,-0.6789,-0.6809,-0.6861,-0.6943,-0.6927,-0.6861,-0.6743,-0.6562,-0.6322,-0.5939,-0.5547,-0.5233,-0.5069,-0.5078,-0.5203,-0.5562,-0.6064,-0.6591,-0.7091,-0.73,-0.7171,-0.6617,-0.5901,-0.4952,-0.3739,-0.2079,-0.0866,-0.0229,0.0351,0.0587,0.0454,-0.0417,-0.1344,-0.2342,-0.4185,-0.5301,-0.5762,-0.7409,-0.7869,0.7889,0.6019,0.4183,0.5021,0.332,0.1492,0.173,0.0271,-0.1323,-0.1987,-0.3203,0.0,0.0,0.0,-0.4637,0.0,0.0,-0.5425,-0.4866,-0.5878,-0.6591,-0.6441,-0.655,-0.6629,-0.6614,-0.6421,-0.6223,-0.609,-0.5942,-0.5983,-0.6299,-0.6338,-0.6518,-0.6896,-0.6913,-0.6874,-0.6807,-0.6727,-0.6647,-0.6613,-0.6621,-0.6638,-0.6668,-0.7011,-0.7187,-0.7271,-0.7666,-0.7937,-0.8063,-0.7925,-0.7718,-0.7522,-0.7384,-0.7075,-0.6672,-0.6587,-0.6672,-0.6792,-0.6858,-0.7005,-0.7182,-0.7396,-0.7502,-0.7591,-0.7709,-0.7724,-0.7695,-0.7635,-0.7545,-0.7438,-0.7298,-0.7268,-0.7287,-0.7303,-0.7411,-0.7532,-0.7621,-0.7606,-0.7502,-0.7303,-0.7087,-0.6832,-0.6507,-0.6004,-0.5593,-0.547,-0.5606,-0.5865,-0.6299,-0.6826,-0.7285,-0.7567,-0.7693,-0.7406,-0.6511,-0.5896,-0.4844,-0.321,-0.1659,-0.0557,0.0035,0.0459,0.0654,0.0595,-0.0034,-0.076,-0.1585,-0.3594,-0.4918,-0.5626,-0.7617,-0.8262,0.6363,0.4318,0.2312,0.2858,0.1612,0.0291,0.0427,-0.0397,-0.1389,-0.2058,-0.3158,-0.4023,-0.411,-0.4179,0.0,0.0,0.0,0.0,0.0,-0.4672,-0.4835,-0.4952,-0.554,-0.6178,-0.6822,-0.6655,-0.6432,-0.6297,-0.61,-0.5951,-0.5819,-0.6242,-0.6477,-0.6422,-0.6916,-0.7155,-0.7091,-0.7091,-0.7009,-0.6878,-0.6944,-0.6914,-0.6789,-0.6815,-0.7014,-0.7401,-0.7414,-0.775,-0.827,-0.7862,-0.7851,-0.8038,-0.765,-0.7562,-0.7607,-0.7154,-0.7107,-0.7308,-0.7489,-0.765,-0.778,-0.7851,-0.7923,-0.7982,-0.8066,-0.8039,-0.7983,-0.7899,-0.7783,-0.765,-0.7438,-0.7438,-0.7499,-0.756,-0.7695,-0.7825,-0.7954,-0.798,-0.7923,-0.7724,-0.7621,-0.7472,-0.7132,-0.6477,-0.597,-0.5893,-0.611,-0.6445,-0.6909,-0.7492,-0.7719,-0.735,-0.7372,-0.7029,-0.609,-0.5174,-0.398,-0.2433,-0.1734,-0.113,-0.059,-0.0123,0.0179,0.0307,-0.0032,-0.0317,-0.0548,-0.3014,-0.4492,-0.5061,-0.682,-0.7455,0.4871,0.275,0.0711,0.13,-0.0182,-0.1674,-0.1216,-0.2086,-0.3073,-0.3391,-0.3855,-0.4188,-0.4174,-0.3923,0.0,0.0,0.0,0.0,0.0,-0.4283,-0.4561,-0.4737,-0.5086,-0.5366,-0.5551,-0.5419,-0.5254,-0.5119,-0.4928,-0.4915,-0.5193,-0.527,-0.5643,-0.638,-0.6532,-0.6805,-0.7235,-0.7282,-0.7314,-0.736,-0.7392,-0.7393,-0.7396,-0.7443,-0.7512,-0.7603,-0.7603,-0.7729,-0.7943,-0.7778,-0.7802,-0.7958,-0.7871,-0.7924,-0.7991,-0.7766,-0.7765,-0.7918,-0.8122,-0.8258,-0.8342,-0.8402,-0.8472,-0.853,-0.8558,-0.8517,-0.8441,-0.8325,-0.8164,-0.7998,-0.7782,-0.7753,-0.7782,-0.7855,-0.8079,-0.8303,-0.8431,-0.8538,-0.8534,-0.8332,-0.829,-0.8164,-0.7875,-0.7243,-0.6653,-0.6233,-0.601,-0.6038,-0.642,-0.6813,-0.7059,-0.7096,-0.7121,-0.6772,-0.5876,-0.4646,-0.359,-0.2741,-0.2178,-0.1747,-0.1469,-0.0884,-0.0663,-0.0887,-0.039,-0.065,-0.1703,-0.3688,-0.4594,-0.45,-0.5673,-0.6235,0.3345,0.1293,-0.0739,-0.0437,-0.1944,-0.3384,-0.2864,-0.3535,-0.4266,-0.4281,-0.4341,-0.4355,-0.4198,-0.3754,0.0,0.0,0.0,0.0,0.0,-0.3842,-0.4205,-0.4416,-0.475,-0.4941,-0.491,-0.4794,-0.4674,-0.4517,-0.4311,-0.4304,-0.4523,-0.4622,-0.4998,-0.5739,-0.6145,-0.6575,-0.7083,-0.7355,-0.756,-0.7679,-0.7724,-0.7768,-0.7811,-0.7882,-0.7895,-0.7882,-0.7882,-0.7896,-0.794,-0.7924,-0.798,-0.8119,-0.8189,-0.8296,-0.838,-0.8235,-0.83,-0.8461,-0.8639,-0.8726,-0.8773,-0.8807,-0.8869,-0.8925,-0.8875,-0.884,-0.8771,-0.8616,-0.8438,-0.8269,-0.8119,-0.8106,-0.8131,-0.8238,-0.8489,-0.8751,-0.8884,-0.9009,-0.9042,-0.8844,-0.8844,-0.8789,-0.8554,-0.7757,-0.7033,-0.6741,-0.6327,-0.6168,-0.6441,-0.6687,-0.6782,-0.6688,-0.662,-0.6199,-0.5282,-0.4343,-0.3626,-0.3185,-0.2748,-0.2554,-0.2606,-0.2104,-0.1885,-0.2037,-0.1559,-0.1817,-0.284,-0.4123,-0.4559,-0.4192,-0.504,-0.5284]},{"header":{"parameterUnit":"m.s-1","parameterCategory":1,"la1":30.6,"la2":29.2853,"lo1":-89.7004,"lo2":-87.6739,"dy":0.0162,"dx":0.0183,"nx":112,"ny":82,"refTime":"2023-10-08T12:00:00:Z","depth":0,"parameterNumber":3,"parameterNumberName":"V-component_of_WINDS"},"data":[0.0,0.0,0.0,0.0,0.0,0.0,0.0,0.0,0.0,0.0,0.0,0.0,0.0,0.0,0.0,0.0,0.0,0.0,0.0,0.0,0.0,0.0,0.0,0.0,0.0,0.0,0.0,0.0,0.0,0.0,0.0,0.0,0.0,0.0,0.0,0.0,0.0,0.0,0.0,0.0,0.0,0.0,0.0,0.0,0.0,0.0,0.0,0.0,0.0,0.0,0.0,0.0,0.0,0.0,0.0,0.0,0.0,0.0,0.0,0.0,0.0,0.0,0.0,0.0,0.0,0.0,0.0,0.0,0.0,0.0,0.0,0.0,0.0,0.0,0.0,0.0,0.0,0.0,0.0,0.0,0.0,0.0,0.0,0.0,0.0,0.0,0.0,0.0,0.0,0.0,-1.7119,-1.8192,-2.0337,-2.143,-2.0759,-2.1197,-2.0892,-1.9419,0.0,0.0,0.0,0.0,0.0,0.0,0.0,0.0,0.0,0.0,0.0,0.0,0.0,0.0,0.0,0.0,0.0,0.0,0.0,0.0,0.0,0.0,0.0,0.0,0.0,0.0,0.0,0.0,0.0,0.0,0.0,0.0,0.0,0.0,0.0,0.0,0.0,0.0,0.0,0.0,0.0,0.0,0.0,0.0,0.0,0.0,0.0,0.0,0.0,0.0,0.0,0.0,0.0,0.0,0.0,0.0,0.0,0.0,0.0,0.0,0.0,0.0,0.0,0.0,0.0,0.0,0.0,0.0,0.0,0.0,0.0,0.0,0.0,0.0,0.0,0.0,0.0,0.0,0.0,0.0,0.0,0.0,0.0,0.0,0.0,0.0,0.0,0.0,0.0,0.0,0.0,0.0,0.0,0.0,0.0,0.0,0.0,0.0,0.0,0.0,0.0,0.0,0.0,0.0,-1.7562,-1.9869,-2.1065,-2.1923,-2.2462,-2.1939,-2.1471,-2.122,0.0,0.0,0.0,0.0,0.0,0.0,0.0,0.0,0.0,0.0,0.0,0.0,0.0,0.0,0.0,0.0,0.0,0.0,0.0,0.0,0.0,0.0,0.0,0.0,0.0,0.0,0.0,0.0,0.0,0.0,0.0,0.0,0.0,0.0,0.0,0.0,0.0,0.0,0.0,0.0,0.0,0.0,0.0,0.0,0.0,0.0,0.0,0.0,0.0,0.0,0.0,0.0,0.0,0.0,0.0,0.0,0.0,0.0,0.0,0.0,0.0,0.0,0.0,0.0,0.0,0.0,0.0,0.0,0.0,0.0,0.0,0.0,0.0,0.0,0.0,0.0,0.0,0.0,0.0,0.0,0.0,0.0,0.0,0.0,0.0,0.0,0.0,0.0,0.0,0.0,0.0,0.0,0.0,0.0,0.0,0.0,0.0,0.0,0.0,0.0,0.0,0.0,0.0,-1.8488,-1.9389,-2.1037,-2.2353,-2.3079,-2.2966,-2.2565,-2.2093,-2.1628,-1.9114,0.0,0.0,0.0,0.0,0.0,0.0,0.0,0.0,0.0,0.0,0.0,0.0,0.0,0.0,0.0,0.0,0.0,0.0,0.0,0.0,0.0,0.0,0.0,0.0,0.0,0.0,0.0,0.0,0.0,0.0,0.0,0.0,0.0,0.0,0.0,0.0,0.0,0.0,0.0,0.0,0.0,0.0,0.0,0.0,0.0,0.0,0.0,0.0,0.0,0.0,0.0,0.0,0.0,0.0,0.0,0.0,0.0,0.0,0.0,0.0,0.0,0.0,0.0,0.0,0.0,0.0,0.0,0.0,0.0,0.0,0.0,0.0,0.0,0.0,0.0,0.0,0.0,0.0,0.0,0.0,0.0,0.0,0.0,0.0,0.0,0.0,0.0,0.0,0.0,0.0,0.0,0.0,0.0,0.0,0.0,0.0,0.0,0.0,0.0,0.0,0.0,0.0,-2.0319,-2.1201,-2.2286,-2.3543,-2.4119,-2.3637,-2.3185,-2.2649,-2.1965,-1.954,0.0,0.0,0.0,0.0,0.0,0.0,0.0,0.0,0.0,0.0,0.0,0.0,0.0,0.0,0.0,0.0,0.0,0.0,0.0,0.0,0.0,0.0,0.0,0.0,0.0,0.0,0.0,0.0,0.0,0.0,0.0,0.0,0.0,0.0,0.0,0.0,0.0,0.0,0.0,0.0,0.0,0.0,0.0,0.0,0.0,0.0,0.0,0.0,0.0,0.0,0.0,0.0,0.0,0.0,0.0,0.0,0.0,0.0,0.0,0.0,0.0,0.0,0.0,0.0,0.0,0.0,0.0,0.0,0.0,0.0,0.0,0.0,0.0,0.0,0.0,0.0,0.0,0.0,0.0,0.0,0.0,0.0,0.0,0.0,0.0,0.0,0.0,0.0,0.0,0.0,0.0,0.0,0.0,0.0,0.0,0.0,0.0,0.0,0.0,0.0,0.0,0.0,-2.1204,-2.2322,-2.3953,-2.4224,-2.4583,-2.5266,-2.3896,-2.2965,-2.2901,-2.0507,0.0,0.0,0.0,0.0,0.0,0.0,0.0,0.0,0.0,0.0,0.0,0.0,0.0,0.0,0.0,0.0,0.0,0.0,0.0,0.0,0.0,0.0,0.0,0.0,0.0,0.0,0.0,0.0,0.0,0.0,0.0,0.0,0.0,0.0,0.0,0.0,0.0,0.0,0.0,0.0,0.0,0.0,0.0,0.0,0.0,0.0,0.0,0.0,0.0,0.0,0.0,0.0,0.0,0.0,0.0,0.0,0.0,0.0,0.0,0.0,0.0,0.0,0.0,0.0,0.0,0.0,0.0,0.0,0.0,0.0,0.0,0.0,0.0,0.0,0.0,0.0,0.0,0.0,0.0,0.0,0.0,0.0,0.0,0.0,0.0,0.0,0.0,0.0,0.0,0.0,0.0,0.0,0.0,0.0,0.0,0.0,0.0,0.0,0.0,0.0,0.0,0.0,-2.2096,-2.304,-2.4174,-2.4788,-2.5235,-2.5538,-2.3985,-2.3001,-2.3007,0.0,0.0,0.0,0.0,0.0,0.0,0.0,0.0,0.0,0.0,0.0,0.0,0.0,0.0,0.0,0.0,0.0,0.0,0.0,0.0,0.0,0.0,0.0,0.0,0.0,0.0,0.0,0.0,0.0,0.0,0.0,0.0,0.0,0.0,0.0,0.0,0.0,0.0,0.0,0.0,0.0,0.0,0.0,0.0,0.0,0.0,0.0,0.0,0.0,0.0,0.0,0.0,0.0,0.0,0.0,0.0,0.0,0.0,0.0,0.0,0.0,0.0,0.0,0.0,0.0,0.0,0.0,0.0,0.0,0.0,0.0,0.0,0.0,0.0,0.0,0.0,0.0,0.0,0.0,0.0,0.0,0.0,0.0,0.0,0.0,0.0,0.0,0.0,0.0,0.0,0.0,0.0,0.0,0.0,0.0,0.0,0.0,0.0,0.0,0.0,0.0,0.0,-2.1964,-2.272,-2.3508,-2.4598,-2.524,-2.559,-2.5602,-2.3997,-2.2998,-2.2994,0.0,0.0,0.0,0.0,0.0,0.0,0.0,0.0,0.0,0.0,0.0,0.0,0.0,0.0,0.0,0.0,0.0,0.0,0.0,0.0,0.0,0.0,0.0,0.0,0.0,0.0,0.0,0.0,0.0,0.0,0.0,0.0,0.0,0.0,0.0,0.0,0.0,0.0,0.0,0.0,0.0,0.0,0.0,0.0,0.0,0.0,0.0,0.0,0.0,0.0,0.0,0.0,0.0,0.0,0.0,0.0,0.0,0.0,0.0,0.0,0.0,0.0,0.0,0.0,0.0,0.0,0.0,0.0,0.0,0.0,0.0,0.0,0.0,0.0,0.0,0.0,0.0,0.0,0.0,0.0,0.0,0.0,0.0,0.0,0.0,0.0,0.0,0.0,0.0,0.0,0.0,0.0,0.0,0.0,0.0,0.0,0.0,0.0,0.0,0.0,0.0,0.0,-2.2771,-2.3096,-2.3741,-2.5414,-2.5595,-2.559,-2.5602,-2.3994,-2.3004,0.0,0.0,0.0,0.0,0.0,0.0,0.0,0.0,0.0,0.0,0.0,0.0,0.0,0.0,0.0,0.0,0.0,0.0,0.0,0.0,0.0,0.0,0.0,0.0,0.0,0.0,0.0,0.0,0.0,0.0,0.0,0.0,0.0,0.0,0.0,0.0,0.0,0.0,0.0,0.0,0.0,0.0,0.0,0.0,0.0,0.0,0.0,0.0,0.0,0.0,0.0,0.0,0.0,0.0,0.0,0.0,0.0,0.0,0.0,0.0,0.0,0.0,0.0,0.0,0.0,0.0,0.0,0.0,0.0,0.0,0.0,0.0,0.0,0.0,0.0,0.0,0.0,0.0,0.0,0.0,0.0,0.0,0.0,0.0,0.0,0.0,0.0,0.0,0.0,0.0,0.0,0.0,0.0,0.0,0.0,0.0,0.0,0.0,0.0,0.0,0.0,0.0,0.0,-2.2842,-2.3091,-2.3741,-2.5414,-2.5595,-2.5605,-2.559,-2.3996,-2.3013,-2.3073,0.0,0.0,0.0,0.0,0.0,0.0,0.0,0.0,0.0,0.0,0.0,0.0,0.0,0.0,0.0,0.0,0.0,0.0,0.0,0.0,0.0,0.0,0.0,0.0,0.0,0.0,0.0,0.0,0.0,0.0,0.0,0.0,0.0,0.0,0.0,0.0,0.0,0.0,0.0,0.0,0.0,0.0,0.0,0.0,0.0,0.0,0.0,0.0,0.0,0.0,0.0,0.0,0.0,0.0,0.0,0.0,0.0,0.0,0.0,0.0,0.0,0.0,0.0,0.0,0.0,0.0,0.0,0.0,0.0,0.0,0.0,0.0,0.0,0.0,0.0,0.0,0.0,0.0,0.0,0.0,0.0,0.0,0.0,0.0,0.0,0.0,0.0,0.0,0.0,0.0,0.0,0.0,0.0,0.0,0.0,0.0,0.0,0.0,0.0,0.0,0.0,0.0,-2.2876,-2.3107,-2.3741,-2.5414,-2.56,-2.5595,-2.561,-2.4034,-2.3054,-2.3098,0.0,0.0,0.0,0.0,0.0,0.0,0.0,0.0,0.0,0.0,0.0,0.0,0.0,0.0,0.0,0.0,0.0,0.0,0.0,0.0,0.0,0.0,0.0,0.0,0.0,0.0,0.0,0.0,0.0,0.0,0.0,0.0,0.0,0.0,0.0,0.0,0.0,0.0,0.0,0.0,0.0,0.0,0.0,0.0,0.0,0.0,0.0,0.0,0.0,0.0,0.0,0.0,0.0,0.0,0.0,0.0,0.0,0.0,0.0,0.0,0.0,0.0,0.0,0.0,0.0,0.0,0.0,0.0,0.0,0.0,0.0,0.0,0.0,0.0,0.0,0.0,0.0,0.0,0.0,0.0,0.0,0.0,0.0,0.0,0.0,0.0,0.0,0.0,0.0,0.0,0.0,0.0,0.0,0.0,0.0,0.0,0.0,0.0,0.0,0.0,0.0,0.0,-2.2876,-2.3107,-2.3745,-2.5433,-2.5604,-2.5604,-2.5615,-2.4148,-2.3192,-2.312,0.0,0.0,0.0,0.0,0.0,0.0,0.0,0.0,0.0,0.0,0.0,0.0,0.0,0.0,0.0,0.0,0.0,0.0,0.0,0.0,0.0,0.0,0.0,0.0,0.0,0.0,0.0,0.0,0.0,0.0,0.0,0.0,0.0,0.0,0.0,0.0,0.0,0.0,0.0,0.0,0.0,0.0,0.0,0.0,0.0,0.0,0.0,0.0,0.0,0.0,0.0,0.0,0.0,0.0,0.0,0.0,0.0,0.0,0.0,0.0,-1.7818,-1.7228,0.0,0.0,0.0,0.0,0.0,0.0,0.0,0.0,0.0,0.0,0.0,0.0,0.0,0.0,0.0,0.0,0.0,0.0,0.0,0.0,0.0,0.0,0.0,0.0,0.0,0.0,0.0,0.0,0.0,0.0,0.0,0.0,0.0,0.0,0.0,0.0,0.0,0.0,0.0,0.0,-2.2876,-2.3107,-2.3764,-2.5485,-2.5628,-2.5613,-2.5664,-2.4725,-2.3826,-2.3132,-2.2109,0.0,0.0,0.0,0.0,0.0,0.0,0.0,0.0,0.0,0.0,0.0,0.0,0.0,0.0,0.0,0.0,0.0,0.0,0.0,0.0,0.0,0.0,0.0,0.0,0.0,0.0,0.0,0.0,0.0,0.0,0.0,0.0,0.0,0.0,0.0,0.0,0.0,0.0,0.0,0.0,0.0,0.0,0.0,0.0,0.0,0.0,0.0,0.0,0.0,0.0,0.0,0.0,0.0,0.0,0.0,0.0,0.0,0.0,0.0,-1.9991,-1.8807,0.0,0.0,0.0,0.0,0.0,0.0,0.0,0.0,0.0,0.0,0.0,0.0,0.0,0.0,0.0,0.0,0.0,0.0,0.0,0.0,0.0,0.0,0.0,0.0,0.0,0.0,0.0,0.0,0.0,0.0,0.0,0.0,0.0,0.0,0.0,0.0,0.0,0.0,0.0,0.0,-2.2932,-2.3475,-2.4232,-2.5563,-2.5675,-2.566,-2.5691,-2.4891,-2.4029,-2.3158,-2.2285,0.0,0.0,0.0,0.0,0.0,0.0,0.0,0.0,0.0,0.0,0.0,0.0,0.0,0.0,0.0,0.0,0.0,0.0,0.0,0.0,0.0,0.0,0.0,0.0,0.0,0.0,0.0,0.0,0.0,0.0,0.0,0.0,0.0,0.0,0.0,0.0,0.0,0.0,0.0,0.0,0.0,0.0,0.0,0.0,0.0,0.0,0.0,0.0,0.0,0.0,0.0,0.0,0.0,-2.2278,-2.2756,-2.2926,-2.3589,-2.4282,-2.4845,-2.2674,-2.1086,-1.997,-1.9685,0.0,0.0,0.0,0.0,0.0,0.0,0.0,0.0,0.0,0.0,0.0,0.0,0.0,0.0,0.0,0.0,0.0,0.0,0.0,0.0,0.0,0.0,-1.6695,-1.7422,-1.8807,-1.9762,-1.9049,0.0,0.0,0.0,0.0,0.0,0.0,0.0,0.0,0.0,0.0,0.0,-2.3218,-2.3959,-2.4736,-2.5601,-2.5699,-2.5703,-2.5694,-2.5038,-2.4196,-2.3161,-2.2421,-2.1569,0.0,0.0,0.0,0.0,0.0,0.0,0.0,0.0,0.0,0.0,0.0,0.0,0.0,0.0,0.0,0.0,0.0,0.0,0.0,0.0,0.0,0.0,0.0,0.0,0.0,0.0,0.0,0.0,0.0,0.0,0.0,0.0,-1.284,-1.3822,0.0,0.0,0.0,0.0,0.0,0.0,0.0,0.0,0.0,0.0,0.0,0.0,0.0,-1.977,-2.1457,-2.222,-2.3387,-2.4934,-2.5809,-2.659,-2.7272,-2.7382,-2.7498,-2.7576,-2.7226,0.0,-2.3502,-2.1981,0.0,0.0,0.0,0.0,0.0,0.0,0.0,0.0,0.0,0.0,0.0,0.0,0.0,0.0,0.0,0.0,0.0,0.0,0.0,0.0,0.0,0.0,-2.0996,-2.1091,-2.1884,-2.2572,-2.2452,-2.1834,-2.1567,-2.2435,-2.2604,-2.2636,0.0,0.0,0.0,0.0,0.0,0.0,-2.4115,-2.4329,-2.4736,-2.5601,-2.5699,-2.5707,-2.5707,-2.5593,-2.4825,-2.32,-2.2988,-2.2199,-2.0575,-2.0386,0.0,0.0,0.0,0.0,0.0,0.0,0.0,0.0,0.0,0.0,0.0,0.0,0.0,0.0,0.0,0.0,0.0,0.0,0.0,0.0,0.0,0.0,0.0,0.0,0.0,0.0,0.0,0.0,0.0,-1.3069,-1.3855,-1.4737,-1.4838,-1.5171,0.0,0.0,0.0,0.0,0.0,0.0,0.0,0.0,0.0,-2.0683,-2.1652,-2.2759,-2.3985,-2.4814,-2.5848,-2.707,-2.7443,-2.7789,-2.81,-2.81,-2.8365,-2.8805,-2.83,-2.775,-2.7031,-2.5331,-2.4325,-2.3772,0.0,0.0,0.0,0.0,-2.0395,-2.0811,-2.0819,-2.1429,-2.2076,-2.1206,0.0,0.0,0.0,0.0,0.0,0.0,0.0,-1.76,-1.8584,-2.03,-2.2049,-2.2978,-2.3871,-2.4749,-2.5717,-2.5605,-2.489,-2.3342,-2.3041,-2.3032,-2.3047,-2.3037,0.0,0.0,0.0,-2.3914,-2.428,-2.4771,-2.5219,-2.5604,-2.5648,-2.566,-2.5694,-2.5701,-2.4952,-2.3212,-2.3102,-2.2324,-2.0563,-2.0501,-2.0103,0.0,0.0,0.0,0.0,0.0,0.0,0.0,0.0,0.0,0.0,0.0,0.0,0.0,0.0,0.0,0.0,0.0,0.0,0.0,0.0,0.0,0.0,0.0,0.0,0.0,0.0,0.0,0.0,-1.4615,-1.5086,-1.5968,-1.6066,-1.6318,0.0,0.0,0.0,0.0,0.0,0.0,-2.0233,-2.1091,-2.2045,-2.3093,-2.4383,-2.5489,-2.633,-2.7152,-2.7873,-2.8513,-2.8734,-2.8813,-2.8773,-2.8773,-2.9116,-2.9676,-2.9016,-2.9106,-2.9582,-2.7912,-2.6825,-2.619,-2.5529,-2.4907,-2.4296,-2.3581,-2.3717,-2.428,-2.4288,-2.5137,-2.6062,-2.5208,-2.4613,-2.3909,-2.1964,0.0,0.0,0.0,0.0,-2.0142,-2.1455,-2.2601,-2.3731,-2.4985,-2.5751,-2.6553,-2.7822,-2.8067,-2.7323,-2.4796,-2.4305,-2.423,-2.4011,-2.3964,0.0,-2.3969,-2.453,-2.4943,-2.4943,-2.5512,-2.5829,-2.5615,-2.5605,-2.5615,-2.5671,-2.5664,-2.4934,-2.3215,-2.3105,-2.2328,-2.0575,-2.0501,-2.023,-1.9625,0.0,0.0,0.0,0.0,0.0,0.0,0.0,0.0,0.0,0.0,0.0,0.0,0.0,0.0,0.0,0.0,0.0,0.0,0.0,0.0,0.0,0.0,0.0,0.0,0.0,0.0,0.0,0.0,0.0,-1.7763,-1.7861,0.0,0.0,0.0,0.0,-1.9229,-2.0777,-2.2051,-2.2867,-2.3731,-2.4996,-2.6679,-2.6828,-2.7266,-2.8076,-2.8948,-2.9349,-2.935,-3.0173,-3.0567,-3.0564,-3.0564,-3.0548,-3.0543,-3.0496,-3.0507,-3.041,-2.8737,-2.8015,-2.7976,-2.7937,-2.7879,-2.784,-2.7714,-2.7706,-2.7745,-2.7749,-2.7818,-2.7733,-2.6857,-2.5495,-2.4173,-2.4045,-2.3345,0.0,0.0,-2.385,-2.5149,-2.5307,-2.6559,-2.7802,-2.79,-2.7896,-2.7896,-2.7992,-2.8014,-2.7965,-2.7865,-2.7845,-2.7586,-2.6752,0.0,-2.6605,-2.6605,-2.6651,-2.6663,-2.6663,-2.6702,-2.645,-2.5679,-2.5601,-2.5599,-2.561,-2.561,-2.488,-2.3208,-2.3108,-2.2314,-2.0569,-2.0508,-2.0476,-2.0437,-1.9684,0.0,0.0,0.0,0.0,0.0,0.0,0.0,0.0,0.0,0.0,0.0,0.0,0.0,0.0,0.0,0.0,0.0,0.0,0.0,0.0,0.0,0.0,0.0,0.0,0.0,0.0,0.0,0.0,-1.8801,-1.9326,0.0,-2.0394,-2.0767,-2.1413,-2.2507,-2.3162,-2.4119,-2.5525,-2.5905,-2.6594,-2.7733,-2.8314,-2.8753,-2.9021,-2.9861,-3.027,-3.0231,-3.0547,-3.0673,-3.064,-3.064,-3.0595,-3.054,-3.053,-3.05,-3.037,-2.9764,-2.9574,-2.9631,-2.9602,-2.9264,-2.8791,-2.8734,-2.8714,-2.8782,-2.934,-2.988,-3.0274,-2.9955,-2.9077,-2.8027,-2.7507,-2.6747,-2.6063,-2.6118,-2.6183,-2.6409,-2.6982,-2.7558,-2.8113,-2.8674,-2.8801,-2.8907,-2.9428,-2.9574,-2.9622,-2.9631,-2.8771,-2.792,-2.7574,-2.7533,-2.7569,-2.7569,-2.7567,-2.7574,-2.7574,-2.7079,-2.6633,-2.6343,-2.5834,-2.5538,-2.5551,-2.5544,-2.4799,-2.3081,-2.2959,-2.2216,-2.0512,-2.0439,-2.0454,-2.0495,-2.0218,-1.9801,0.0,0.0,0.0,0.0,0.0,0.0,0.0,0.0,0.0,0.0,0.0,0.0,0.0,0.0,0.0,0.0,0.0,0.0,0.0,0.0,0.0,0.0,0.0,0.0,0.0,0.0,-2.0052,-2.0915,-2.1534,-2.2213,-2.3033,-2.3423,-2.4071,-2.5188,-2.5547,-2.634,-2.7774,-2.7842,-2.8217,-2.9017,-2.9596,-2.9891,-2.9907,-3.0432,-3.0683,-3.0661,-3.0956,-3.1058,-3.0984,-3.1275,-3.137,-3.1314,-3.1291,-3.1052,-3.0702,-3.0695,-3.0548,-3.0364,-3.0344,-3.0017,-2.9525,-2.9502,-2.9459,-2.9594,-3.0433,-3.1277,-3.1968,-3.1968,-3.1584,-3.1009,-3.049,-2.9939,-2.949,-2.9563,-2.8989,-2.849,-2.9052,-2.8954,-2.8865,-2.9424,-2.9575,-2.9717,-3.0256,-3.0402,-3.0425,-3.0425,-2.9552,-2.8714,-2.8386,-2.8348,-2.8377,-2.8406,-2.8386,-2.8261,-2.7971,-2.7431,-2.6852,-2.6292,-2.5749,-2.5429,-2.5437,-2.5434,-2.483,-2.3398,-2.303,-2.223,-2.083,-2.0508,-2.0396,-2.0434,-2.0484,-2.008,-1.9253,0.0,0.0,0.0,0.0,0.0,0.0,0.0,0.0,0.0,0.0,0.0,0.0,0.0,0.0,0.0,0.0,0.0,0.0,0.0,0.0,0.0,0.0,0.0,-1.9292,-2.0131,-2.1676,-2.4141,-2.4487,-2.485,-2.5691,-2.6532,-2.7044,-2.7089,-2.7869,-2.8691,-2.9489,-2.9532,-2.9891,-3.0678,-3.0704,-3.0704,-3.0749,-3.0746,-3.0715,-3.0692,-3.1535,-3.1854,-3.175,-3.2598,-3.2947,-3.2885,-3.2823,-3.2316,-3.1531,-3.1455,-3.0933,-3.0185,-3.0232,-3.0221,-3.0202,-3.0218,-3.0242,-3.0376,-3.1164,-3.2023,-3.2783,-3.2775,-3.2771,-3.2804,-3.2852,-3.2847,-3.2861,-3.2908,-3.2275,-3.1591,-3.1578,-3.095,-3.0285,-3.0304,-3.0299,-3.0312,-3.0312,-3.0312,-3.0292,-3.0292,-3.0348,-3.0147,-2.937,-2.9173,-2.9159,-2.9193,-2.9151,0.0,-2.7909,-2.7775,-2.7129,-2.5514,-2.5303,-2.5293,-2.5293,-2.5293,-2.4946,-2.4135,-2.327,-2.2395,-2.1532,-2.072,-2.0299,-2.0308,-2.0433,-2.0072,-1.9238,0.0,0.0,0.0,0.0,0.0,0.0,0.0,0.0,0.0,0.0,0.0,0.0,0.0,0.0,0.0,0.0,0.0,0.0,0.0,0.0,0.0,0.0,-1.9301,-1.9297,-2.2187,-2.4551,-2.5252,-2.6463,-2.7323,-2.7558,-2.7753,-2.8123,-2.8765,-2.9027,-2.9523,-3.0335,-3.0366,-3.0471,-3.0683,-3.0642,-3.0928,-3.1562,-3.1526,-3.1777,-3.2334,-3.2521,-3.2576,-3.2499,-3.2703,-3.2742,-3.2669,-3.2622,-3.2425,-3.2148,-3.2064,-3.1951,-3.1722,-3.121,-3.0647,-3.0204,-3.0715,-3.1328,-3.1898,-3.2126,-3.317,-3.4442,-3.444,-3.444,-3.444,-3.4456,-3.4018,-3.3538,-3.3608,-3.2577,-3.1446,-3.1451,-3.0805,-3.018,-3.0226,-3.0226,-3.0226,-3.0221,-3.0266,-3.0292,-3.0292,-3.0279,-3.0203,-3.0023,-2.9985,-2.9761,-2.914,-2.9051,-2.8701,-2.7838,-2.7182,-2.6615,-2.6144,-2.5532,-2.5141,-2.5152,-2.5152,-2.4807,-2.4002,-2.314,-2.2288,-2.1455,-2.0659,-2.0246,-2.0302,-2.043,-2.038,0.0,0.0,0.0,0.0,0.0,0.0,0.0,0.0,0.0,0.0,0.0,0.0,0.0,0.0,0.0,0.0,0.0,0.0,0.0,0.0,0.0,0.0,-2.0666,-2.1945,-2.1945,-2.41,-2.6095,-2.7164,-2.8187,-2.8941,-2.9273,-2.9269,-2.946,-2.9955,-2.999,-3.0185,-3.063,-3.0987,-3.1165,-3.1166,-3.1448,-3.1835,-3.2315,-3.2251,-3.2435,-3.2885,-3.3177,-3.3278,-3.3242,-3.3554,-3.3675,-3.3608,-3.3555,-3.333,-3.2974,-3.2919,-3.2674,-3.2371,0.0,0.0,0.0,0.0,-3.1703,-3.2462,-3.2462,-3.3578,-3.502,-3.5057,-3.5057,-3.5075,-3.5092,-3.475,-3.4274,-3.3949,-3.2918,-3.1828,-3.1444,-3.0738,-3.0113,-3.0161,-3.0157,-3.0171,-3.0166,-3.0213,-3.024,-3.0226,-3.0166,0.0,-2.9721,-2.9677,-2.9505,-2.9021,-2.8645,-2.8103,-2.723,-2.6683,-2.6231,-2.5888,-2.5392,-2.5106,-2.5106,-2.5106,0.0,0.0,0.0,-2.2577,-2.1414,-2.0948,0.0,0.0,0.0,-2.0469,-2.0497,-1.9999,0.0,0.0,-1.7921,-1.7475,0.0,0.0,0.0,0.0,0.0,0.0,0.0,0.0,0.0,0.0,0.0,0.0,0.0,0.0,0.0,0.0,-2.361,-2.5693,-2.5989,-2.6067,-2.6953,-2.9211,-2.958,-2.992,-3.0639,-3.0787,-3.0792,-3.0684,-3.0776,-3.074,-3.0585,-3.1341,0.0,0.0,0.0,-3.2993,-3.3006,-3.287,-3.2795,-3.2821,-3.3535,-3.3832,-3.3821,-3.4677,-3.5039,-3.4983,-3.4964,-3.4509,-3.375,-3.3677,-3.3147,-3.2371,-3.2296,-3.2315,-3.2275,-3.1312,-3.1484,-3.2259,-3.2335,0.0,0.0,-3.4945,-3.5001,-3.5001,-3.5057,-3.5075,-3.4904,-3.4029,-3.3192,-3.2374,-3.1499,-3.0681,-3.0072,-3.0087,-3.0083,-3.0079,-3.0094,-3.0142,-3.0171,-3.0109,-3.0018,-2.9698,-2.8927,-2.8793,-2.8751,-2.8627,-2.7946,-2.7138,-2.6268,-2.6154,-2.5888,-2.5165,-2.5089,0.0,-2.5089,-2.5089,-2.5089,-2.5089,-2.4271,-2.3072,-2.1505,-2.1502,-2.1206,-2.0507,-2.0527,-2.058,-2.0646,-2.0549,-2.0508,-2.0453,-1.8774,-1.796,0.0,0.0,0.0,0.0,0.0,0.0,0.0,0.0,0.0,0.0,0.0,0.0,0.0,0.0,0.0,-2.3947,-2.5085,-2.6243,-2.8299,-2.8594,-2.8817,-2.9355,-3.0049,-3.0536,-3.0678,-3.1297,-3.1355,-3.0597,-3.1187,-3.1255,-3.0479,-3.1259,-3.1688,-3.1648,-3.2423,-3.3116,-3.3712,-3.3001,-3.2918,-3.3513,-3.3617,0.0,-3.3677,-3.449,-3.4849,-3.4829,-3.4769,-3.4297,-3.3561,-3.3482,-3.2974,-3.2185,-3.1579,-3.1749,-3.2128,-3.0544,-3.0526,-3.1374,-3.209,-3.2997,-3.3961,-3.4699,-3.4927,-3.4927,-3.4927,-3.4945,0.0,-3.3959,-3.3089,-3.2237,-3.1366,-3.0499,-2.9876,-2.9924,-2.994,-2.9972,-3.0068,-3.0117,-3.0117,-3.0102,-2.9521,-2.8977,-2.8757,-2.8764,-2.8351,-2.6985,-2.6667,-2.6241,-2.5367,-2.5245,-2.5194,-2.5042,-2.5023,-2.5023,-2.5023,-2.4977,-2.4959,-2.5023,-2.4208,-2.329,-2.2308,-2.2326,-2.2324,-2.2221,-2.1663,-2.1411,-2.1463,-2.0827,-2.0499,-2.0482,-2.008,-1.9837,0.0,0.0,0.0,0.0,0.0,0.0,0.0,0.0,0.0,0.0,0.0,-1.8712,0.0,0.0,-2.2902,-2.505,-2.65,-2.7786,-2.9033,-2.9574,-2.9873,-2.9947,-3.0338,-3.0604,-3.0604,-3.0898,-3.0906,-3.0436,-3.0772,-3.0794,-3.0318,-3.1507,-3.2158,-3.2053,-3.3299,-3.3884,-3.3747,-3.3313,-3.3069,-3.2995,-3.2921,-3.2902,-3.2921,-3.3769,-3.3899,-3.3504,-3.3918,-3.3636,-3.2901,-3.2862,-3.2617,-3.2185,-3.1355,-3.1317,-3.1544,-3.0678,-3.0622,-3.1054,-3.1506,-3.2223,-3.3091,-3.3942,-3.4207,-3.4282,-3.4717,-3.4547,-3.4036,-3.3242,-3.2392,-3.156,-3.0673,-3.0127,-2.9825,-2.9874,-2.9907,-2.994,-3.0022,-3.0087,-3.0087,-3.0072,-2.9357,-2.8643,-2.8146,-2.7721,-2.7167,-2.6318,-2.5896,-2.5479,-2.5061,-2.4991,-2.501,-2.501,-2.501,-2.4996,-2.4945,-2.4525,-2.4449,-2.4912,-2.4155,-2.3505,-2.3126,-2.3156,-2.3023,-2.2659,-2.2316,-2.2172,-2.2249,-2.1884,-2.1487,-2.1097,-2.107,-2.0811,0.0,0.0,0.0,0.0,0.0,0.0,0.0,0.0,-1.8193,-1.8279,-2.0184,-2.1895,-2.2087,-2.3976,-2.56,-2.5937,-2.7766,-2.9171,-2.9283,-2.9886,-3.0344,-3.0392,-3.0449,-3.0458,-3.0466,-3.0482,-3.0439,-3.0272,-3.0513,-3.0567,-3.039,-3.1974,-3.2839,-3.2721,-3.407,-3.4414,-3.3582,-3.3261,-3.2732,-3.2034,-3.1977,-3.1938,-3.1976,-3.2841,-3.2841,-3.2221,-3.2749,-3.2618,-3.2015,-3.1864,-3.1789,-3.1732,-3.1017,-3.0753,-3.0753,-3.0753,-3.0753,-3.0772,-3.0941,-3.1469,-3.2185,-3.2996,-3.3279,-3.3392,-3.409,-3.3826,-3.3109,-3.2298,-3.16,-3.0883,-2.9998,-2.9771,-2.9808,-2.9859,-2.9893,-2.9924,-2.9956,-3.0022,-3.0,-2.9798,-2.9099,-2.8249,-2.7305,-2.6454,-2.5887,-2.5868,-2.5367,-2.4996,-2.501,-2.501,-2.4996,-2.4977,-2.4977,-2.4888,-2.4643,-2.4006,-2.3822,-2.436,-2.3958,-2.3687,-2.3695,-2.3917,-2.3738,-2.3103,-2.2965,-2.2949,-2.3036,-2.2917,-2.2449,-2.1681,-2.1677,-2.1266,-1.5034,-1.5898,-1.6772,-1.7586,-1.7855,-1.8136,0.0,0.0,-2.0634,-2.0774,-2.2204,-2.3714,-2.4529,-2.5513,-2.6683,-2.8249,-2.8689,-2.9121,-2.9888,-3.0023,-3.0052,-3.0066,-3.0222,-3.0316,-3.0318,-3.0904,-3.0949,-3.0189,-3.1442,-3.1903,-3.1132,-3.2688,-3.3543,-3.3469,-3.3658,-3.3696,-3.3521,-3.2034,-3.1205,-3.1073,-3.1053,-3.1053,-3.1072,-3.1879,-3.2219,-3.2087,-3.1447,-3.1128,-3.0997,-3.0302,-3.0,-2.9964,-2.9888,-2.9851,-2.9851,-2.9851,-2.9851,-2.9964,-3.0735,-3.1054,-3.1299,-3.2147,-3.243,-3.2449,-3.2562,-3.2525,-3.2279,-3.1449,-3.1129,-3.0809,-2.9943,-2.9717,-2.9717,-2.9808,-2.9859,-2.9893,-2.9907,-2.9924,-2.9696,-2.8995,-2.8214,-2.735,-2.6408,-2.5622,-2.5096,-2.505,-2.4955,-2.4931,-2.4977,-2.501,-2.4977,-2.4917,-2.4917,-2.4568,-2.3724,-2.3625,-2.3304,-2.2636,-2.3288,-2.3706,-2.3706,-2.4454,-2.4835,-2.4816,-2.4071,-2.3739,-2.386,-2.3103,-2.2337,-2.1603,-2.1604,-2.1205,-1.7521,-1.8364,-1.9184,0.0,-2.0381,-2.125,-2.1697,-2.2854,-2.3866,-2.3926,-2.4896,-2.5865,-2.625,-2.7017,-2.7824,0.0,-2.9068,-2.9507,-2.988,-2.9905,-2.9888,-2.9888,-2.9918,-2.9996,-3.0109,-3.0323,-3.0335,-2.9945,-3.0956,-3.1411,-3.1035,-3.258,-3.322,-3.2691,-3.32,-3.2973,-3.1954,-3.1279,-3.0697,-3.0208,-3.0208,-3.0208,-3.0227,-3.1034,-3.141,-3.1372,-3.0546,-3.0208,-3.0171,-2.9833,-2.9701,-2.9701,-2.97,-2.97,-2.9701,-2.9701,-2.9701,-2.9739,-3.0114,-3.0246,-3.0377,-3.1205,-3.1487,-3.1562,-3.2052,-3.1864,-3.1412,-3.1073,-3.0641,-3.0152,-2.9793,-2.9717,-2.9735,-2.9842,-2.9895,-2.9893,-2.9907,-2.9888,-2.9661,-2.8847,-2.8048,-2.7199,-2.6269,-2.5452,-2.4917,-2.4856,-2.4917,-2.4945,-2.4931,-2.4931,-2.4917,-2.4856,-2.4346,-2.3884,-2.3526,-2.2628,-2.2144,-2.2303,-2.2669,-2.311,-2.3628,-2.4477,-2.4972,-2.505,-2.4677,-2.4555,-2.4645,-2.379,-2.2997,-2.2226,-2.1795,-2.1165,-1.9391,-2.0032,0.0,-2.1414,-2.2548,-2.3614,-2.4148,-2.524,-2.615,-2.6166,-2.6873,-2.7489,-2.7489,-2.8198,-2.8778,-2.8815,-2.9305,-2.9682,-2.9682,-2.9682,-2.9664,-2.9664,-2.9626,-2.9644,-2.9787,-2.9771,-2.9737,-2.9737,-3.0434,-3.0844,-3.0863,-3.2195,-3.2662,-3.2021,-3.2437,-3.2062,-3.0806,-3.0639,-3.0264,-2.9701,-2.9701,-2.9701,-2.972,-3.0302,-3.0584,-3.0546,-2.9945,-2.9701,-2.9701,-2.9701,-2.9701,-2.9701,-2.97,-2.97,-2.9701,-2.9701,-2.9701,-2.9701,-2.9701,-2.9701,-2.9795,-3.0377,-3.0584,-3.0678,-3.126,-3.1034,-3.0584,-3.0584,-3.0152,-2.9701,-2.97,-2.9699,-2.9735,-2.9842,-2.9725,-2.9569,-2.9566,-2.9393,-2.8995,-2.818,-2.7536,-2.6854,-2.5924,-2.5281,-2.487,-2.4808,-2.4889,-2.4917,-2.487,-2.4856,-2.4827,-2.4783,-2.3941,-2.333,-2.3159,-2.184,-2.117,-2.158,-2.2045,-2.258,-2.321,-2.4289,-2.4884,-2.4964,-2.4745,-2.467,-2.4733,-2.3923,-2.3108,-2.2326,-2.1797,-2.1105,-2.0027,-2.0384,-2.109,-2.3493,-2.4137,-2.4598,-2.6319,-2.6727,-2.6802,-2.6859,-2.7567,-2.8184,-2.8241,-2.8932,-2.9474,-2.957,-2.9492,-2.9412,-2.9412,-2.9353,-2.9314,-2.9314,-2.9314,-2.9314,0.0,-2.9492,-2.9607,-2.9607,-3.0278,-3.0725,-3.08,-3.1586,-3.2016,-3.1998,-3.1192,-3.0783,-3.0787,-3.0038,-2.9664,-2.9701,-2.9701,-2.9701,-2.9701,-2.972,-2.9739,-2.9739,-2.9701,-2.9701,-2.9701,-2.9701,-2.9701,-2.9701,-2.97,-2.9699,-2.9699,-2.9699,-2.97,-2.9701,-2.9701,-2.9701,-2.9701,-2.972,-2.9739,-2.9739,-2.9758,-2.9758,-2.9739,-2.9739,-2.972,-2.9701,-2.9701,-2.9756,-2.9808,-2.9808,-2.9271,-2.8733,-2.8733,-2.8123,-2.7323,-2.6451,-2.6261,-2.5963,-2.5088,-2.4917,-2.487,-2.4808,-2.4794,-2.4813,-2.4794,-2.4753,-2.4707,-2.4707,-2.3914,-2.3079,-2.2322,-2.148,-2.0669,-1.9907,-2.1392,-2.2322,-2.234,-2.3931,-2.4823,-2.4898,-2.4142,-2.3771,-2.3834,-2.2973,-2.2163,-2.1445,-2.1426,-2.1013,-2.0047,-2.077,-2.1698,-2.3599,-2.4901,-2.6023,-2.7126,-2.7893,-2.8344,-2.8344,-2.863,-2.8878,-2.8878,-2.9122,-2.9307,-2.9328,-2.9307,-2.9265,-2.9265,-2.9246,-2.9225,-2.9225,-2.9225,0.0,0.0,0.0,0.0,-2.9388,-3.0111,-3.0575,-3.0593,-3.1399,-3.1607,-3.1107,-3.0831,-3.0441,-2.9883,-2.97,-2.9588,-2.9569,-2.9607,-2.9664,-2.9701,-2.9701,-2.9701,-2.9701,-2.9701,-2.9701,-2.9701,-2.9701,-2.9701,-2.9701,-2.97,-2.97,-2.9701,-2.9699,-2.9699,-2.97,-2.9701,-2.9682,-2.97,-2.9701,-2.9701,-2.9701,-2.9701,-2.9701,-2.9701,-2.9701,-2.9701,-2.9701,-2.97,-2.9323,-2.8944,-2.8992,-2.8385,-2.7781,-2.7831,-2.7588,-2.7119,-2.6288,-2.6136,-2.5857,-2.4974,-2.4823,-2.4827,-2.4802,-2.4802,-2.4787,-2.4738,-2.4676,-2.4629,-2.4629,-2.3852,-2.3235,-2.3015,-2.2266,-2.17,-2.1478,-2.2487,-2.3103,-2.3103,-2.4204,-2.4553,-2.3983,-2.3793,-2.3423,-2.288,-2.2083,-2.1589,-2.1308,-2.0795,-2.043,-2.0785,-2.1476,-2.2405,-2.4314,-2.5615,-2.6699,-2.7812,-2.8539,-2.8998,-2.9021,-2.885,-2.871,-2.8732,-2.8492,-2.8381,-2.8655,-2.8688,-2.8758,-2.9052,-2.9089,-2.9089,-2.913,-2.9112,-2.9112,0.0,0.0,0.0,-2.9262,-2.9743,-3.0039,-3.0061,-3.0605,-3.0665,-3.0206,-3.0209,-2.9969,-2.9412,-2.9491,-2.9531,-2.9492,-2.9588,-2.9626,-2.9683,-2.9701,-2.9701,-2.9701,-2.9701,-2.9701,-2.9701,-2.9701,-2.9701,-2.9701,-2.97,-2.97,-2.9701,-2.9699,-2.9717,-2.9717,-2.9719,-2.97,-2.9643,-2.9362,-2.9476,-2.9645,-2.9326,-2.9457,-2.9701,-2.9701,-2.9701,-2.9645,-2.9325,-2.8872,-2.8437,-2.8202,-2.7484,-2.688,-2.6934,-2.6654,-2.6261,-2.5752,-2.5638,-2.5454,-2.4907,-2.4798,-2.4783,-2.4772,-2.4776,-2.4745,-2.4711,-2.4647,-2.4599,-2.4599,-2.3836,-2.3347,-2.3409,-2.266,-2.2224,-2.2304,-2.3055,-2.337,-2.3074,-2.3892,-2.3944,-2.3093,-2.2865,-2.2508,-2.1972,-2.1199,-2.0836,-2.0819,-2.0337,-2.0144,-2.2135,-2.2491,-2.3169,-2.5547,-2.6177,-2.664,-2.8221,-2.8609,-2.87,-2.8753,-2.8219,-2.7754,0.0,0.0,-2.6914,-2.7603,-2.7702,-2.7949,-2.8722,-2.8868,-2.8929,0.0,0.0,0.0,0.0,0.0,0.0,-2.9178,0.0,-2.9218,-2.9302,-2.9302,-2.9323,-2.9386,-2.9407,-2.9409,-2.9392,-2.9392,-2.9433,-2.9492,-2.955,-2.9588,-2.9588,-2.9664,-2.9683,-2.9701,-2.9701,-2.9701,-2.9701,-2.9701,-2.9701,-2.9701,-2.97,-2.9699,-2.9699,-2.9699,-2.9754,-2.9771,-2.9661,-2.968,-2.9585,-2.8758,-2.9005,-2.9476,-2.8595,-2.8932,-2.957,-2.957,-2.957,-2.9382,-2.8538,-2.8366,-2.8175,-2.742,-2.6626,-2.6019,-2.6019,-2.5378,-2.4779,-2.4779,-2.4779,-2.4779,-2.4779,-2.4802,-2.4757,-2.4707,-2.4679,-2.4682,-2.4682,-2.465,-2.4599,-2.4599,-2.3923,-2.3472,-2.3468,-2.272,-2.2299,-2.2361,-2.3036,-2.3093,-2.2323,-2.3018,-2.3065,-2.2246,-2.15,-2.1123,-2.114,-2.0364,-2.0,-2.0001,-2.0069,-2.0145,-2.2071,-2.2428,-2.2962,-2.4766,-2.5221,-2.552,-2.6537,-2.6801,-2.689,-2.6941,-2.6845,-2.6761,-2.6779,0.0,0.0,-2.6743,-2.725,0.0,-2.7972,-2.8521,0.0,-2.8994,0.0,-2.8994,-2.8994,-2.8994,0.0,0.0,-2.9108,-2.9112,-2.9152,-2.9259,-2.9302,-2.9323,-2.9386,-2.9407,-2.9388,-2.9388,-2.9431,-2.9492,-2.9453,-2.9491,-2.9531,-2.9589,-2.9626,-2.9626,-2.9683,-2.9701,-2.9701,-2.9701,-2.9701,-2.9701,-2.9701,-2.9701,-2.9701,-2.9701,-2.97,-2.9642,-2.9003,-2.9228,-2.9639,-2.8776,-2.8645,-2.8647,-2.7768,-2.7655,-2.7843,-2.7843,-2.7843,-2.7786,-2.7561,-2.7071,-2.6599,-2.6373,-2.5681,-2.5048,-2.5048,-2.4845,-2.4645,-2.4645,-2.4695,-2.4695,-2.4645,-2.4692,-2.4692,-2.4647,-2.4631,-2.4615,-2.4615,-2.4615,-2.458,-2.4528,-2.4428,-2.4382,-2.4364,-2.3626,-2.3187,-2.3187,-2.2811,-2.2511,-2.2304,-2.2492,-2.2224,-2.1424,-2.1199,-2.0809,-2.0221,-2.008,-2.0,-2.0001,-2.0069,-2.0146,-2.2516,-2.2772,-2.3205,-2.4444,-2.4795,-2.508,-2.5853,-2.5834,-2.576,-2.6172,-2.5746,-2.5412,-2.5758,-2.5543,-2.5455,0.0,0.0,0.0,-2.7543,-2.8036,-2.8503,0.0,-2.8994,0.0,-2.8994,-2.8994,-2.8994,0.0,-2.904,-2.9085,-2.9089,-2.9175,-2.9218,-2.9262,-2.9283,-2.9344,-2.9365,-2.9386,-2.9409,-2.9451,-2.9412,-2.9412,-2.9453,-2.9531,-2.955,-2.955,-2.9607,-2.9626,-2.9664,-2.9664,-2.9664,-2.9664,-2.9288,-2.9138,-2.9082,-2.8707,-2.8556,-2.848,-2.8048,-2.8216,-2.8477,-2.7667,-2.7631,-2.773,-2.6887,-2.6889,-2.7153,-2.7153,-2.7153,-2.7078,-2.6684,-2.6253,-2.5822,-2.5466,-2.5019,-2.4666,-2.4666,-2.4615,-2.4615,-2.465,-2.4663,-2.4698,-2.4666,-2.4679,-2.4676,-2.4615,-2.4615,-2.4631,-2.4599,-2.4599,-2.4599,-2.4547,-2.4329,-2.417,-2.417,-2.3431,-2.2971,-2.2971,-2.2571,-2.219,-2.1827,-2.1821,-2.1438,-2.062,-2.0618,-2.0395,-1.9945,-1.9998,-2.0039,-2.004,-2.0079,-2.0127,-2.306,-2.3241,-2.3561,-2.426,-2.4534,-2.4771,-2.538,-2.5015,-2.4743,-2.5407,-2.4476,-2.378,-2.4493,-2.4172,-2.4028,-2.4678,0.0,-2.5586,-2.7055,-2.7479,-2.7908,-2.8737,-2.892,-2.8994,-2.8994,-2.8994,-2.8994,-2.8994,-2.8994,-2.904,-2.9067,-2.9108,-2.9112,-2.92,-2.92,-2.924,-2.9302,-2.9365,-2.9386,-2.9407,-2.939,-2.9392,-2.9392,-2.9453,-2.9492,-2.9492,-2.938,-2.9382,-2.9439,-2.9326,-2.9308,-2.9288,-2.8519,-2.8238,-2.8144,-2.7378,-2.7098,-2.7079,-2.6967,-2.6929,-2.6834,-2.6204,-2.6416,-2.6779,-2.5957,-2.6202,-2.6764,-2.6764,-2.6764,-2.6596,-2.5831,-2.5627,-2.5441,-2.4748,-2.4599,-2.4582,-2.4599,-2.458,-2.4615,-2.4666,-2.4695,-2.4711,-2.4682,-2.4695,-2.4676,-2.4596,-2.4556,-2.4498,-2.4431,-2.4431,-2.4447,-2.4447,-2.378,-2.3351,-2.3351,-2.2595,-2.2152,-2.2152,-2.2111,-2.1771,-2.1065,-2.1043,-2.0725,-2.0034,-1.9998,-2.0009,-2.0009,-2.0068,-2.0107,-2.0107,-2.0098,-2.0098,-2.2902,-2.3168,-2.33,-2.3537,-2.362,-2.3524,-2.3119,-2.293,0.0,-2.2242,-2.1978,-2.1873,-2.2018,-2.2528,-2.2964,-2.3089,-2.4197,-2.5161,-2.5561,-2.6767,-2.7707,0.0,-2.8613,-2.8994,-2.8994,-2.8994,0.0,0.0,-2.8994,-2.9017,-2.9017,-2.9085,-2.9112,-2.92,-2.92,-2.924,-2.9302,-2.9323,-2.9344,-2.9407,-2.9407,-2.9388,-2.9388,-2.9411,-2.9412,-2.9395,-2.8763,-2.8559,-2.854,-2.7828,-2.7583,-2.7617,-2.7414,-2.734,-2.7321,-2.7174,-2.71,-2.7006,-2.6278,-2.6035,-2.5998,-2.5935,-2.6008,-2.5953,-2.5099,-2.4933,-2.5045,-2.5045,-2.4993,-2.4939,-2.4841,-2.4735,-2.461,-2.4549,-2.4532,-2.4515,-2.453,-2.4564,-2.4599,-2.4615,-2.466,-2.4676,-2.4631,-2.4711,-2.4726,-2.4528,-2.402,-2.359,-2.3526,-2.3571,-2.3603,-2.3603,-2.2951,-2.2511,-2.2511,-2.1768,-2.1311,-2.1311,-2.0696,-2.0271,-2.0123,-2.0186,-2.0171,-2.0088,-2.003,-2.002,-2.0078,-2.0088,-2.0107,-2.0107,-2.0098,-2.0126,-2.2076,-2.2408,-2.2658,-2.3159,-2.3336,-2.3234,-2.2504,0.0,0.0,-2.1317,-2.0963,-2.0859,-2.1311,-2.1765,0.0,-2.2616,-2.3324,-2.4145,-2.5069,-2.5874,-2.6702,-2.7695,-2.8136,-2.8539,-2.8957,-2.8994,-2.8994,-2.8994,-2.8994,-2.8994,-2.8994,-2.904,-2.9044,-2.9089,-2.9112,-2.9178,-2.924,-2.8817,-2.8656,-2.8719,-2.831,-2.8106,-2.8106,-2.8107,-2.8107,-2.807,-2.7736,-2.7606,-2.7643,-2.7214,-2.71,-2.7098,-2.6612,-2.6427,-2.6371,-2.5909,-2.5742,-2.5686,-2.5187,-2.5003,-2.5021,-2.5075,-2.511,-2.5088,-2.4627,-2.4481,-2.4445,-2.4445,-2.4428,-2.4392,-2.4428,-2.441,-2.4356,-2.4393,-2.4446,-2.4498,-2.4495,-2.458,-2.465,-2.465,-2.4695,-2.4726,-2.4647,-2.4745,-2.461,-2.4022,-2.3659,-2.3278,-2.2787,-2.2416,-2.2351,-2.273,-2.2116,-2.1674,-2.1668,-2.0954,-2.0488,-2.0519,-2.0202,-2.0009,-2.0059,-2.0088,-2.0144,-2.0199,-2.0134,-2.0115,-2.0153,-2.0144,-2.0155,-2.0155,-2.0143,-2.0161,-2.1125,-2.1485,-2.182,-2.2729,-2.2917,-2.2749,-2.2157,-2.1429,0.0,-2.072,-2.026,-2.0065,-2.075,-2.1078,-2.1459,0.0,-2.2473,-2.3148,-2.4504,-2.4981,-2.5737,0.0,-2.7585,0.0,-2.8686,-2.8741,0.0,-2.8741,-2.8594,-2.8576,-2.8741,-2.8741,-2.8645,-2.848,-2.8548,-2.8596,-2.8664,-2.8059,-2.7785,-2.7845,-2.7213,-2.6916,-2.6916,-2.6916,-2.6916,-2.6897,-2.673,-2.6674,-2.673,-2.6544,-2.6505,-2.6484,-2.5795,-2.5517,-2.5442,-2.4723,-2.4465,-2.4429,-2.4339,-2.4284,-2.4284,-2.4284,-2.4358,-2.4447,-2.4375,-2.4339,-2.4284,-2.4284,-2.4284,-2.4284,-2.4303,-2.4303,-2.4284,-2.4303,-2.4411,-2.4498,-2.453,-2.4465,-2.4436,-2.4436,-2.4366,-2.4264,-2.4204,-2.4249,-2.4038,-2.3281,-2.3064,-2.2736,-2.2051,-2.1317,-2.1079,-2.1668,-2.1192,-2.0828,-2.0847,-2.0285,-1.9941,-2.0012,-2.0038,-2.0108,-2.0173,-2.0186,-2.0227,-2.0289,-2.0254,-2.0208,-2.0208,-2.0222,-2.0225,-2.0225,-2.0222,-2.0219,-2.0332,-2.061,-2.0877,-2.1937,-2.171,-2.1231,-2.1212,0.0,-1.9914,-1.9255,-1.9058,-1.9057,-1.9182,-1.9867,-2.0427,-2.0518,-2.1733,-2.2771,-2.2975,-2.433,-2.5358,-2.5585,0.0,0.0,-2.7897,-2.7915,-2.7915,-2.7915,-2.7298,-2.7206,-2.786,-2.7915,-2.7585,-2.6851,-2.6893,-2.6919,-2.6925,-2.691,-2.6932,-2.7009,-2.6953,-2.6916,-2.6916,-2.6916,-2.6916,-2.686,-2.6135,-2.5837,-2.5854,-2.5054,-2.4771,-2.4823,-2.4664,-2.4628,-2.4592,-2.4394,-2.4321,-2.4321,-2.4303,-2.4284,-2.4284,-2.4229,-2.4266,-2.4321,-2.4303,-2.4303,-2.4284,-2.4284,-2.4266,-2.421,-2.4284,-2.4247,-2.4228,-2.4284,-2.441,-2.453,-2.4564,-2.4064,-2.36,-2.36,-2.3074,-2.2607,-2.2515,-2.2569,-2.2577,-2.2421,-2.1781,-2.1305,-2.1218,-2.0495,-2.007,-2.0194,-2.0093,-2.0002,-2.0002,-1.9998,-1.9982,-2.0012,-2.0009,-2.0041,-2.0115,-2.0175,-2.0238,-2.0295,-2.0301,-2.0287,-2.0287,-2.0289,-2.0285,-2.0285,-2.0285,-2.0289,-1.9241,-1.9659,-1.9964,-2.0952,-2.1075,-2.0831,-2.0456,0.0,-1.9791,-1.904,-1.8931,-1.8984,-1.9053,-1.9339,-1.9754,-2.0209,-2.0862,-2.168,-2.2703,-2.3416,-2.4241,-2.5273,-2.6011,0.0,0.0,0.0,-2.7138,-2.7138,-2.6882,-2.6624,-2.644,-2.6878,-2.6985,-2.6673,-2.6694,-2.6716,-2.6762,-2.6319,-2.6098,-2.6172,-2.5689,-2.5466,-2.5466,-2.5466,-2.5466,-2.5448,-2.5113,-2.5,-2.4982,-2.4628,-2.4498,-2.4482,-2.4447,-2.443,-2.4375,-2.4284,-2.4247,-2.4247,-2.4247,-2.4209,-2.419,-2.4134,-2.4134,-2.4134,-2.4171,-2.419,-2.419,-2.419,-2.419,-2.4209,-2.4228,-2.4228,-2.4209,-2.4284,-2.4374,-2.4348,-2.3966,-2.3671,-2.337,-2.2867,-2.2534,-2.2335,-2.2294,-2.2322,-2.216,-2.1663,-2.1318,-2.0916,-2.0443,-2.0131,-1.9966,-1.9998,-1.9977,-1.9966,-1.9969,-1.9979,-2.0009,-2.0057,-2.0098,-2.0144,-2.0233,-2.0258,-2.0288,-2.0353,-2.0366,-2.036,-2.036,-2.0353,-2.0359,-2.0359,-2.0353,-2.0366,-1.8058,-1.8608,-1.9103,-2.006,-2.0254,-2.0103,0.0,0.0,-1.9112,-1.8374,-1.8461,-1.871,-1.8759,-1.8972,-1.9315,-1.9879,-2.0223,-2.0841,-2.2026,-2.2612,-2.3363,-2.4539,0.0,-2.5702,-2.6293,-2.635,-2.6259,-2.6019,-2.6001,-2.5762,-2.5189,-2.5686,-2.5998,-2.5978,-2.5998,-2.6037,-2.6078,-2.556,-2.5301,-2.5336,-2.4778,-2.45,-2.45,-2.45,-2.45,-2.45,-2.45,-2.45,-2.45,-2.4482,-2.4447,-2.4394,-2.4358,-2.4303,-2.4266,-2.421,-2.4191,-2.4191,-2.419,-2.4151,-2.4094,-2.4074,-2.4034,-2.3976,-2.4016,-2.4036,-2.4074,-2.4074,-2.4094,-2.4151,-2.417,-2.417,-2.4116,-2.3971,-2.4004,-2.3849,-2.3167,-2.2884,-2.2586,-2.2023,-2.1712,-2.1556,-2.1548,-2.1574,-2.1393,-2.0828,-2.0759,-2.055,-1.999,-1.9969,-2.0019,-2.0049,-2.0068,-2.0049,-2.003,-2.0021,-2.005,-2.0098,-2.0155,-2.0208,-2.0265,-2.0313,-2.0347,-2.0396,-2.0402,-2.0402,-2.0402,-2.0404,-2.0392,-2.0411,-2.0404,-2.0255,-1.6877,-1.7504,-1.8345,-1.9363,-1.9099,-1.8635,-1.8696,-1.8199,-1.7516,-1.6774,-1.7302,-1.7926,-1.7993,-1.8658,-1.9202,-1.9202,-1.9943,-2.0506,-2.0525,-2.1951,-2.3015,0.0,0.0,-2.55,-2.5502,-2.5522,-2.5189,-2.4377,-2.4394,-2.4394,-2.4321,-2.4376,-2.4394,-2.434,-2.4394,-2.4413,-2.4413,-2.4483,-2.4518,-2.4518,-2.45,-2.45,-2.45,-2.45,-2.45,-2.45,-2.45,-2.45,-2.45,-2.443,-2.4394,-2.4394,-2.4266,-2.421,-2.4192,-2.4209,-2.419,-2.419,-2.4113,-2.4094,-2.4094,-2.4016,-2.3955,-2.3896,-2.3896,-2.3937,-2.3996,-2.3996,-2.3996,-2.4016,-2.4094,-2.4094,-2.3931,-2.3271,-2.3154,-2.2996,-2.2271,-2.1536,-2.1009,-2.1009,-2.0358,-1.9837,-1.9837,-1.988,-1.9915,-1.9919,-1.9919,-1.9934,-1.9991,-2.0001,-2.005,-2.0183,-2.0192,-2.0174,-2.0098,-2.0098,-2.0088,-2.0088,-2.0162,-2.0195,-2.0208,-2.0327,-2.0398,-2.0394,-2.041,-2.0395,-2.0395,-2.0399,-2.0408,-2.041,-2.041,-1.9945,-1.5916,-1.6338,-1.6693,-1.7051,-1.7043,-1.6976,-1.7099,-1.7037,-1.6882,-1.6709,-1.6896,-1.7103,-1.7169,-1.7881,-1.8456,-1.8456,-1.9213,-2.001,0.0,0.0,0.0,-2.2182,-2.275,-2.3355,0.0,0.0,-2.4182,-2.4478,-2.4532,-2.4515,-2.4426,-2.4462,-2.4428,-2.4358,-2.4394,-2.443,-2.4465,-2.4482,-2.45,-2.45,-2.45,-2.45,-2.45,-2.45,-2.45,-2.45,-2.45,-2.4482,-2.443,-2.4412,-2.4339,-2.4266,-2.421,-2.4154,-2.4114,-2.4133,-2.4094,-2.4074,-2.4036,-2.3996,-2.3976,-2.3937,-2.3551,-2.3073,-2.3073,-2.3476,-2.3828,-2.3321,-2.3195,-2.3067,-2.2519,-2.2429,-2.2429,-2.2259,-2.2305,-2.2163,-2.1369,-2.1069,-2.0773,-2.0212,-1.9907,-1.9732,-1.9738,-1.9751,-1.9788,-1.9896,-1.9889,-1.9915,-1.9991,-2.003,-2.0079,-2.0117,-2.0164,-2.0192,-2.0173,-2.0162,-2.018,-2.0178,-2.0241,-2.0273,-2.0272,-2.036,-2.0392,-2.0396,-2.0394,-2.0404,-2.0404,-2.0399,-2.0394,-2.0408,-2.0408,-1.9937,0.0,-1.5639,-1.5955,-1.6062,-1.615,0.0,-1.6013,-1.6084,-1.6114,-1.5835,-1.6082,-1.6351,-1.6383,-1.7348,-1.8139,-1.8139,-1.89,-1.9667,0.0,0.0,0.0,-2.1842,-2.1999,0.0,0.0,-2.3182,-2.3612,-2.4113,-2.4431,-2.4564,-2.4512,-2.4495,-2.4479,-2.4412,-2.443,-2.4447,-2.4465,-2.4482,-2.45,-2.45,-2.4482,-2.4465,-2.4465,-2.4447,-2.4447,-2.4465,-2.4447,-2.443,0.0,-2.4339,-2.4284,-2.4191,-2.4172,-2.4114,-2.4074,-2.4036,-2.3996,-2.3901,-2.359,-2.344,-2.3345,-2.3037,-2.2618,-2.2218,-2.2236,-2.2602,-2.2895,-2.2444,-2.2317,-2.219,-2.168,-2.1607,-2.1606,-2.1414,-2.1422,-2.1297,-2.0517,-2.0406,-2.0303,-1.9798,-1.9699,-1.9707,-1.9732,-1.977,-1.9818,-1.9908,-1.9941,-1.9947,-1.9991,-2.003,-2.0069,-2.0098,-2.0145,-2.0173,-2.0188,-2.0225,-2.0241,-2.0238,-2.0289,-2.0299,-2.0308,-2.0354,-2.0398,-2.041,-2.0408,-2.0394,-2.0394,-2.0408,-2.0233,-1.9904,-1.9918,-1.9287,0.0,-1.5263,-1.5889,-1.601,-1.6093,-1.5995,-1.5363,-1.5332,0.0,-1.4469,-1.5001,-1.5631,-1.5613,-1.6988,-1.8116,-1.8135,-1.8906,-1.9497,0.0,-2.0159,0.0,0.0,-2.1894,-2.1958,-2.2006,-2.2768,-2.3291,-2.3388,-2.4094,-2.4508,-2.4512,-2.4495,-2.4479,-2.4394,-2.4465,-2.4465,-2.4394,-2.4465,-2.45,-2.45,-2.443,-2.4394,-2.4375,-2.4321,-2.4339,-2.4394,-2.4321,-2.4339,-2.4376,-2.4247,-2.4191,-2.417,-2.4113,-2.4036,-2.3976,-2.3862,-2.3806,-2.3676,-2.2795,-2.2522,-2.2357,-2.1506,-2.1273,-2.1312,-2.1314,-2.1423,-2.1495,-2.1441,-2.1423,-2.1387,-2.1352,-2.1389,-2.1278,-2.0662,-2.0557,-2.043,-1.9755,-1.966,-1.9686,-1.9686,-1.9707,-1.9713,-1.9776,-1.9868,-1.9908,-1.9982,-1.9996,-2.0009,-2.0001,-2.0001,-2.0011,-2.0088,-2.0098,-2.0135,-2.0188,-2.0269,-2.0292,-2.0292,-2.0294,-2.0308,-2.0308,-2.0372,-2.0365,-2.0307,-2.0247,-2.0219,-2.0219,-2.0222,-1.9809,-1.9016,-1.9018,-1.8142,-1.3225,0.0,-1.4473,-1.4503,-1.462,-1.4661,0.0,-1.456,-1.4611,-1.4477,0.0,-1.4795,-1.4848,-1.6225,-1.7374,-1.7436,-1.867,-1.9647,-1.9647,-1.9833,0.0,-2.022,-2.0311,-2.0581,-2.1204,-2.1489,-2.2126,-2.3303,-2.3584,-2.3908,-2.4474,-2.4495,-2.4462,-2.4339,-2.4394,-2.4412,-2.4394,-2.4412,-2.443,-2.443,-2.4412,-2.4339,-2.4247,-2.4284,-2.4284,-2.4247,-2.4284,-2.4284,-2.4247,-2.4209,-2.4113,-2.3976,-2.3937,-2.3894,-2.3777,-2.3141,-2.2865,-2.2697,-2.1884,-2.1614,-2.147,-2.0658,-2.0425,-2.0372,-1.9759,-2.0481,-2.1369,-2.0753,-2.059,-2.0445,-1.9829,-1.9699,-1.9746,-1.9638,-1.9696,-1.9752,-1.962,-1.962,-1.9628,-1.9628,-1.9662,-1.9726,-1.9794,-1.9861,-1.9919,-1.9996,-1.9998,-2.0009,-2.0001,-2.0001,-2.0011,-2.0011,-2.0069,-2.0126,-2.0182,-2.0205,-2.0254,-2.0299,-2.0294,-2.0314,-2.0379,-2.0386,-2.0095,-1.9424,-1.8753,-1.8405,-1.8405,-1.8399,-1.8302,-1.8109,-1.8103,-1.7562,-1.283,-1.3497,-1.4109,-1.4136,-1.4229,-1.4301,-1.4338,0.0,0.0,0.0,0.0,0.0,0.0,0.0,0.0,-1.6634,-1.7718,0.0,0.0,0.0,-1.9238,-1.9656,-1.9732,-1.9932,-2.0401,-2.0827,-2.1408,-2.2248,-2.2967,-2.3553,-2.3934,-2.4292,-2.4428,-2.4303,-2.4321,-2.4137,-2.3749,-2.3803,-2.3618,-2.3248,-2.3212,-2.316,-2.3088,-2.3088,-2.3088,-2.3052,-2.307,-2.3052,-2.3052,-2.3033,-2.292,-2.2786,-2.2727,-2.2666,-2.2548,-2.2075,-2.189,-2.1744,-2.0936,-2.0455,-2.008,-1.9649,-1.9542,-1.9507,-1.9092,-1.9579,-2.0228,-1.9848,-1.9739,-1.9648,-1.9214,-1.9153,-1.9216,-1.9274,-1.9402,-1.953,-1.9587,-1.9606,-1.9614,-1.9641,-1.9688,-1.9775,-1.9835,-1.9892,-1.9966,-1.999,-2.0029,-2.0029,-2.0,-2.0,-1.9848,-1.9449,-1.9459,-1.9373,-1.9035,-1.9038,-1.94,-2.0255,-1.9953,-1.9774,-1.9799,-1.9418,-1.8993,-1.8509,-1.8045,-1.7794,-1.7794,-1.7794,-1.76,-1.7252,-1.7252,-1.6793,-1.2561,-1.3412,-1.4113,-1.4282,-1.4393,-1.4464,-1.4529,0.0,0.0,0.0,0.0,0.0,0.0,-1.5442,0.0,0.0,0.0,0.0,-1.8323,-1.8528,-1.8896,-1.9638,-1.9726,-1.9726,-1.9776,-2.042,-2.0862,-2.0961,-2.2223,-2.3033,-2.3082,-2.3849,-2.4244,-2.4118,-2.4045,-2.3621,-2.2793,-2.2975,-2.2678,-2.1884,-2.1834,-2.1783,-2.1768,-2.1715,-2.1679,-2.166,-2.1607,-2.1625,-2.1643,-2.1571,-2.1515,-2.1439,-2.1324,-2.1227,-2.1149,-2.098,-2.0886,-2.0779,-1.9974,-1.9283,-1.8769,-1.8769,-1.8824,-1.8878,-1.8878,-1.8895,-1.893,-1.9053,-1.9087,-1.9087,-1.9104,-1.917,-1.9232,-1.9308,-1.942,-1.9545,-1.9583,-1.962,-1.9641,-1.9699,-1.977,-1.9854,-1.9904,-1.996,-2.0001,-2.0011,-2.0059,-2.0068,-2.0009,-1.9884,-1.9523,-1.8783,-1.865,-1.8335,-1.7677,-1.7669,-1.8335,-1.9805,-1.9278,-1.8911,-1.8904,-1.8059,-1.7595,-1.7595,-1.7484,-1.7426,-1.7426,-1.7426,-1.7059,-1.6406,-1.6406,-1.6,-1.1196,-1.2364,-1.3676,-1.4304,-1.4563,-1.4651,-1.468,0.0,0.0,0.0,0.0,0.0,0.0,-1.5573,-1.6168,0.0,0.0,-1.8411,0.0,0.0,-1.9632,-1.9776,-1.9782,-1.9763,-1.9726,-1.9876,-2.0212,-2.0796,-2.1053,-2.147,-2.208,-2.293,-2.3341,-2.3199,-2.318,-2.274,-2.1826,-2.261,-2.2608,-2.1815,-2.1801,-2.1732,-2.1625,-2.1625,-2.1589,-2.1515,-2.1515,-2.1478,-2.1441,-2.1365,-2.1305,-2.124,-2.1164,-2.1084,-2.0951,-2.0256,-2.0007,-1.9881,-1.9064,-1.8728,-1.8641,-1.8641,-1.8715,-1.8806,-1.8824,-1.8843,-1.8913,-1.8984,-1.9019,-1.9018,-1.9101,-1.92,-1.9298,-1.9375,-1.9497,-1.9583,-1.9587,-1.9699,-1.9763,-1.9782,-1.9892,-1.9963,-1.9977,-2.0,-2.003,-2.0078,-2.0059,-2.002,-1.9998,-1.94,-1.8935,-1.8802,-1.8173,-1.7767,-1.77,-1.7684,-1.7809,-1.8075,-1.8037,-1.7998,-1.8011,-1.7167,-1.6709,-1.6709,-1.6029,-1.5671,-1.5671,-1.5671,-1.5613,-1.5497,-1.5497,-1.542,-1.1456,-1.2304,-1.3207,-1.4466,-1.4766,-1.4776,-1.486,0.0,0.0,0.0,0.0,0.0,0.0,0.0,-1.5584,-1.5505,0.0,-1.6891,-1.7731,-1.8177,-1.8733,-1.9645,-1.9707,-1.9675,-1.9649,-1.9641,-1.9768,-2.007,-2.0515,-2.0893,-2.1235,-2.2015,-2.2425,-2.2354,-2.2282,-2.1826,-2.0951,-2.1368,-2.1183,-2.0413,-2.0415,-2.0346,-2.0242,-2.0244,-2.0209,-2.0138,-2.012,-2.0083,-2.0028,-1.9935,-1.9878,-1.9838,-1.9739,-1.9699,-1.9644,-1.9253,-1.9112,-1.9096,-1.8686,-1.8565,-1.8603,-1.8601,-1.8658,-1.8752,-1.8752,-1.8825,-1.8914,-1.8966,-1.9036,-1.9052,-1.9082,-1.9214,-1.9326,-1.9368,-1.9508,-1.9611,-1.9655,-1.9719,-1.982,-1.9856,-1.9938,-2.0004,-1.9998,-2.0029,-1.9897,-1.9468,-1.9364,-1.9192,-1.8716,-1.8365,-1.7974,-1.7496,-1.714,-1.677,-1.6328,-1.6303,-1.6516,-1.7023,-1.7074,-1.6894,-1.6411,-1.6011,-1.5805,-1.5854,-1.5497,-1.5294,-1.5303,-1.5303,-1.5303,-1.5303,-1.5303,-1.5299,-1.1728,-1.233,-1.2877,-1.4363,-1.4806,-1.4909,-1.5003,-1.5011,0.0,0.0,0.0,0.0,0.0,-1.525,0.0,-1.5211,-1.5517,-1.6185,-1.7408,-1.77,-1.8242,-1.9524,-1.9614,-1.9569,-1.9555,-1.9513,-1.9471,-1.9456,-2.0052,-2.0406,-2.0375,-2.1084,-2.1475,-2.1458,-2.1352,-2.0988,-2.0334,-2.0134,-1.9769,-1.9202,-1.9184,-1.915,-1.9101,-1.9069,-1.9019,-1.8949,-1.8878,-1.8843,-1.8824,-1.8696,-1.8641,-1.8622,-1.8505,-1.8465,-1.8522,-1.8465,-1.8502,-1.854,-1.8502,-1.8524,-1.8601,-1.8598,-1.8657,-1.8715,-1.8715,-1.8681,-1.8662,-1.873,-1.8636,-1.861,-1.8804,-1.8935,-1.9004,-1.8892,-1.8957,-1.9074,-1.9139,-1.9188,-1.9242,-1.93,-1.9374,-1.9416,-1.9399,-1.9458,-1.925,-1.8593,-1.8498,-1.826,-1.7595,-1.7375,-1.7039,-1.6365,-1.617,-1.5828,-1.5159,-1.5095,-1.5389,-1.6131,-1.6164,-1.5862,-1.5201,-1.5193,-1.5224,-1.5284,-1.5289,-1.5279,-1.5275,-1.5275,-1.5275,-1.5275,-1.5275,-1.5284,-1.113,-1.1976,-1.2813,-1.3742,-1.452,0.0,-1.508,-1.5087,0.0,-1.5082,0.0,0.0,0.0,-1.5704,-1.6187,-1.6119,-1.7356,-1.8354,-1.8409,-1.9001,-1.9465,-1.9596,-1.956,-1.9485,-1.9423,-1.9409,-1.938,-1.932,-1.949,-1.9531,-1.9423,-2.0173,-2.0546,-2.0427,-2.0408,-2.0318,-2.0119,-1.9381,-1.9071,-1.9202,-1.915,-1.9101,-1.9104,-1.8966,-1.8878,-1.8806,-1.8734,-1.8677,-1.8635,-1.8542,-1.8485,-1.8406,-1.8348,-1.831,-1.831,-1.831,-1.8348,-1.8406,-1.8406,-1.8483,-1.8598,-1.8596,-1.8694,-1.8788,-1.8788,-1.8376,-1.79,-1.7962,-1.7478,-1.7136,-1.7958,-1.8231,-1.8116,-1.7423,-1.7372,-1.7472,-1.7457,-1.7533,-1.7565,-1.7583,-1.7624,-1.7672,-1.7681,-1.768,-1.7669,-1.7612,-1.7584,-1.7575,-1.7509,-1.6842,-1.6372,-1.6308,-1.5635,-1.5171,-1.512,-1.5052,-1.5068,-1.52,-1.521,-1.5165,-1.5107,-1.5171,-1.5195,-1.5214,-1.521,-1.5206,-1.5206,-1.5206,-1.5206,-1.5206,-1.5206,-1.522,-1.1791,-1.2401,-1.2992,-1.4415,-1.4995,0.0,0.0,-1.5157,-1.5157,-1.5163,-1.5151,0.0,0.0,0.0,-1.6459,-1.6923,-1.7459,-1.7945,-1.8379,-1.8639,-1.8957,-1.9419,-1.9413,-1.9368,-1.9341,-1.9341,-1.9311,-1.923,-1.9329,-1.9347,-1.9251,-1.9476,-1.9608,-1.9558,-1.9469,-1.9416,-1.9363,-1.9039,-1.893,-1.9017,-1.8982,-1.8982,-1.8966,-1.8931,-1.8861,-1.8788,-1.8676,-1.8581,-1.8463,-1.8365,-1.8304,-1.826,-1.8246,-1.8266,-1.8301,-1.8307,-1.8348,-1.8406,-1.8445,-1.8522,-1.8616,-1.8657,-1.8715,-1.8717,-1.827,-1.7997,-1.777,-1.7336,-1.7045,-1.6936,-1.727,-1.743,-1.7466,-1.7213,-1.724,-1.7307,-1.7342,-1.7375,-1.7415,-1.7453,-1.7482,-1.7501,-1.7492,-1.7501,-1.7319,-1.677,-1.6738,-1.6557,-1.6018,-1.5727,-1.5533,-1.5506,-1.5221,-1.5049,-1.5049,-1.4976,-1.496,-1.503,-1.5049,-1.5059,-1.5099,-1.5107,-1.5159,-1.5189,-1.5207,-1.4948,-1.4439,-1.4968,-1.4924,-1.439,-1.4957,-1.5176,-1.2266,-1.2738,-1.3143,-1.49,0.0,0.0,-1.5263,-1.5255,-1.5236,-1.524,-1.5204,-1.5368,-1.5894,0.0,0.0,-1.7388,-1.7796,-1.824,-1.8715,-1.8697,-1.8822,-1.932,-1.9295,-1.9248,-1.9253,-1.9253,-1.9219,-1.9184,-1.9216,-1.9235,-1.917,-1.9104,-1.9053,-1.9054,-1.8949,-1.8896,-1.8878,-1.8843,-1.8843,-1.8843,-1.8825,-1.8825,-1.8878,-1.8843,-1.8788,-1.8695,-1.8617,-1.848,-1.8322,-1.8243,-1.8176,-1.813,-1.8159,-1.8218,-1.8256,-1.8284,-1.8345,-1.8406,-1.8465,-1.8542,-1.8584,-1.8412,-1.8396,-1.8324,-1.7568,-1.7269,-1.707,-1.6547,-1.63,-1.6151,-1.6171,-1.6454,-1.6675,-1.6485,-1.6485,-1.652,-1.6591,-1.6611,-1.6612,-1.6678,-1.6687,-1.6687,-1.6678,-1.6687,-1.6477,-1.5872,-1.5858,-1.5665,-1.5079,-1.5046,-1.5034,-1.4984,-1.496,-1.4971,-1.4971,-1.4938,-1.493,-1.4963,-1.4971,-1.4992,-1.5071,-1.508,-1.5114,-1.5165,-1.4928,-1.4511,-1.3964,-1.4242,-1.4063,-1.3506,-1.4353,-1.4724,-1.2315,-1.2787,-1.322,0.0,0.0,0.0,-1.5396,-1.5342,-1.5293,-1.5304,-1.5257,-1.5184,-1.512,-1.6418,0.0,-1.7424,-1.8685,-1.9669,-1.9596,-1.9475,-1.9375,-1.9316,-1.917,-1.9087,-1.9087,-1.9087,-1.9086,-1.9099,-1.9099,-1.9101,-1.9087,-1.9036,-1.8967,-1.8896,-1.8896,-1.8878,-1.8788,-1.8715,-1.8697,-1.8697,-1.8623,-1.8659,-1.8788,-1.8733,-1.8622,-1.8485,-1.8485,-1.8383,-1.8211,-1.819,-1.8108,-1.8005,-1.807,-1.8151,-1.8211,-1.8274,-1.8339,-1.8406,-1.8465,-1.8545,-1.848,-1.7826,-1.7645,-1.7549,-1.6805,-1.6131,-1.5608,-1.5598,-1.5062,-1.4526,-1.4574,-1.5244,-1.5692,-1.497,-1.4794,-1.4823,-1.4887,-1.4905,-1.4895,-1.4896,-1.4886,-1.4895,-1.4896,-1.4904,-1.4911,-1.4911,-1.4955,-1.4998,-1.4998,-1.4998,-1.4963,-1.4911,-1.4894,-1.4904,-1.4904,-1.4905,-1.4895,-1.4902,-1.4911,-1.4936,-1.5008,-1.5066,-1.5094,-1.5094,-1.4309,-1.3894,-1.3882,-1.3026,-1.2599,-1.2607,-1.3398,-1.3793,-1.1581,-1.2328,0.0,-1.4192,0.0,0.0,0.0,-1.5371,0.0,0.0,-1.5243,-1.5363,-1.5919,-1.6368,-1.6988,-1.8075,-1.8556,-1.8951,-1.9453,-1.9413,-1.9292,-1.9182,-1.9119,-1.907,-1.8966,-1.9001,-1.9018,-1.8965,-1.9,-1.9,-1.8966,-1.8896,-1.8843,-1.8824,-1.8733,-1.8678,-1.8659,-1.8641,-1.8623,-1.8623,-1.8601,-1.8619,-1.8659,-1.8641,-1.8584,-1.8485,-1.8445,-1.8322,-1.8113,-1.7983,-1.7961,-1.8005,-1.8027,-1.8108,-1.8211,-1.8274,-1.8322,-1.8348,-1.8465,-1.8191,-1.779,-1.7648,-1.7269,-1.6727,-1.5976,-1.5637,-1.5433,-1.4897,-1.4635,-1.4506,-1.4526,-1.4774,-1.4947,-1.4829,-1.4794,-1.4823,-1.4887,-1.4905,-1.4904,-1.4895,-1.4895,-1.4904,-1.4895,-1.4904,-1.4904,-1.4895,-1.4923,-1.4914,-1.4868,-1.4859,-1.4841,-1.4832,-1.4832,-1.4823,-1.4823,-1.4832,-1.4859,-1.4904,-1.4947,-1.4987,-1.5008,-1.5052,-1.5106,-1.5094,-1.4252,-1.3544,-1.2971,-1.2685,-1.2229,-1.1708,-1.2509,-1.2884,-1.1267,-1.2148,0.0,-1.3882,-1.4762,-1.5407,-1.5409,0.0,0.0,0.0,-1.5257,-1.5344,-1.5797,-1.6097,-1.6563,-1.7459,-1.7753,-1.8025,-1.8448,-1.8393,-1.8246,-1.8107,-1.8079,-1.8013,-1.7928,-1.7945,-1.7945,-1.7962,-1.7945,-1.7945,-1.791,-1.7843,-1.7808,-1.7808,-1.7737,-1.7701,-1.7701,-1.7629,-1.7611,-1.7611,-1.7608,-1.7608,-1.7628,-1.8263,-1.8506,-1.8391,-1.7994,-1.7734,-1.7593,-1.7152,-1.7012,-1.7092,-1.7079,-1.7141,-1.7259,-1.7357,-1.7398,-1.7441,-1.7553,-1.731,-1.6958,-1.6723,-1.6344,-1.5857,-1.511,-1.4932,-1.4895,-1.444,-1.4393,-1.4471,-1.4499,-1.4556,-1.464,-1.4724,-1.4774,-1.4803,-1.4841,-1.4869,-1.4859,-1.4869,-1.4869,-1.4869,-1.4869,-1.4869,-1.486,-1.4851,-1.4841,-1.4813,-1.4794,-1.4784,-1.4774,-1.4794,-1.4794,-1.4803,-1.4803,-1.4823,-1.4859,-1.4904,-1.4633,-1.4491,-1.452,-1.4563,-1.4583,-1.4571,-1.3411,-1.2565,-1.2087,-1.1702,-1.126,-1.0793,-1.1617,-1.1971,-1.119,-1.2027,0.0,-1.3768,-1.4706,0.0,-1.5392,-1.5287,-1.5209,-1.5289,0.0,-1.5178,-1.5106,-1.563,-1.6083,-1.6082,-1.6586,-1.6972,-1.6984,-1.6872,-1.6751,-1.6607,-1.6532,-1.6469,-1.6385,-1.6385,-1.6417,-1.6483,-1.6435,-1.6385,-1.6385,-1.6319,-1.6286,-1.6286,-1.627,-1.6271,-1.6271,-1.615,-1.6081,-1.6081,-1.6081,-1.6098,-1.6133,-1.7605,-1.8198,-1.8046,-1.7173,-1.6804,-1.6733,-1.6001,-1.5707,-1.569,-1.5697,-1.5735,-1.5826,-1.5937,-1.6045,-1.6081,-1.6168,-1.615,-1.6008,-1.538,-1.5142,-1.4962,-1.4282,-1.4136,-1.4185,-1.4193,-1.4282,-1.4417,-1.4476,-1.4545,-1.46,-1.4672,-1.4753,-1.4793,-1.4803,-1.4794,-1.4803,-1.4803,-1.4803,-1.4803,-1.4803,-1.4803,-1.4803,-1.4793,-1.4736,-1.4707,-1.4764,-1.4724,-1.4732,-1.4774,-1.4718,-1.4672,-1.4691,-1.4672,-1.4679,-1.4678,-1.3997,-1.3631,-1.3678,-1.3691,-1.3685,-1.3685,-1.212,-1.1296,-1.1285,-1.0426,-0.9993,-1.002,-1.0739,-1.108,-1.0423,-1.1114,0.0,0.0,-1.4257,-1.5406,-1.5409,-1.4856,-1.4545,-1.5166,-1.5254,-1.5178,-1.5112,-1.5139,-1.5348,-1.5937,-1.6049,-1.6276,-1.6838,-1.6807,-1.6678,-1.6525,-1.6499,-1.6453,-1.6336,-1.6319,-1.6336,-1.6336,-1.6337,-1.6322,-1.6322,-1.6202,-1.6133,-1.6133,-1.6098,-1.6062,-1.6062,-1.5974,-1.5938,-1.5938,-1.5991,-1.6027,-1.6044,-1.643,-1.657,-1.6479,-1.6174,-1.6049,-1.6012,-1.5797,-1.5692,-1.5697,-1.5714,-1.575,-1.5805,-1.59,-1.5919,-1.5956,-1.6133,-1.5816,-1.5319,-1.5172,-1.4742,-1.4211,-1.4019,-1.398,-1.405,-1.4096,-1.4219,-1.4344,-1.4477,-1.4499,-1.4537,-1.46,-1.4674,-1.4736,-1.4793,-1.4803,-1.4803,-1.4803,-1.4803,-1.4803,-1.4803,-1.4803,-1.4783,-1.4732,-1.4664,-1.4635,-1.4635,-1.4683,-1.4703,-1.4726,-1.4157,-1.3803,-1.3839,-1.3292,-1.293,-1.2942,-1.283,-1.275,-1.277,-1.2839,-1.2857,-1.2857,-1.183,-1.1268,-1.1231,-1.0343,-0.9929,-0.9923,-1.0093,-1.0187,-1.0145,0.0,0.0,-1.2571,0.0,-1.4157,-1.416,-1.3805,-1.36,-1.3989,-1.4328,-1.4558,-1.4487,-1.4706,-1.4991,-1.5326,-1.5266,-1.5288,-1.5654,-1.5623,-1.55,-1.5321,-1.5294,-1.5251,-1.511,-1.5094,-1.5094,-1.506,-1.5062,-1.5063,-1.5047,-1.4981,-1.4931,-1.4864,-1.4831,-1.4779,-1.4762,-1.4727,-1.4692,-1.4692,-1.4744,-1.4779,-1.4882,-1.568,-1.6028,-1.5974,-1.5521,-1.5312,-1.5295,-1.4828,-1.4638,-1.4657,-1.4656,-1.4656,-1.4709,-1.4779,-1.483,-1.4864,-1.4964,-1.48,-1.4531,-1.4528,-1.4276,-1.3938,-1.3912,-1.3941,-1.4012,-1.4078,-1.4198,-1.4319,-1.4435,-1.4476,-1.4511,-1.4545,-1.4622,-1.4695,-1.4695,-1.4724,-1.4753,-1.4703,-1.4703,-1.4703,-1.4703,-1.4703,-1.4693,-1.4661,-1.4622,-1.4603,-1.4603,-1.4654,-1.4555,-1.4166,-1.3784,-1.3391,-1.3005,-1.2617,-1.2388,-1.2339,-1.205,-1.1882,-1.1876,-1.1509,-1.1521,-1.1963,-1.1129,-1.0645,-1.0583,-1.0119,-0.9906,-0.9893,-0.9893,-0.9918,-1.007,0.0,-1.1586,-1.2388,-1.2688,0.0,-1.2798,-1.2676,-1.2567,-1.2497,-1.3128,-1.3702,-1.378,-1.4257,-1.4663,-1.469,-1.4566,-1.4462,-1.4387,-1.4324,-1.4195,-1.4023,-1.3966,-1.3927,-1.3793,-1.3778,-1.3746,-1.3698,-1.3682,-1.3684,-1.3671,-1.3655,-1.3608,-1.3494,-1.3479,-1.3446,-1.3379,-1.3362,-1.3362,-1.3379,-1.3396,-1.3462,-1.3625,-1.4969,-1.5592,-1.5575,-1.4882,-1.4589,-1.4537,-1.3784,-1.3512,-1.3512,-1.3512,-1.3512,-1.3512,-1.3575,-1.3638,-1.3702,-1.3698,-1.3793,-1.3903,-1.3903,-1.3897,-1.3891,-1.39,-1.3944,-1.4012,-1.4086,-1.419,-1.4319,-1.4381,-1.4441,-1.4476,-1.4476,-1.4574,-1.464,-1.4603,-1.4632,-1.4651,-1.46,-1.4589,-1.4578,-1.4578,-1.4578,-1.4578,-1.4578,-1.4578,-1.4589,-1.4603,-1.4532,-1.4229,-1.357,-1.3289,-1.2865,-1.2143,-1.2008,-1.1933,-1.1881,-1.1298,-1.0955,-1.0967,-1.0239,-1.0232,-1.1011,-1.0326,-0.9925,-0.9863,-0.9869,-0.9869,-0.9888,-0.99,-0.9936,0.0,0.0,-1.1431,0.0,-1.2238,-1.2793,0.0,0.0,-1.1672,0.0,-1.2256,-1.2965,-1.3603,-1.3702,-1.3887,-1.4503,-1.4504,-1.4387,-1.4312,-1.4208,-1.4068,-1.3934,-1.3912,-1.3856,-1.3717,-1.3717,-1.3702,-1.362,-1.3608,-1.3594,-1.3528,-1.3462,-1.3429,-1.3413,-1.3362,-1.3312,-1.3312,-1.3261,-1.3227,-1.3227,-1.3346,-1.3446,-1.3528,-1.38,-1.3951,-1.4014,-1.3832,-1.3764,-1.3744,-1.3562,-1.3528,-1.3578,-1.3512,-1.3512,-1.3512,-1.3578,-1.3609,-1.362,-1.3746,-1.3841,-1.3903,-1.3894,-1.3891,-1.3891,-1.39,-1.3944,-1.4012,-1.4086,-1.419,-1.4324,-1.438,-1.4411,-1.4411,-1.4411,-1.4441,-1.4458,-1.4489,-1.4512,-1.4512,-1.453,-1.4515,-1.4511,-1.4511,-1.4469,-1.4458,-1.4499,-1.4511,-1.4533,-1.4589,-1.4011,-1.3541,-1.3514,-1.2209,-1.1322,-1.1266,-1.0586,-1.013,-1.013,-1.0043,-0.9987,-0.9994,-0.9823,-0.9789,-0.9916,-0.9852,-0.9796,-0.9731,-0.9731,-0.9764,-0.981,-0.9881,-0.99,-0.9794,-1.0219,-1.0633,0.0,-1.1052,-1.1344,-1.1384,-1.1079,-1.0762,-1.0773,-1.0995,-1.1558,-1.2747,-1.3263,-1.3719,-1.4423,-1.4434,-1.4306,-1.4208,-1.4096,-1.3984,-1.3818,-1.3793,-1.3735,-1.3592,-1.3543,-1.351,-1.3495,-1.3496,-1.3446,-1.3346,-1.3295,-1.3261,-1.3173,-1.3156,-1.3122,-1.3122,-1.3104,-1.3138,-1.3208,-1.3295,-1.3396,-1.3446,-1.3512,-1.3594,-1.3641,-1.3608,-1.3591,-1.3589,-1.3577,-1.3562,-1.3611,-1.3562,-1.3562,-1.3562,-1.3576,-1.3606,-1.3669,-1.3731,-1.3809,-1.3903,-1.39,-1.3894,-1.3906,-1.3894,-1.3955,-1.4009,-1.4078,-1.4203,-1.4306,-1.4337,-1.4319,-1.4282,-1.4288,-1.4263,-1.4245,-1.4314,-1.4386,-1.4433,-1.4439,-1.4441,-1.4453,-1.4453,-1.4381,-1.4381,-1.4423,-1.4405,-1.4246,-1.3857,-1.355,-1.3019,-1.2141,-1.1424,-1.0837,-1.0405,-0.9982,-0.9745,-0.9738,-0.9743,-0.9728,-0.9695,-0.9617,-0.9581,-0.9532,-0.9638,-0.9669,-0.9649,-0.9635,-0.9673,-0.9743,-0.9811,-0.9894,0.0,0.0,-0.9968,-1.0135,-1.0183,-1.0219,0.0,0.0,-1.0195,-1.0177,-1.0129,-1.0482,-1.1805,-1.2651,-1.3429,-1.4309,-1.4338,-1.4203,-1.4068,-1.3984,-1.3868,-1.3667,-1.3622,-1.3543,-1.3446,-1.3362,-1.3312,-1.3329,-1.3311,-1.326,-1.3158,-1.314,-1.3104,-1.2979,-1.2961,-1.2961,-1.2961,-1.2995,-1.3066,-1.3206,-1.3243,-1.3312,-1.3379,-1.3463,-1.3528,-1.3578,-1.3592,-1.3606,-1.3605,-1.3593,-1.3594,-1.3593,-1.3593,-1.3593,-1.3593,-1.3608,-1.3638,-1.3702,-1.3682,-1.3746,-1.3841,-1.3841,-1.3868,-1.3909,-1.3906,-1.3949,-1.4037,-1.4109,-1.4203,-1.4312,-1.4281,-1.4219,-1.4162,-1.4172,-1.415,-1.4119,-1.4211,-1.4295,-1.4368,-1.4362,-1.4362,-1.4355,-1.4355,-1.4312,-1.4281,-1.4342,-1.4125,-1.3775,-1.3216,-1.2858,-1.2185,-1.1011,-1.074,-1.0405,-0.9832,-0.9717,-0.9666,-0.9669,-0.9657,-0.9617,-0.9549,-0.9465,-0.9394,-0.9348,-0.9439,-0.9508,-0.9518,-0.9559,-0.962,-0.971,-0.9793,-0.9888,0.0,-0.9563,0.0,-1.0048,-1.0154,-1.0201,0.0,0.0,-1.0183,-1.0125,-1.0052,-1.0222,-1.0948,-1.1676,-1.2647,-1.4089,-1.419,-1.4068,-1.392,-1.3791,-1.3653,-1.3526,-1.3412,-1.3295,-1.3227,-1.3158,-1.3121,-1.3119,-1.3119,-1.3084,-1.2997,-1.3013,-1.2979,-1.2908,-1.2908,-1.2908,-1.2908,-1.2961,-1.3066,-1.3206,-1.3192,-1.3227,-1.3312,-1.3429,-1.3512,-1.3512,-1.3578,-1.3609,-1.3605,-1.3593,-1.3609,-1.3605,-1.3605,-1.3605,-1.3589,-1.3593,-1.3641,-1.3686,-1.362,-1.3652,-1.3713,-1.3713,-1.3809,-1.3903,-1.3909,-1.3995,-1.4114,-1.419,-1.4257,-1.4291,-1.4229,-1.4154,-1.4114,-1.4109,-1.4096,-1.4141,-1.4278,-1.4299,-1.4324,-1.4317,-1.4242,-1.4198,-1.4198,-1.4198,-1.4216,-1.4198,-1.355,-1.3058,-1.3028,-1.1739,-1.0839,-1.0813,-1.0138,-0.9688,-0.9698,-0.9641,-0.9609,-0.9609,-0.9543,-0.9475,-0.9412,-0.9284,-0.9214,-0.9216,-0.9226,-0.9251,-0.9321,-0.9439,-0.9573,-0.971,-0.9838,-0.9927,0.0,0.0,0.0,-0.8999,-0.8796,-0.8687,-0.9236,-0.9359,-0.951,-0.9994,-0.9982,-1.0082,-1.0745,-1.1443,-1.2216,-1.3183,-1.3616,-1.3809,-1.3653,-1.3526,-1.3412,-1.3329,-1.3192,-1.307,-1.3016,-1.2961,-1.2906,-1.2904,-1.2904,-1.2885,-1.2813,-1.285,-1.2832,-1.2778,-1.2813,-1.2869,-1.2889,-1.2961,-1.3066,-1.3206,-1.3192,-1.3227,-1.3295,-1.3379,-1.3446,-1.3446,-1.3512,-1.356,-1.3605,-1.3591,-1.3606,-1.3605,-1.3605,-1.3605,-1.3589,-1.361,-1.3627,-1.3642,-1.3609,-1.3624,-1.3652,-1.3698,-1.3761,-1.3838,-1.3894,-1.3966,-1.404,-1.4068,-1.4109,-1.4168,-1.4091,-1.4046,-1.4023,-1.3973,-1.3944,-1.3912,-1.3909,-1.4023,-1.4105,-1.4114,-1.4082,-1.4068,-1.4068,-1.4037,-1.4005,-1.4005,-1.3321,-1.2616,-1.2102,-1.1145,-1.0344,-0.9877,-0.9573,-0.943,-0.9508,-0.9491,-0.9474,-0.9475,-0.9403,-0.9339,-0.9281,-0.9184,-0.9133,-0.9147,-0.914,-0.9187,-0.9312,-0.9429,-0.9563,-0.971,-0.9844,-0.9929,-0.7895,0.0,0.0,0.0,-0.7785,-0.77,-0.8314,-0.8673,-0.9018,-0.9525,-0.9695,-0.9856,-1.0265,-1.0813,-1.1464,-1.2199,-1.2617,-1.2785,-1.2681,-1.2553,-1.2539,-1.2706,-1.2617,-1.2608,-1.2783,-1.2738,-1.2697,-1.2697,-1.2716,-1.2716,-1.2678,-1.2716,-1.2719,-1.2703,-1.2757,-1.2832,-1.2889,-1.2942,-1.3048,-1.3206,-1.3192,-1.3227,-1.3278,-1.3346,-1.3362,-1.3346,-1.3379,-1.3445,-1.3526,-1.3526,-1.3526,-1.3527,-1.3526,-1.3526,-1.3526,-1.3528,-1.3529,-1.3528,-1.3529,-1.3528,-1.3542,-1.3636,-1.3715,-1.3778,-1.3865,-1.3923,-1.3966,-1.3963,-1.4009,-1.4026,-1.3952,-1.3894,-1.3851,-1.3809,-1.3748,-1.3686,-1.3638,-1.3774,-1.3891,-1.3897,-1.3897,-1.3897,-1.3894,-1.3848,-1.3833,-1.3803,-1.29,-1.2038,-1.1464,-1.0522,-0.9717,-0.9254,-0.9216,-0.9247,-0.9303,-0.9321,-0.9339,-0.9338,-0.9282,-0.9234,-0.9174,-0.9123,-0.9102,-0.914,-0.9167,-0.9237,-0.9368,-0.9481,-0.9594,-0.9731,-0.985,-0.9918,0.0,0.0,0.0,0.0,0.0,0.0,-0.7517,0.0,-0.8707,-0.8697,-0.9152,-0.9516,-0.942,-0.976,-1.0325,-1.1166,-1.1182,-1.1062,-1.0982,-1.0866,-1.1039,-1.1678,-1.1639,-1.1823,-1.2463,-1.2478,-1.2431,-1.2431,-1.2491,-1.2526,-1.2526,-1.2533,-1.2575,-1.2619,-1.2692,-1.2783,-1.2857,-1.2857,-1.298,-1.3206,-1.3192,-1.321,-1.321,-1.3261,-1.3261,-1.3192,-1.3192,-1.3261,-1.3396,-1.3396,-1.3379,-1.3396,-1.3379,-1.3379,-1.3362,-1.3362,-1.3362,-1.3362,-1.3362,-1.3379,-1.3429,-1.3557,-1.3653,-1.3717,-1.3841,-1.388,-1.3856,-1.3856,-1.3856,-1.3842,-1.3791,-1.37,-1.3605,-1.3605,-1.3543,-1.3496,-1.3479,-1.3591,-1.3682,-1.3686,-1.3686,-1.3702,-1.3682,-1.3698,-1.3667,-1.3605,-1.2284,-1.1281,-1.1199,-0.9847,-0.893,-0.8992,-0.9043,-0.9088,-0.9088,-0.9164,-0.9201,-0.9201,-0.9199,-0.9178,-0.9116,-0.9099,-0.9136,-0.9212,-0.9275,-0.9376,-0.9506,-0.9573,-0.9666,-0.9798,-0.9875,-0.988,-0.5599,0.0,0.0,0.0,0.0,0.0,-0.6335,-0.6728,-0.7231,-0.8325,-0.8568,-0.8713,-0.9113,-0.9089,-0.9048,-0.914,-1.0041,-1.0714,-1.0654,-1.0607,-1.0624,-1.0783,-1.0715,-1.0709,-1.0847,-1.0805,-1.0751,-1.0772,-1.079,-1.0807,-1.0859,-1.0966,-1.1052,-1.1103,-1.1154,-1.1496,-1.21,-1.2153,-1.2485,-1.3136,-1.3189,-1.319,-1.319,-1.3173,-1.3121,-1.3051,-1.2998,-1.3015,-1.3049,-1.3209,-1.3261,-1.3261,-1.3261,-1.2924,-1.2469,-1.2471,-1.2455,-1.2471,-1.252,-1.289,-1.3362,-1.3542,-1.3605,-1.3636,-1.3731,-1.3362,-1.2866,-1.2823,-1.2779,-1.2884,-1.3438,-1.351,-1.3478,-1.3577,-1.3512,-1.3413,-1.3362,-1.3363,-1.3363,-1.3413,-1.3412,-1.3412,-1.3412,-1.3412,-1.3412,-1.3396,-1.206,-1.1085,-1.1056,-0.9752,-0.8834,-0.8852,-0.8875,-0.8902,-0.8957,-0.9022,-0.9081,-0.913,-0.9174,-0.9194,-0.9174,-0.9265,-0.9322,-0.935,-0.9461,-0.9526,-0.9581,-0.9597,-0.9643,-0.9731,-0.9805,-0.9526,0.0,0.0,0.0,0.0,0.0,0.0,-0.5249,-0.5781,-0.6371,-0.7274,-0.7561,-0.7827,-0.8339,-0.8154,-0.7957,-0.8003,-0.8666,-0.9235,-0.9359,-0.9344,-0.9437,-0.9699,-0.968,-0.9737,-0.9962,-0.9955,-0.9952,-0.9972,-1.0007,-1.006,-1.0146,-1.0282,-1.0397,-1.0462,-1.0559,-1.0849,-1.1335,-1.1417,-1.1844,-1.2638,-1.2654,-1.2786,-1.3064,-1.2993,-1.2904,-1.2827,-1.2792,-1.2754,-1.2751,-1.2887,-1.298,-1.3001,-1.2687,-1.234,-1.1942,-1.1659,-1.1558,-1.1608,-1.1989,-1.2389,-1.2841,-1.3342,-1.3304,-1.3062,-1.3139,-1.2606,-1.1932,-1.1878,-1.1992,-1.2252,-1.2755,-1.2807,-1.2774,-1.2889,-1.2637,-1.2353,-1.2337,-1.229,-1.244,-1.3091,-1.3208,-1.3226,-1.326,-1.2992,-1.2807,-1.2807,-1.1515,-1.053,-1.0503,-0.948,-0.8729,-0.8672,-0.87,-0.8724,-0.8766,-0.8891,-0.9001,-0.9102,-0.9216,-0.9285,-0.9322,-0.9106,-0.899,-0.9021,-0.878,-0.8596,-0.8523,-0.9234,-0.9414,-0.9085,-0.9114,-0.8727,0.0,0.0,0.0,0.0,-0.3463,0.0,-0.434,-0.5171,-0.5862,-0.5956,-0.638,-0.6853,-0.7268,-0.7119,-0.7028,-0.7359,-0.7232,-0.7227,-0.765,-0.7665,-0.7885,-0.8518,-0.8559,-0.8748,-0.9375,-0.9413,-0.9445,-0.9532,-0.962,-0.9725,-0.983,-0.998,-1.0078,-1.0127,-1.0272,-1.0414,-1.0556,-1.0633,-1.1071,-1.186,-1.1794,-1.2089,-1.2639,-1.2576,-1.253,-1.2478,-1.2542,-1.2534,-1.2479,-1.2542,-1.261,-1.2579,-1.1932,-1.1627,-1.1482,-1.0876,-1.0661,-1.0759,-1.1497,-1.1859,-1.2124,-1.2906,-1.2783,-1.2307,-1.2265,-1.1704,-1.1039,-1.0955,-1.1277,-1.1679,-1.1827,-1.1778,-1.1712,-1.186,-1.141,-1.0943,-1.1004,-1.0962,-1.1282,-1.2588,-1.2836,-1.2852,-1.2921,-1.239,-1.1957,-1.1988,-1.0812,-0.9894,-0.9829,-0.9176,-0.8652,-0.8522,-0.8571,-0.8612,-0.8616,-0.8789,-0.8979,-0.9109,-0.9313,-0.941,-0.939,-0.8775,-0.8421,-0.8378,-0.7742,-0.7311,-0.7097,-0.8713,-0.8994,-0.8031,-0.8095,-0.773,0.0,0.0,-0.218,-0.2355,-0.2873,0.0,-0.3977,-0.4496,-0.5053,-0.5703,-0.5758,-0.5843,-0.6291,-0.6359,-0.6339,-0.6252,-0.6279,-0.6516,-0.7082,-0.7193,-0.7251,-0.7343,-0.7386,-0.7488,-0.7664,-0.7645,-0.7692,-0.7946,-0.812,-0.8213,-0.8244,-0.8378,-0.848,-0.8553,-0.8724,-0.9091,-0.9649,-0.9827,-1.0259,-1.0961,-1.0992,-1.1026,-1.1059,-1.1519,-1.1719,-1.1746,-1.2223,-1.2439,-1.2419,-1.2423,-1.217,-1.1741,-1.1649,-1.0945,-0.9931,-0.9798,-0.9749,-0.9798,-1.0119,-1.1016,-1.1974,-1.1766,-1.198,-1.219,-1.1608,-1.0825,-1.0102,-0.9877,-0.9892,-1.0136,-1.0844,-1.1006,-1.1052,-1.1234,-1.1177,-1.1059,-1.109,-1.1018,-1.1028,-1.12,-1.1204,-1.1156,-1.1188,-1.1105,-1.1085,-1.1206,-1.0511,-0.9979,-0.9963,-0.9279,-0.8717,-0.8587,-0.8596,-0.8624,-0.8681,-0.8858,-0.9057,-0.9258,-0.945,-0.93,-0.8724,-0.8654,-0.8324,-0.7627,-0.7947,-0.795,-0.764,-0.8529,-0.8251,-0.6933,-0.7474,-0.7029,-0.1843,-0.1385,-0.1172,-0.1469,-0.2127,0.0,0.0,-0.4118,-0.4609,-0.4981,-0.4814,-0.4702,-0.5042,-0.4999,-0.4947,-0.5044,-0.514,-0.526,-0.5391,-0.6068,-0.6545,-0.6541,-0.6634,-0.6731,-0.6848,-0.6881,-0.7029,-0.7326,-0.7543,-0.7664,-0.7694,-0.7827,-0.7956,-0.8055,-0.8207,-0.8485,-0.89,-0.9027,-0.9454,-1.0152,-1.0151,-1.0269,-1.0479,-1.1108,-1.1385,-1.1396,-1.2066,-1.2343,-1.2363,-1.2459,-1.1901,-1.0954,-1.1003,-1.0367,-0.9409,-0.911,-0.8984,-0.9019,-0.9569,-1.0201,-1.0839,-1.1049,-1.1033,-1.0877,-1.0463,-0.9727,-0.8968,-0.8829,-0.9041,-0.9404,-0.9873,-0.9983,-0.9998,-1.0161,-0.9973,-0.9755,-0.9752,-0.9752,-0.9727,-0.9625,-0.9628,-0.99,-1.0664,-1.0559,-1.0397,-1.0521,-0.9988,-0.9531,-0.9467,-0.904,-0.8677,-0.8476,-0.8441,-0.8457,-0.8504,-0.8749,-0.8843,-0.8718,-0.8917,-0.8728,-0.8036,-0.7672,-0.7089,-0.6223,-0.7189,-0.7353,-0.6649,-0.7791,-0.7668,-0.6399,-0.6611,-0.6149,-0.089,-0.0163,0.0313,-0.0251,-0.0961,-0.179,0.0,0.0,0.0,-0.4174,-0.3869,-0.3622,-0.3697,-0.3517,-0.3439,-0.3732,-0.3858,-0.3817,-0.355,-0.4562,-0.5419,-0.5671,-0.5925,-0.6142,-0.6242,-0.6503,-0.6785,-0.7075,-0.731,-0.7451,-0.753,-0.7679,-0.7827,-0.7957,-0.8097,-0.8218,-0.8322,-0.8403,-0.8746,-0.9338,-0.9294,-0.9509,-0.9939,-1.061,-1.0984,-1.1122,-1.1862,-1.2238,-1.2363,-1.2376,-1.1587,-1.0365,-1.0429,-0.9938,-0.9155,-0.8663,-0.8428,-0.8482,-0.9194,-0.9484,-0.9634,-1.0207,-0.9904,-0.9278,-0.9189,-0.8624,-0.8025,-0.8025,-0.8423,-0.8865,-0.8957,-0.8942,-0.8941,-0.906,-0.8722,-0.8353,-0.8335,-0.8374,-0.8415,-0.8348,-0.8441,-0.8945,-1.0246,-1.0058,-0.9773,-0.9884,-0.9445,-0.9071,-0.8936,-0.8761,-0.853,-0.8251,-0.8203,-0.8189,-0.8198,-0.8412,-0.8387,-0.8075,-0.8186,-0.7966,-0.7281,-0.6488,-0.5729,-0.5018,-0.6411,-0.6686,-0.5747,-0.7205,-0.7227,-0.5941,-0.5748,-0.5298,0.0679,0.1813,0.2588,0.1646,0.1201,0.0438,-0.1683,0.0,-0.2986,-0.3633,0.0,-0.2719,-0.2386,0.0,0.0,-0.2275,-0.2397,-0.2514,-0.2482,-0.2713,-0.3232,-0.4133,-0.4882,-0.5331,-0.5347,-0.6058,-0.6579,-0.674,-0.7006,-0.7203,-0.7329,-0.7514,-0.7679,-0.7827,-0.7957,-0.8041,-0.8053,-0.8178,-0.8279,-0.8357,-0.8411,-0.8458,-0.8539,-0.923,-0.9939,-1.072,-1.139,-1.2024,-1.2506,-1.1894,-1.1075,-1.0264,-1.0479,-0.9772,-0.8579,-0.846,-0.8364,-0.833,-0.843,-0.8843,-0.9257,-0.8757,-0.8395,-0.8142,-0.7973,-0.7841,-0.7753,-0.7753,-0.7842,-0.7975,-0.8106,-0.8176,-0.8231,-0.83,-0.8279,-0.8214,-0.8144,-0.8144,-0.8144,-0.8144,-0.8185,-0.8393,-0.8874,-0.9037,-0.9133,-0.9196,-0.9199,-0.9146,-0.9011,-0.867,-0.8307,-0.7991,-0.7839,-0.7796,-0.7851,-0.7672,-0.7664,-0.7901,-0.7616,-0.711,-0.637,-0.5641,-0.5154,-0.5,-0.6496,-0.7078,-0.6652,-0.7499,-0.6927,-0.5047,-0.5139,-0.4757,0.2597,0.3613,0.4413,0.3681,0.2974,0.2098,0.0788,-0.0387,-0.1289,-0.1605,0.0,0.0,0.0,0.0,0.0,0.0,-0.0892,-0.0978,-0.0868,-0.1264,-0.202,-0.3224,-0.3799,-0.4222,-0.4534,-0.5032,-0.5417,-0.5578,-0.5811,-0.6155,-0.6638,-0.6813,-0.7113,-0.756,-0.7739,-0.7841,-0.7884,-0.7983,-0.8025,-0.8025,-0.8097,-0.8097,-0.8085,-0.8758,-0.9282,-0.9702,-1.0373,-1.0856,-1.1137,-1.081,-1.0196,-0.9463,-0.9529,-0.9031,-0.8272,-0.8189,-0.8108,-0.7996,-0.8009,-0.8121,-0.8184,-0.7753,-0.7533,-0.7382,-0.7227,-0.718,-0.7193,-0.727,-0.7346,-0.7422,-0.756,-0.7591,-0.7577,-0.7606,-0.7562,-0.7488,-0.7413,-0.7428,-0.7488,-0.7621,-0.7752,-0.7948,-0.8287,-0.8624,-0.884,-0.8913,-0.8885,-0.8745,-0.8404,-0.7903,-0.7417,-0.6968,-0.6748,-0.6629,-0.6531,-0.667,-0.6662,-0.6411,-0.608,-0.5795,-0.5523,-0.5731,-0.583,-0.5763,-0.7351,-0.8033,-0.7719,-0.8039,-0.723,-0.542,-0.5116,-0.4612,0.4578,0.5516,0.6319,0.5676,0.4946,0.4071,0.288,0.1618,0.0582,0.0139,-0.0007,0.0,0.0,0.0,0.0539,0.0,0.0,0.051,0.0597,0.0077,-0.0809,-0.2108,-0.2713,-0.3251,-0.3818,-0.417,-0.446,-0.4673,-0.492,-0.5293,-0.5874,-0.6174,-0.6575,-0.7079,-0.7414,-0.7635,-0.7694,-0.7739,-0.7782,-0.7811,-0.7855,-0.7841,-0.7841,-0.8318,-0.868,-0.894,-0.9424,-0.9758,-0.9957,-0.9743,-0.928,-0.8653,-0.8383,-0.8032,-0.7709,-0.7781,-0.7709,-0.7577,-0.7517,-0.7381,-0.7182,-0.6988,-0.6875,-0.6805,-0.6702,-0.6685,-0.6718,-0.6845,-0.6944,-0.7058,-0.7203,-0.7205,-0.713,-0.7114,-0.7002,-0.6871,-0.6772,-0.6789,-0.6875,-0.7114,-0.7275,-0.7488,-0.7824,-0.8264,-0.8571,-0.8627,-0.8469,-0.8147,-0.7641,-0.7038,-0.6445,-0.5859,-0.5693,-0.5555,-0.5367,-0.5619,-0.5572,-0.5088,-0.4923,-0.4988,-0.5312,-0.5998,-0.6353,-0.632,-0.7754,-0.8266,-0.779,-0.7978,-0.719,-0.5505,-0.4946,-0.4347,0.6589,0.7633,0.848,0.7543,0.7345,0.6654,0.3981,0.3178,0.2557,0.0993,0.1026,0.1395,0.1609,0.1699,0.0,0.0,0.0,0.0,0.0,0.1351,0.068,-0.0531,-0.1654,-0.2591,-0.3254,-0.3746,-0.4117,-0.4389,-0.4723,-0.4971,-0.5125,-0.5821,-0.6255,-0.6339,-0.6977,-0.7345,-0.7407,-0.7407,-0.7484,-0.7605,-0.7545,-0.7546,-0.7606,-0.7635,-0.8033,-0.8704,-0.8719,-0.9074,-0.9555,-0.8847,-0.8382,-0.8038,-0.726,-0.6838,-0.67,-0.7154,-0.7201,-0.6996,-0.6802,-0.665,-0.6528,-0.6443,-0.6416,-0.6406,-0.6331,-0.6366,-0.6436,-0.6569,-0.6706,-0.6858,-0.7058,-0.7058,-0.6993,-0.6927,-0.6748,-0.6566,-0.6441,-0.6376,-0.6416,-0.6744,-0.6832,-0.6937,-0.7258,-0.7823,-0.8217,-0.8224,-0.7891,-0.7414,-0.6819,-0.6203,-0.5557,-0.4819,-0.4856,-0.4876,-0.4736,-0.4557,-0.4459,-0.4435,-0.4606,-0.5151,-0.6124,-0.6249,-0.6326,-0.6399,-0.7285,-0.7259,-0.6265,-0.6932,-0.6416,-0.4824,-0.4345,-0.3737,0.7987,0.8656,0.9289,0.8831,0.8338,0.7711,0.6727,0.5809,0.4966,0.434,0.3739,0.3331,0.3411,0.3037,0.0,0.0,0.0,0.0,0.0,0.2089,0.1449,0.0676,-0.0568,-0.1551,-0.1993,-0.2427,-0.2808,-0.3122,-0.345,-0.3892,-0.4475,-0.4829,-0.5402,-0.627,-0.6561,-0.6895,-0.7266,-0.7219,-0.7187,-0.7139,-0.7107,-0.7077,-0.6988,-0.691,-0.7036,-0.731,-0.731,-0.7432,-0.7604,-0.7381,-0.7212,-0.701,-0.6693,-0.6446,-0.63,-0.6545,-0.6516,-0.6298,-0.6065,-0.5945,-0.5895,-0.5775,-0.5741,-0.5726,-0.5718,-0.5745,-0.5856,-0.602,-0.6236,-0.6448,-0.6647,-0.6681,-0.6647,-0.6591,-0.6283,-0.595,-0.5767,-0.5571,-0.5542,-0.5943,-0.5968,-0.6041,-0.632,-0.6105,-0.6096,-0.6713,-0.6197,-0.5582,-0.5107,-0.4639,-0.4179,-0.3753,-0.3747,-0.3696,-0.3531,-0.3729,-0.3969,-0.4181,-0.4392,-0.4934,-0.5894,-0.6601,-0.7216,-0.7782,-0.8116,-0.804,-0.7525,-0.6687,-0.5451,-0.3843,-0.2891,-0.2503,0.8946,0.9345,0.9659,0.9541,0.8952,0.8323,0.7978,0.7207,0.6475,0.6086,0.5457,0.4988,0.507,0.4474,0.0,0.0,0.0,0.0,0.0,0.2753,0.2201,0.1684,0.0384,-0.0629,-0.1044,-0.1488,-0.1936,-0.2364,-0.272,-0.3214,-0.3846,-0.4236,-0.4806,-0.564,-0.6119,-0.649,-0.678,-0.6919,-0.6927,-0.6824,-0.6774,-0.6723,-0.6613,-0.6497,-0.6451,-0.6497,-0.6497,-0.648,-0.6458,-0.6446,-0.6376,-0.623,-0.6171,-0.6027,-0.5841,-0.6011,-0.592,-0.5653,-0.5451,-0.5347,-0.5271,-0.5214,-0.5146,-0.5127,-0.5175,-0.5233,-0.5349,-0.5595,-0.5826,-0.6063,-0.623,-0.6248,-0.6183,-0.604,-0.5646,-0.5232,-0.5001,-0.469,-0.4582,-0.4953,-0.4953,-0.4972,-0.5217,-0.4456,-0.4184,-0.5267,-0.4682,-0.3986,-0.3607,-0.3352,-0.3109,-0.2839,-0.2947,-0.2973,-0.2838,-0.3127,-0.3471,-0.3829,-0.4036,-0.468,-0.5852,-0.6525,-0.7098,-0.7603,-0.7576,-0.7156,-0.6304,-0.523,-0.3894,-0.2348,-0.1553,-0.1159]}]]